     2              OBSERVATION DATA    GPS                 RINEX VERSION / TYPE
teqc 1997Sep10 19971030 21:24:56UTC                         PGM / RUN BY / DATE
                                                            COMMENT
Original Marker Name: 55446.BOUC                            COMMENT
Campaign Name: NGS Imperial Valley 1990                     COMMENT
4-Character Station Name: BOUC                              COMMENT
6-Character Antenna Code: TI4100                            COMMENT
Vertical Measurement Point: PAE                             COMMENT
Vertical Offset to Rinex Ref. Point: 0.0000                 COMMENT
Radial Measurement Point: RRP                               COMMENT
Radial Offset to Rinex Ref. Point: 0.0000                   COMMENT
Antenna Height from Field Measurement: 1.1740 m             COMMENT
Original XYZ: -2415588.4051 -4757420.6395 3485945.5837      COMMENT
New XYZ position is based on association with SCEC monument COMMENT
E1D0C8V9+0011. Position of that monument is believed to be  COMMENT
valid to within 1 m horizontally; vertical accuracy         COMMENT
should be no worse than 3-times this value.                 COMMENT
                                                            COMMENT
Revised Rinex header created by UCSD GPS archive for        COMMENT
GSAC on 12-Apr-1999 (1999:102) 02:30:13 GMT                 COMMENT
For assistance contact dagnew@ucsd.edu or hjohnson@ucsd.edu COMMENT
                                                            COMMENT
BOUCHER 2                                                   MARKER NAME
5 NATIONAL GEODETIC SURVEY                                  OBSERVER / AGENCY
30 TI 4100 1.9                                              REC # / TYPE / VERS
156 TI 4100                                                 ANT # / TYPE
 -2415577.0000 -4757396.0000  3485928.0000                  APPROX POSITION XYZ
        1.1740        0.0000        0.0000                  ANTENNA: DELTA H/E/N
     1     1     0                                          WAVELENGTH FACT L1/2
     4    P1    P2    L1    L2                              # / TYPES OF OBSERV
    15                                                      INTERVAL
  1990     3     8     4    54   14.000000                  TIME OF FIRST OBS
  1990     3     8     9     0   29.000000                  TIME OF LAST OBS
     0                                                      # OF SATELLITES
                                                            END OF HEADER
 90  3  8  4 54 14.0800000  0  2G 6G11
                  22330640.310      117917.245 8
                  22262508.799       98895.066 9
 90  3  8  4 54 29.0800000  0  4G 6G 9G11G13
                  22335019.113      140795.665 8
                  22032232.118       29021.528 9
                  22264972.160      111696.386 8
                  23047462.251      -14549.677 9
 90  3  8  4 54 44.0800000  0  4G 6G 9G11G13
  22339399.207    22339404.859      163813.347 8    257754.928 7
                  22029306.660       13524.799 7
  22267426.542    22267433.797      124602.322 9    262730.270 8
  23041445.219    23041451.208      -46355.681 8    292368.493 8
 90  3  8  4 54 59.0800000  0  4G 6G 9G11G13
  22343804.186    22343808.170      186970.310 7    275799.296 7
  22026382.084    22026389.080       -1838.316 8    335150.532 8
  22269902.663    22269908.373      137612.175 8    272867.818 7
  23035414.074    23035418.338      -78052.298 8    267669.377 7
 90  3  8  4 55 14.0800000  0  4G 6G 9G11G13
  22348236.894    22348242.190      210266.527 8    293952.191 7
  22023485.511    22023491.234      -17068.111 8    323283.163 9
  22272399.545    22272404.897      150725.961 8    283086.351 8
  23029403.713    23029407.684     -109639.532 8    243055.956 7
 90  3  8  4 55 29.0800000  0  4G 6G 9G11G13
  22352697.787    22352702.912      233702.046 8    312213.636 7
  22020612.776    22020617.771      -32163.777 8    311520.290 9
  22274914.059    22274919.795      163943.449 8    293385.704 9
  23023413.718    23023416.425     -141117.147 9    218527.985 8
 90  3  8  4 55 44.0800000  0  4G 6G 9G11G13
  22357184.630    22357189.364      257276.833 9    330583.582 8
  22017764.831    22017770.650      -47125.390 8    299861.917 8
  22277447.899    22277455.069      177264.355 8    303765.627 9
  23017444.753    23017446.874     -172485.067 9    194085.468 8
 90  3  8  4 55 59.0800000  0  4G 6G 9G11G13
  22361696.230    22361702.645      280991.063 8    349062.196 8
  22014944.362    22014948.927      -61952.322 8    288308.476 8
  22280003.223    22280009.317      190688.720 8    314226.157 8
  23011496.482    23011500.851     -203743.183 9    169728.503 7
 90  3  8  4 56 14.0800000  0  4G 6G 9G11G13
  22366235.328    22366241.132      304844.737 7    367649.460 8
  22012148.195    22012152.490      -76644.333 9    276860.160 7
  22282577.575    22282583.428      204216.285 9    324767.137 8
  23005568.831    23005573.650     -234891.305 9    145457.263 8
 90  3  8  4 56 29.0800000  0  4G 6G 9G11G13
  22370801.581    22370806.518      328837.533 9    386345.128 8
  22009376.752    22009382.073      -91201.302 8    265517.071 8
  22285171.789    22285176.225      217846.435 9    335388.047 8
  22999662.680    22999667.502     -265929.571 9    121271.643 8
 90  3  8  4 56 44.0800000  0  4G 6G 9G11G13
  22375394.461    22375399.476      352969.343 8    405149.126 7
  22006632.754    22006639.451     -105623.213 8    254279.229 8
  22287785.163    22287790.401      231578.993 8    346088.748 8
  22993775.111    22993780.979     -296858.103 9     97171.525 8
 90  3  8  4 56 59.0800000  0  4G 6G 9G11G13
  22380011.287    22380016.817      377240.328 8    424061.561 7
  22003915.720    22003919.618     -119909.193 7    243147.316 9
  22290416.252    22290421.918      245413.866 8    356869.170 8
  22987911.259    22987916.860     -327676.554 8     73157.176 8
 90  3  8  4 57 14.0800000  0  4G 6G 9G11G13
  22384658.978    22384662.165      401650.310 9    443082.314 8
  22001222.244    22001227.809     -134059.456 8    232121.152 9
  22293067.716    22293074.900      259350.700 8    367729.033 9
  22982067.897    22982073.330     -358384.582 8     49228.885 7
 90  3  8  4 57 29.0800000  0  4G 6G 9G11G13
  22389330.789    22389333.909      426199.250 9    462211.355 7
  21998554.631    21998560.190     -148073.804 7    221200.893 9
  22295741.247    22295746.169      273389.194 8    378668.118 8
  22976246.176    22976250.236     -388982.518 8     25386.359 7
 90  3  8  4 57 44.0800000  0  4G 6G 9G11G13
  22394025.991    22394031.391      450886.993 9    481448.539 7
  21995914.293    21995920.217     -161951.706 8    210386.938 9
  22298432.633    22298436.355      287529.221 9    389686.343 8
  22970443.137    22970450.077     -419470.174 8      1629.786 8
 90  3  8  4 57 59.0800000  0  4G 6G 9G11G13
  22398751.251    22398757.852      475713.713 8    500794.034 8
  21993298.895    21993304.647     -175692.980 7    199679.435 8
  22301141.594    22301145.944      301770.576 9    400783.503 8
  22964662.091    22964669.164     -449847.538 9    -22040.867 8
 90  3  8  4 58 14.0800000  0  4G 6G 9G11G13
  22403503.385    22403506.593      500679.249 8    520247.694 7
  21990709.898    21990715.992     -189297.496 8    189078.524 8
  22303870.000    22303877.054      316112.962 8    411959.385 8
  22958902.053    22958908.577     -480114.357 8    -45625.367 7
 90  3  8  4 58 29.0800000  0  4G 6G 9G11G13
  22408279.485    22408284.404      525783.436 9    539809.381 8
  21988147.280    21988153.504     -202764.711 7    178584.604 8
  22306617.451    22306625.792      330556.033 9    423213.727 8
  22953163.564    22953170.133     -510270.721 8    -69123.803 7
 90  3  8  4 58 44.0800000  0  4G 6G 9G11G13
  22413082.305    22413088.168      551026.365 9    559479.188 8
  21985609.945    21985615.733     -216094.643 8    168197.672 7
  22309388.584    22309392.132      345099.702 9    434546.461 8
  22947446.261    22947453.475     -540316.388 9    -92535.999 7
 90  3  8  4 58 59.0800000  0  4G 6G 9G11G13
  22417912.528    22417919.020      576407.861 8    579256.969 7
  21983099.627    21983106.615     -229287.053 8    157917.850 7
  22312174.154    22312178.705      359743.505 8    445957.226 8
  22941749.174    22941755.274     -570251.600 9   -115862.107 8
 90  3  8  4 59 14.0800000  0  4G 6G 9G11G13
  22422768.130    22422773.772      601928.091 9    599142.863 8
  21980618.013    21980620.953     -242341.202 7    147745.799 8
  22314978.642    22314984.824      374487.410 9    457445.999 7
  22936074.088    22936082.187     -600076.230 9   -139102.067 7
 90  3  8  4 59 29.0800000  0  4G 6G 9G11G13
  22427652.259    22427657.682      627586.725 8    619136.594 8
  21978160.809    21978162.556     -255257.499 7    137681.182 7
  22317801.660    22317810.031      389331.041 7    469012.462 8
  22930420.820    22930427.479     -629790.276 8   -162255.830 7
 90  3  8  4 59 44.0800000  0  4G 6G 9G11G13
  22432562.087    22432566.926      653383.783 8    639238.179 8
  21975727.925    21975731.103     -268035.233 8    127724.521 8
  22320646.357    22320651.435      404274.179 9    480656.470 8
  22924786.773    22924793.763     -659393.618 9   -185323.352 7
 90  3  8  4 59 59.0800000  0  4G 6G 9G11G13
  22437497.038    22437501.266      679319.087 9    659447.494 9
  21973322.365    21973325.220     -280674.409 8    117875.768 8
  22323510.528    22323513.502      419316.344 8    492377.645 8
  22919174.125    22919182.230     -688886.150 8   -208304.496 8
 90  3  8  5  0 14.0800000  0  4G 6G 9G11G13
  22442459.125    22442462.307      705392.704 8    679764.578 9
  21970942.703    21970947.375     -293174.628 7    108135.353 8
  22326390.668    22326395.862      434457.427 8    504175.912 9
  22913584.611    22913590.249     -718267.740 9   -231199.216 8
 90  3  8  5  0 29.0800000  0  4G 6G 9G11G13
  22447446.241    22447450.539      731604.690 9    700189.496 7
  21968590.660    21968595.511     -305535.521 8     98503.512 8
  22329288.122    22329297.452      449697.414 8    516051.210 8
  22908013.871    22908020.176     -747538.037 8   -254007.215 8
 90  3  8  5  0 44.0800000  0  4G 6G 9G11G13
  22452458.921    22452464.820      757954.885 8    720722.088 7
  21966266.404    21966270.459     -317757.109 9     88980.214 8
  22332209.989    22332216.328      465035.974 8    528003.326 7
  22902463.649    22902471.310     -776697.044 8   -276728.492 7
 90  3  8  5  0 59.0800000  0  4G 6G 9G11G13
  22457500.569    22457505.571      784443.245 8    741362.361 8
  21963967.018    21963971.217     -329838.711 8     79565.975 8
  22335149.554    22335153.433      480472.699 8    540031.977 8
  22896936.924    22896943.467     -805744.815 8   -299363.097 8
 90  3  8  5  1 14.0800000  0  4G 6G 9G11G13
  22462568.156    22462571.547      811069.341 8    762109.958 8
  21961694.311    21961698.976     -341780.919 9     70260.355 8
  22338102.601    22338109.369      496007.356 8    552136.917 9
  22891430.463    22891436.199     -834681.554 9   -321911.183 7
 90  3  8  5  1 29.0800000  0  4G 6G 9G11G13
  22467660.099    22467665.584      837833.390 8    782965.058 7
  21959448.276    21959453.420     -353582.761 8     61064.115 8
  22341077.610    22341083.336      511639.650 9    564317.905 8
  22885943.965    22885951.302     -863507.218 9   -344372.727 8
 90  3  8  5  1 44.0800000  0  4G 6G 9G11G13
  22472779.420    22472785.620      864735.232 7    803927.514 7
  21957227.076    21957233.165     -365244.233 9     51977.257 8
  22344070.880    22344076.932      527369.347 9    576574.830 9
  22880480.609    22880488.695     -892221.743 8   -366747.652 8
 90  3  8  5  1 59.0800000  0  4G 6G 9G11G13
  22477924.475    22477930.510      891774.849 8    824997.316 8
  21955037.526    21955040.310     -376765.042 8     43000.035 7
  22347082.436    22347089.277      543196.311 9    588907.533 9
  22875037.368    22875045.471     -920824.848 8   -389035.751 8
 90  3  8  5  2 14.0800000  0  4G 6G 9G11G13
  22483094.791    22483101.465      918952.185 8    846174.447 8
  21952871.044    21952875.243     -388145.421 9     34132.199 8
  22350112.292    22350119.162      559120.162 9    601315.726 8
  22869615.766    22869622.861     -949316.455 8   -411236.980 8
 90  3  8  5  2 29.0800000  0  4G 6G 9G11G13
  22488294.086    22488300.793      946267.020 8    867458.721 9
  21950731.826    21950737.458     -399384.013 8     25374.860 7
  22353160.567    22353166.648      575140.517 8    613799.124 8
  22864217.037    22864220.477     -977696.674 8   -433351.409 8
 90  3  8  5  2 44.0800000  0  4G 6G 9G11G13
  22493518.319    22493523.434      973719.326 7    888850.115 8
  21948620.542    21948626.523     -410481.187 8     16727.727 8
  22356228.128    22356234.767      591257.309 9    626357.655 8
  22858837.923    22858842.824    -1005965.306 9   -455378.904 8
 90  3  8  5  2 59.0800000  0  4G 6G 9G11G13
  22498769.385    22498773.059     1001309.055 9    910348.591 8
  21946536.803    21946539.893     -421437.081 7      8190.688 8
  22359315.508    22359320.346      607470.289 9    638991.158 8
  22853478.486    22853485.891    -1034122.334 9   -477319.413 8
 90  3  8  5  3 14.0800000  0  4G 6G 9G11G13
  22504045.774    22504049.914     1029035.980 8    931953.964 8
  21944478.503    21944481.108     -432250.893 9      -235.660 7
  22362417.327    22362423.379      623779.077 9    651699.306 8
  22848141.651    22848149.104    -1062167.969 9   -499173.135 8
 90  3  8  5  3 29.0800000  0  4G 6G 9G11G13
  22509346.194    22509352.805     1056900.151 9    953666.314 8
  21942448.624    21942452.122     -442922.759 8     -8551.402 8
  22365540.352    22365546.047      640183.490 9    664481.970 9
  22842826.353    22842833.125    -1090101.977 9   -520939.854 7
 90  3  8  5  3 44.0800000  0  4G 6G 9G11G13
  22514674.666    22514681.869     1084901.609 8    975485.608 9
  21940444.715    21940449.931     -453452.364 8    -16756.286 8
  22368679.331    22368685.484      656683.229 9    677338.901 8
  22837533.734    22837536.316    -1117924.344 9   -542619.580 8
 90  3  8  5  3 59.0800000  0  4G 6G 9G11G13
  22520031.409    22520036.241     1113039.954 8    997411.574 8
  21938465.654    21938471.291     -463839.437 8    -24850.100 7
  22371837.441    22371843.180      673278.094 8    690269.967 8
  22832259.927    22832262.835    -1145635.178 9   -564212.419 6
 90  3  8  5  4 14.0800000  0  4G 6G 9G11G13
  22525411.218    22525416.646     1141315.235 8   1019444.262 8
  21936517.981    21936521.936     -474083.657 8    -32832.604 8
  22375013.096    22375017.960      689967.768 8    703274.891 8
  22827007.646    22827012.479    -1173234.241 9   -585718.182 7
 90  3  8  5  4 29.0800000  0  4G 6G 9G11G13
  22530817.801    22530822.948     1169727.433 8   1041583.629 8
  21934596.484    21934600.377     -484185.066 8    -40703.836 8
  22378207.407    22378212.088      706751.900 9    716353.449 8
  22821776.692    22821782.269    -1200721.261 9   -607136.628 7
 90  3  8  5  4 44.0800000  0  4G 6G 9G11G13
  22536250.394    22536256.059     1198276.330 9   1063829.515 9
  21932701.378    21932705.898     -494143.384 8    -48463.575 8
  22381419.393    22381422.640      723630.382 8    729505.526 8
  22816566.694    22816572.161    -1228096.436 9   -628467.889 7
 90  3  8  5  4 59.0800000  0  4G 6G 9G11G13
  22541709.797    22541714.688     1226962.035 8   1086181.997 8
  21930834.443    21930836.567     -503958.034 8    -56111.337 8
  22384648.277    22384653.914      740602.992 9    742730.926 8
  22811380.861    22811384.523    -1255359.571 9   -649711.848 7
 90  3  8  5  5 14.0800000  0  4G 6G 9G11G13
  22547194.722    22547200.256     1255784.109 9   1108640.737 8
  21928992.142    21928997.165     -513629.095 8    -63647.235 8
  22387896.621    22387901.558      757669.138 9    756029.225 7
  22806211.197    22806218.724    -1282510.900 9   -670868.710 9
 90  3  8  5  5 29.0800000  0  4G 6G 9G11G13
  22552701.936    22552710.521     1284742.478 8   1131205.665 8
  21927177.916    21927182.880     -523156.254 7    -71070.995 8
  22391162.209    22391168.060      774828.576 9    769400.215 8
  22801064.907    22801072.753    -1309550.552 9   -691938.536 9
 90  3  8  5  5 44.0800000  0  4G 6G 9G11G13
  22558240.117    22558244.786     1313837.162 8   1153876.842 6
  21925392.193    21925399.871     -532539.509 8    -78382.642 6
  22394444.658    22394451.155      792081.241 9    782843.832 8
  22795942.249    22795947.675    -1336478.121 9   -712921.041 8
 90  3  8  5  5 59.0800000  0  4G 6G 9G11G13
  22563803.601    22563808.355     1343068.034 9   1176654.129 7
  21923635.284    21923639.368     -541778.443 8    -85581.804 7
  22397744.830    22397749.945      809426.900 8    796359.930 8
  22790839.648    22790845.763    -1363293.714 9   -733816.282 8
 90  3  8  5  6 14.0800000  0  4G 6G 9G11G13
  22569392.349    22569398.457     1372434.972 8   1199537.431 7
  21921904.644    21921908.417     -550872.675 9    -92668.205 6
  22401062.918    22401067.326      826865.252 9    809948.274 7
  22785758.261    22785764.941    -1389997.498 9   -754624.415 6
 90  3  8  5  6 29.0800000  0  4G 6G 9G11G13
  22575004.881    22575012.128     1401937.919 8   1222526.723 7
  21920201.479    21920205.994     -559822.235 8    -99641.865 8
  22404400.738    22404404.587      844395.959 9    823608.556 7
  22780696.915    22780704.400    -1416589.202 9   -775345.217 8
 90  3  8  5  6 44.0800000  0  4G 6G 9G11G13
  22580643.880    22580651.064     1431576.557 8   1245621.745 6
  21918527.906    21918529.472     -568626.924 9   -106502.677 6
  22407754.691    22407757.603      862018.715 9    837340.586 7
  22775658.625    22775665.651    -1443068.912 9   -795978.724 8
 90  3  8  5  6 59.0800000  0  4G 6G 9G11G13
  22586310.732    22586315.247     1461351.191 8   1268822.748 7
  21916879.029    21916884.245     -577286.399 9   -113250.322 6
  22411124.371    22411128.333      879733.470 9    851144.309 7
  22770641.908    22770649.300    -1469436.077 9   -816524.535 7
 90  3  8  5  7 14.0800000  0  4G 6G 9G11G13
  22592004.382    22592008.668     1491261.583 9   1292129.530 6
  21915258.514    21915263.400     -585800.527 8   -119884.691 7
  22414512.451    22414517.575      897539.941 9    865019.471 7
  22765646.462    22765652.248    -1495690.976 9   -836982.855 7
 90  3  8  5  7 29.0800000  0  4G 6G 9G11G13
  22597721.139    22597728.326     1521307.516 8   1315541.926 7
  21913665.557    21913671.273     -594168.624 8   -126405.276 6
  22417917.646    22417924.020      915437.897 8    878965.927 7
  22760670.638    22760677.409    -1521833.568 9   -857353.684 7
 90  3  8  5  7 44.0800000  0  4G 6G 9G11G13
  22603464.442    22603471.132     1551489.055 8   1339059.987 8
  21912101.334    21912106.036     -602390.868 8   -132812.203 7
  22421341.743    22421347.665      933427.018 8    892983.399 7
  22755717.006    22755723.019    -1547863.878 9   -877637.018 6
 90  3  8  5  7 59.0800000  0  4G 6G 9G11G13
  22609233.939    22609238.203     1581805.762 9   1362683.380 7
  21910566.387    21910569.845     -610467.181 9   -139105.454 6
  22424782.059    22424786.924      951506.864 9    907071.612 6
  22750784.500    22750790.835    -1573781.968 9   -897832.902 7
 90  3  8  5  8 14.0800000  0  4G 6G 9G11G13
  22615030.253    22615034.564     1612257.543 9   1386412.046 7
  21909054.880    21909059.008     -618397.174 7   -145284.660 6
  22428240.835    22428244.749      969677.171 9    921230.303 7
  22745874.813    22745879.686    -1599587.929 9   -917941.422 7
 90  3  8  5  8 29.0800000  0  4G 6G 9G11G13
  22620849.815    22620853.676     1642844.444 9   1410245.980 7
  21907572.505    21907577.849     -626180.701 8   -151349.775 7
  22431714.133    22431719.878      987937.805 9    935459.361 8
  22740985.028    22740989.605    -1625281.367 9   -937962.260 7
 90  3  8  5  8 44.0800000  0  4G 6G 9G11G13
  22626695.934    22626699.742     1673566.357 8   1434185.122 7
  21906119.894    21906123.305     -633817.755 9   -157300.712 6
  22435206.278    22435213.277     1006288.416 8    949758.512 6
  22736116.214    22736120.946    -1650862.558 9   -957895.660 6
 90  3  8  5  8 59.0800000  0  4G 6G 9G11G13
  22632568.634    22632571.531     1704422.995 9   1458229.242 7
  21904696.816    21904701.332     -641307.883 9   -163137.179 6
  22438715.335    22438723.379     1024728.668 9    964127.545 8
  22731268.634    22731275.102    -1676331.669 9   -977741.697 7
 90  3  8  5  9 14.0800000  0  4G 6G 9G11G13
  22638465.696    22638471.549     1735414.284 9   1482378.276 7
  21903298.610    21903302.278     -648650.856 8   -168858.961 6
  22442241.207    22442246.974     1043258.444 9    978566.330 6
  22726444.649    22726449.693    -1701688.413 9   -997500.185 7
 90  3  8  5  9 29.0800000  0  4G 6G 9G11G13
  22644388.271    22644394.109     1766540.167 8   1506632.187 6
  21901929.078    21901932.802     -655846.683 8   -174466.114 6
  22445786.876    22445789.002     1061877.353 9    993074.593 7
  22721640.717    22721647.811    -1726932.735 9  -1017171.049 6
 90  3  8  5  9 44.0800000  0  4G 6G 9G11G13
  22650336.102    22650341.707     1797800.631 9   1530990.958 6
  21900587.218    21900590.417     -662895.012 8   -179958.313 6
  22449345.428    22449349.013     1080585.206 9   1007652.156 7
  22716858.085    22716864.145    -1752064.507 8  -1036754.223 7
 90  3  8  5  9 59.0800000  0  4G 6G 9G11G13
  22656310.114    22656313.073     1829195.101 8   1555454.168 5
  21899274.808    21899277.777     -669795.643 7   -185335.410 5
  22452920.201    22452925.416     1099381.551 8   1022298.674 7
  22712097.063    22712103.257    -1777084.073 9  -1056249.983 7
 90  3  8  5 10 14.0800000  0  4G 6G 9G11G13
  22662312.171    22662313.098     1860723.824 9   1580022.001 6
  21897988.784    21897991.626     -676548.489 8   -190597.370 5
  22456514.212    22456519.572     1118266.393 9   1037014.106 8
  22707357.617    22707362.814    -1801991.132 9  -1075658.064 6
 90  3  8  5 10 29.0800000  0  4G 6G 9G11G13
  22668336.169    22668342.219     1892386.595 9   1604694.272 7
  21896731.552    21896732.375     -683153.318 8   -195743.990 6
  22460126.282    22460131.806     1137239.299 9   1051798.210 7
  22702637.714    22702645.633    -1826785.782 8  -1094978.560 7
 90  3  8  5 10 44.0800000  0  4G 6G 9G11G13
  22674387.419    22674393.748     1924183.133 9   1629470.774 7
  21895503.624    21895506.319     -689609.980 9   -200775.159 6
  22463753.205    22463757.199     1156299.928 9   1066650.644 7
  22697940.552    22697949.945    -1851468.016 8  -1114211.445 8
 90  3  8  5 10 59.0800000  0  4G 6G 9G11G13
  22680462.523    22680467.286     1956113.186 9   1654351.308 7
  21894302.737    21894306.809     -695918.405 8   -205690.800 6
  22467397.656    22467402.809     1175447.824 9   1081571.078 6
  22693266.522    22693271.751    -1876038.196 7  -1133356.999 7
 90  3  8  5 11 14.0800000  0  4G 6G 9G11G13
  22686564.737    22686567.692     1988176.776 9   1679335.917 8
  21893131.045    21893136.190     -702078.240 9   -210490.689 7
  22471056.897    22471059.822     1194682.912 9   1096559.474 7
  22688611.864    22688617.465    -1900496.063 8  -1152415.059 6
 90  3  8  5 11 29.0800000  0  4G 6G 9G11G13
  22692692.613    22692695.435     2020374.003 9   1704424.668 7
  21891988.228    21891991.627     -708089.148 9   -215174.491 7
  22474733.187    22474737.444     1214005.018 9   1111615.683 7
  22683978.851    22683983.285    -1924841.247 8  -1171385.320 7
 90  3  8  5 11 44.0800000  0  4G 6G 9G11G13
  22698844.698    22698848.105     2052704.640 9   1729617.364 7
  21890871.940    21890875.623     -713951.122 8   -219742.263 7
  22478426.267    22478432.556     1233413.807 9   1126739.412 6
  22679368.099    22679375.995    -1949074.130 8  -1190268.073 6
 90  3  8  5 11 59.0800000  0  4G 6G 9G11G13
  22705021.862    22705025.951     2085168.273 9   1754913.668 8
  21889785.043    21889787.999     -719663.920 8   -224193.810 6
  22482135.826    22482141.106     1252908.921 8   1141930.416 7
  22674779.302    22674784.285    -1973194.563 9  -1209063.195 7
 90  3  8  5 12 14.0800000  0  4G 6G 9G11G13
  22711224.385    22711229.977     2117765.197 9   1780313.859 8
  21888726.564    21888729.503     -725227.161 9   -228528.803 6
  22485862.183    22485868.700     1272490.319 9   1157188.656 7
  22670209.622    22670213.808    -1997202.292 8  -1227770.492 6
 90  3  8  5 12 29.0800000  0  4G 6G 9G11G13
  22717451.902    22717456.444     2150495.100 9   1805817.679 7
  21887696.303    21887699.202     -730640.798 9   -232747.229 6
  22489605.647    22489609.316     1292157.680 9   1172513.895 7
  22665662.260    22665666.700    -2021097.452 9  -1246390.065 7
 90  3  8  5 12 44.0800000  0  4G 6G 9G11G13
  22723704.960    22723709.689     2183357.790 9   1831424.951 8
  21886693.600    21886699.260     -735904.620 8   -236848.902 6
  22493363.641    22493369.103     1311910.639 9   1187905.820 6
  22661137.831    22661140.126    -2044880.115 9  -1264921.992 7
 90  3  8  5 12 59.0800000  0  4G 6G 9G11G13
  22729985.707    22729990.047     2216353.058 8   1857135.542 8
  21885720.604    21885725.750     -741018.478 8   -240833.716 6
  22497139.416    22497143.178     1331749.005 9   1203364.274 7
  22656632.826    22656636.022    -2068550.245 9  -1283366.221 7
 90  3  8  5 13 14.0800000  0  4G 6G 9G11G13
  22736288.454    22736295.044     2249480.757 9   1882949.319 7
  21884776.542    21884779.298     -745982.277 7   -244701.629 6
  22500931.252    22500935.689     1351672.296 8   1218888.907 6
  22652149.953    22652154.022    -2092108.145 8  -1301723.008 6
 90  3  8  5 13 29.0800000  0  4G 6G 9G11G13
  22742618.251    22742623.497     2282740.907 9   1908866.286 6
  21883860.898    21883863.295     -750795.945 8   -248452.543 7
  22504736.360    22504741.998     1371680.353 8   1234479.613 6
  22647686.415    22647693.486    -2115553.535 9  -1319992.117 6
 90  3  8  5 13 44.0800000  0  4G 6G 9G11G13
  22748972.234    22748978.186     2316133.220 9   1934886.258 8
  21882972.814    21882977.442     -755458.861 8   -252085.985 6
  22508562.273    22508567.131     1391773.154 8   1250136.362 7
  22643248.874    22643252.699    -2138886.230 8  -1338173.402 7
 90  3  8  5 13 59.0800000  0  4G 6G 9G11G13
  22755352.120    22755356.264     2349657.638 8   1961009.152 7
  21882115.494    21882117.860     -759971.072 8   -255601.981 6
  22512401.014    22512406.574     1411950.372 9   1265858.878 7
  22638830.668    22638835.178    -2162106.262 9  -1356266.918 7
 90  3  8  5 14 14.0800000  0  4G 6G 9G11G13
  22761757.942    22761761.287     2383314.063 8   1987234.912 6
  21881285.017    21881287.772     -764332.255 8   -259000.322 7
  22516257.413    22516264.132     1432211.675 9   1281646.913 6
  22634430.302    22634438.156    -2185213.631 8  -1374272.637 7
 90  3  8  5 14 29.0800000  0  4G 6G 9G11G13
  22768186.884    22768191.921     2417102.163 9   2013563.269 7
  21880483.272    21880487.501     -768542.473 8   -262281.018 7
  22520128.465    22520132.852     1452556.618 8   1297500.102 7
  22630054.323    22630063.539    -2208208.432 8  -1392190.628 8
 90  3  8  5 14 44.0800000  0  4G 6G 9G11G13
  22774641.978    22774647.154     2451021.750 9   2039994.079 8
  21879712.581    21879714.976     -772601.775 8   -265444.092 6
  22524016.022    22524019.656     1472984.831 8   1313418.216 6
  22625702.851    22625707.910    -2231090.889 9  -1410021.099 7
 90  3  8  5 14 59.0800000  0  4G 6G 9G11G13
  22781121.110    22781124.957     2485072.657 9   2066527.225 6
  21878968.903    21878971.802     -776509.596 9   -268489.160 7
  22527918.097    22527923.192     1493496.125 9   1329401.035 7
  22621368.419    22621375.968    -2253861.022 9  -1427764.049 7
 90  3  8  5 15 14.0800000  0  4G 6G 9G11G13
  22787625.934    22787630.181     2519254.787 9   2093162.630 6
  21878251.956    21878259.362     -780266.078 8   -271416.303 7
  22531838.139    22531842.264     1514090.257 8   1345448.408 6
  22617056.414    22617063.210    -2276518.641 9  -1445419.327 7
 90  3  8  5 15 29.0800000  0  4G 6G 9G11G13
  22794154.184    22794159.618     2553568.085 9   2119900.268 7
  21877566.318    21877570.646     -783870.650 7   -274225.066 6
  22535771.827    22535776.713     1534767.006 9   1361560.172 6
  22612765.730    22612772.168    -2299063.868 7  -1462987.003 7
 90  3  8  5 15 44.0800000  0  4G 6G 9G11G13
  22800709.251    22800714.954     2588012.365 9   2146739.938 6
  21876909.985    21876914.299     -787323.516 8   -276915.622 7
  22539722.953    22539728.026     1555526.031 9   1377736.046 6
  22608498.013    22608502.979    -2321496.487 8  -1480466.942 7
 90  3  8  5 15 59.0800000  0  4G 6G 9G11G13
  22807288.930    22807292.923     2622587.225 8   2173681.383 7
  21876280.237    21876287.229     -790624.228 8   -279487.614 6
  22543688.402    22543694.927     1576367.178 8   1393975.909 7
  22604249.965    22604254.856    -2343816.494 8  -1497859.154 7
 90  3  8  5 16 14.0800000  0  4G 6G 9G11G13
  22813892.798    22813897.322     2657292.665 9   2200724.549 7
  21875681.171    21875686.628     -793772.912 8   -281941.131 7
  22547672.526    22547675.081     1597290.017 8   1410279.408 6
  22600023.742    22600030.445    -2366024.379 9  -1515163.995 7
 90  3  8  5 16 29.0800000  0  4G 6G 9G11G13
  22820520.387    22820525.889     2692128.668 9   2227869.486 7
  21875114.154    21875115.551     -796769.227 9   -284275.907 7
  22551667.610    22551670.479     1618294.235 9   1426646.340 6
  22595819.220    22595825.730    -2388119.787 9  -1532381.177 7
 90  3  8  5 16 44.0800000  0  4G 6G 9G11G13
  22827173.739    22827181.044     2727094.982 8   2255115.944 8
  21874572.321    21874575.405     -799612.878 8   -286491.740 6
  22555678.642    22555684.364     1639379.793 8   1443076.664 6
  22591636.714    22591643.070    -2410102.820 9  -1549510.783 6
 90  3  8  5 16 59.0800000  0  4G 6G 9G11G13
  22833853.892    22833860.758     2762191.307 8   2282463.719 8
  21874058.766    21874064.410     -802303.948 8   -288588.674 6
  22559707.395    22559711.787     1660546.253 8   1459570.006 6
  22587474.421    22587479.898    -2431973.558 9  -1566552.896 7
 90  3  8  5 17 14.0800000  0  4G 6G 9G11G13
  22840557.586    22840563.682     2797417.315 9   2309912.544 8
  21873575.947    21873580.703     -804842.518 8   -290566.768 6
  22563748.453    22563754.863     1681793.169 7   1476126.031 7
  22583334.816    22583338.094    -2453731.932 9  -1583507.442 7
 90  3  8  5 17 29.0800000  0  4G 6G 9G11G13
  22847287.514    22847291.132     2832772.943 8   2337462.364 8
  21873121.859    21873123.682     -807228.074 9   -292425.644 6
  22567808.173    22567812.887     1703120.352 8   1492744.605 6
  22579216.125    22579221.325    -2475378.009 9  -1600374.495 7
 90  3  8  5 17 44.0800000  0  4G 6G 9G11G13
  22854038.718    22854044.423     2868258.265 8   2365113.247 8
  21872697.734    21872700.445     -809460.591 8   -294165.263 6
  22571881.305    22571887.751     1724527.609 8   1509425.583 8
  22575118.911    22575123.773    -2496911.819 9  -1617154.072 7
 90  3  8  5 17 59.0800000  0  4G 6G 9G11G13
  22860814.675    22860822.430     2903873.205 9   2392865.135 8
  21872301.944    21872306.786     -811539.615 8   -295785.301 6
  22575970.171    22575976.561     1746014.892 9   1526168.942 8
  22571042.459    22571048.847    -2518333.039 9  -1633845.911 7
 90  3  8  5 18 14.0800000  0  4G 6G 9G11G13
  22867615.669    22867623.505     2939617.274 7   2420717.631 7
  21871935.342    21871942.919     -813464.964 8   -297285.578 7
  22580073.647    22580079.549     1767581.835 8   1542974.344 7
  22566986.787    22566990.119    -2539641.901 9  -1650450.185 7
 90  3  8  5 18 29.0800000  0  4G 6G 9G11G13
  22874443.687    22874447.397     2975490.410 8   2448670.719 7
  21871598.675    21871602.562     -815237.114 8   -298666.459 7
  22584194.022    22584197.466     1789227.949 9   1559841.440 7
  22562953.496    22562959.122    -2560838.621 7  -1666967.084 8
 90  3  8  5 18 44.0800000  0  4G 6G 9G11G13
  22881295.783    22881299.429     3011492.265 8   2476724.121 7
  21871291.000    21871293.556     -816855.568 9   -299927.580 6
  22588328.614    22588334.209     1810952.829 8   1576769.921 6
  22558941.183    22558944.373    -2581923.186 8  -1683396.587 7
 90  3  8  5 18 59.0800000  0  4G 6G 9G11G13
  22888170.814    22888175.720     3047622.787 8   2504877.779 8
  21871011.715    21871012.908     -818320.361 8   -301069.010 7
  22592476.348    22592483.396     1832756.282 8   1593759.620 8
  22554950.435    22554955.333    -2602895.618 9  -1699738.740 7
 90  3  8  5 19 14.0800000  0  4G 6G 9G11G13
  22895069.395    22895076.217     3083881.825 9   2533131.526 7
  21870761.647    21870767.923     -819631.294 8   -302090.521 6
  22596641.377    22596646.077     1854638.048 8   1610810.348 6
  22550981.481    22550985.520    -2623756.060 9  -1715993.602 7
 90  3  8  5 19 29.0800000  0  4G 6G 9G11G13
  22901994.640    22902000.199     3120269.008 9   2561485.133 8
  21870540.315    21870546.832     -820788.101 8   -302991.943 6
  22600817.793    22600825.168     1876597.868 9   1627921.901 7
  22547032.768    22547036.519    -2644504.451 9  -1732161.164 6
 90  3  8  5 19 44.0800000  0  4G 6G 9G11G13
  22908944.534    22908948.399     3156783.823 9   2589938.224 8
  21870350.776    21870355.146     -821790.844 8   -303773.293 7
  22605014.264    22605019.766     1898635.137 8   1645093.796 7
  22543104.505    22543110.649    -2665141.137 9  -1748241.660 7
 90  3  8  5 19 59.0800000  0  4G 6G 9G11G13
  22915917.035    22915921.048     3193426.798 8   2618491.193 7
  21870189.626    21870194.484     -822639.096 8   -304434.268 7
  22609221.609    22609226.561     1920750.139 7   1662326.255 7
  22539199.791    22539206.355    -2685665.586 9  -1764234.722 7
 90  3  8  5 20 14.0800000  0  4G 6G 9G11G13
  22922913.242    22922919.070     3230197.765 9   2647143.863 7
  21870057.238    21870062.181     -823332.774 8   -304974.801 6
  22613444.312    22613450.536     1942942.573 8   1679619.047 7
  22535316.713    22535320.312    -2706077.858 9  -1780140.351 6
 90  3  8  5 20 29.0800000  0  4G 6G 9G11G13
  22929935.504    22929939.912     3267096.126 9   2675895.812 7
  21869954.784    21869958.940     -823871.882 9   -305394.878 5
  22617683.380    22617690.376     1965211.961 9   1696971.829 8
  22531452.539    22531456.037    -2726378.061 9  -1795958.678 6
 90  3  8  5 20 44.0800000  0  4G 6G 9G11G13
  22936980.285    22936985.912     3304121.897 9   2704747.050 9
  21869882.810    21869886.625     -824256.122 8   -305694.284 6
  22621937.325    22621942.913     1987558.076 8   1714384.397 7
  22527609.332    22527616.133    -2746566.043 9  -1811689.556 8
 90  3  8  5 20 59.0800000  0  4G 6G 9G11G13
  22944049.380    22944055.946     3341274.862 9   2733697.384 7
  21869837.620    21869840.419     -824485.378 7   -305872.920 5
  22626202.009    22626208.289     2009980.542 9   1731856.450 7
  22523789.008    22523794.495    -2766642.247 9  -1827333.342 7
 90  3  8  5 21 14.0800000  0  4G 6G 9G11G13
  22951144.111    22951148.768     3378554.865 8   2762746.718 7
  21869823.428    21869829.303     -824559.713 9   -305930.854 6
  22630482.462    22630489.350     2032479.195 9   1749387.867 7
  22519990.766    22519995.757    -2786606.495 9  -1842889.878 7
 90  3  8  5 21 29.0800000  0  4G 6G 9G11G13
  22958262.742    22958268.265     3415961.572 9   2791894.783 8
  21869839.368    21869843.082     -824478.876 8   -305867.860 7
  22634779.811    22634785.786     2055053.614 9   1766978.313 7
  22516212.036    22516217.693    -2806458.811 9  -1858359.204 8
 90  3  8  5 21 44.0800000  0  4G 6G 9G11G13
  22965404.608    22965409.508     3453494.796 9   2821141.442 7
  21869885.045    21869887.499     -824242.666 8   -305683.792 6
  22639089.426    22639095.034     2077703.572 9   1784627.644 7
  22512455.899    22512461.856    -2826199.422 9  -1873741.486 8
 90  3  8  5 21 59.0800000  0  4G 6G 9G11G13
  22972572.429    22972578.299     3491154.390 8   2850486.553 7
  21869958.366    21869961.519     -823851.060 7   -305378.648 6
  22643413.448    22643419.523     2100428.813 8   1802335.631 8
  22508721.741    22508727.214    -2845828.313 9  -1889036.692 8
 90  3  8  5 22 14.0800000  0  4G 6G 9G11G13
  22979761.907    22979768.215     3528940.010 9   2879929.874 7
  21870061.566    21870067.380     -823304.136 7   -304952.467 6
  22647752.140    22647757.112     2123228.877 8   1820101.915 7
  22505006.861    22505013.167    -2865345.705 9  -1904245.011 7
 90  3  8  5 22 29.0800000  0  4G 6G 9G11G13
  22986977.005    22986981.479     3566851.488 8   2909471.259 8
  21870196.385    21870201.073     -822601.645 8   -304405.070 7
  22652106.283    22652111.228     2146103.667 8   1837926.407 7
  22501314.384    22501318.804    -2884751.332 9  -1919366.259 7
 90  3  8  5 22 44.0800000  0  4G 6G 9G11G13
  22994212.690    22994219.669     3604888.690 8   2939110.616 7
  21870359.941    21870362.838     -821743.453 8   -303736.344 6
  22656474.580    22656478.859     2169052.815 9   1855808.861 7
  22497643.413    22497646.777    -2904045.497 9  -1934400.644 7
 90  3  8  5 22 59.0800000  0  4G 6G 9G11G13
  23001475.809    23001482.726     3643051.543 8   2968847.866 7
  21870553.315    21870555.457     -820729.138 8   -302945.948 6
  22660852.235    22660857.678     2192076.109 8   1873749.079 8
  22493993.080    22493998.687    -2923227.927 9  -1949347.993 8
 90  3  8  5 23 14.0800000  0  4G 6G 9G11G13
  23008763.920    23008765.876     3681339.578 9   2998682.675 6
  21870776.796    21870779.237     -819559.152 8   -302034.303 6
  22665247.677    22665253.529     2215173.157 8   1891746.782 7
  22490362.531    22490367.369    -2942299.000 9  -1964208.566 7
 90  3  8  5 23 29.0800000  0  4G 6G 9G11G13
  23016071.911    23016078.491     3719752.961 9   3028615.180 7
  21871028.066    21871032.640     -818232.915 7   -301000.860 7
  22669659.177    22669662.261     2238343.853 8   1909801.875 7
  22486754.924    22486759.338    -2961258.560 9  -1978982.219 7
 90  3  8  5 23 44.0800000  0  4G 6G 9G11G13
  23023405.256    23023412.738     3758291.093 9   3058644.890 7
  21871309.588    21871311.970     -816750.527 8   -299845.745 7
  22674081.476    22674086.971     2261587.645 8   1927913.922 7
  22483167.333    22483173.823    -2980106.730 9  -1993669.064 7
 90  3  8  5 23 59.0800000  0  4G 6G 9G11G13
  23030764.473    23030768.838     3796953.649 9   3088771.543 7
  21871623.760    21871624.940     -815111.882 9   -298568.897 6
  22678520.210    22678525.074     2284904.247 9   1946082.698 7
  22479603.020    22479608.966    -2998843.643 8  -2008269.247 8
 90  3  8  5 24 14.0800000  0  4G 6G 9G11G13
  23038145.583    23038150.244     3835740.954 8   3118995.438 7
  21871962.458    21871967.819     -813316.770 8   -297170.109 7
  22682968.272    22682975.034     2308293.855 9   1964308.380 7
  22476058.653    22476063.116    -3017468.930 8  -2022782.441 7
 90  3  8  5 24 29.0800000  0  4G 6G 9G11G13
  23045547.259    23045554.142     3874652.697 7   3149316.270 8
  21872334.098    21872338.670     -811365.204 8   -295649.422 6
  22687433.520    22687440.425     2331755.957 8   1982590.534 8
  22472535.036    22472538.293    -3035982.824 8  -2037208.851 7
 90  3  8  5 24 44.0800000  0  4G 6G 9G11G13
  23052975.907    23052982.495     3913688.455 8   3179733.702 6
  21872736.187    21872738.140     -809256.965 7   -294006.641 6
  22691913.658    22691917.700     2355290.358 9   2000929.016 8
  22469032.980    22469037.682    -3054385.496 9  -2051548.587 6
 90  3  8  5 24 59.0800000  0  4G 6G 9G11G13
  23060430.714    23060431.842     3952848.326 9   3210247.874 6
  21873166.237    21873170.452     -806991.637 8   -292241.457 6
  22696404.905    22696409.950     2378896.766 8   2019323.626 8
  22465554.041    22465558.648    -3072676.798 9  -2065801.534 8
 90  3  8  5 25 14.0800000  0  3G 6G11G13
  23067909.789    23067910.045     3992131.642 1   3240858.251 1
  22700911.015    22700914.889     2402574.483 8   2037773.809 7
  22462093.511    22462100.079    -3090857.319 8  -2079968.160 7
 90  3  8  5 25 29.0800000  0  4G 6G12G11G13
  23075404.789    23075408.771     4031538.593 9   3271564.950 7
                  23532675.422   -11255647.025 9
  22705429.938    22705435.043     2426323.640 9   2056279.653 8
  22458654.905    22458661.545    -3108926.591 8  -2094048.092 8
 90  3  8  5 25 44.0800000  0  4G 6G12G11G13
  23082926.291    23082930.946     4071068.787 9   3302367.661 8
  23524932.183    23524937.384   -11296479.596 8  14426423.958 8
  22709962.024    22709968.288     2450143.802 8   2074840.837 8
  22455237.013    22455242.821    -3126884.672 9  -2108041.382 7
 90  3  8  5 25 59.0800000  0  4G 6G12G11G13
  23090472.701    23090477.465     4110721.971 9   3333266.191 8
  23517175.524    23517182.786   -11337238.858 9  14394663.531 9
  22714509.835    22714514.433     2474034.782 9   2093457.176 8
  22451841.842    22451846.679    -3144731.639 8  -2121948.075 8
 90  3  8  5 26 14.0800000  0  4G 6G12G11G13
  23098041.471    23098046.247     4150498.135 9   3364260.600 8
  23509433.844    23509439.290   -11377924.623 8  14362960.382 8
  22719068.057    22719074.972     2497996.300 8   2112128.487 8
  22448466.290    22448471.426    -3162467.691 8  -2135768.360 7
 90  3  8  5 26 29.0800000  0  4G 6G12G11G13
  23105633.961    23105638.598     4190397.000 9   3395350.608 8
  23501708.250    23501710.432   -11418536.461 9  14331314.824 9
  22723641.863    22723648.134     2522028.176 8   2130854.614 8
  22445112.143    22445115.978    -3180092.685 9  -2149502.098 8
 90  3  8  5 26 44.0800000  0  4G 6G12G11G13
  23113249.575    23113254.411     4230418.006 9   3426535.771 7
  23493992.444    23493996.550   -11459074.337 8  14299726.876 9
  22728228.759    22728233.458     2546129.842 8   2149635.123 8
  22441780.092    22441784.428    -3197607.132 9  -2163149.687 8
 90  3  8  5 26 59.0800000  0  4G 6G12G11G13
  23120889.654    23120893.872     4270561.166 9   3457816.144 7
  23486291.183    23486296.568   -11499537.840 9  14268196.887 9
  22732826.792    22732833.713     2570301.057 8   2168469.849 9
  22438468.974    22438473.309    -3215010.742 9  -2176710.932 8
 90  3  8  5 27 14.0800000  0  4G 6G12G11G13
  23128552.283    23128557.175     4310825.950 9   3489191.302 7
  23478604.562    23478612.753   -11539926.794 9  14236725.001 9
  22737438.901    22737448.199     2594541.380 9   2187358.388 8
  22435177.073    22435181.194    -3232303.955 9  -2190186.131 8
 90  3  8  5 27 29.0800000  0  4G 6G12G11G13
  23136237.189    23136241.669     4351212.305 9   3520661.176 8
  23470933.165    23470941.452   -11580240.607 9  14205311.662 9
  22742065.473    22742073.160     2618850.640 8   2206300.668 9
  22431907.309    22431909.655    -3249486.724 9  -2203575.283 7
 90  3  8  5 27 44.0800000  0  4G 6G12G11G13
  23143944.197    23143951.255     4391720.129 8   3552225.698 8
  23463275.216    23463284.418   -11620478.758 9  14173957.266 9
  22746704.812    22746710.962     2643228.757 8   2225296.623 8
  22428658.993    22428660.752    -3266558.934 9  -2216878.293 7
 90  3  8  5 27 59.0800000  0  4G 6G12G11G13
  23151676.774    23151680.364     4432349.283 9   3583884.746 8
  23455634.299    23455640.959   -11660640.922 8  14142662.089 9
  22751358.262    22751361.492     2667675.418 9   2244345.963 9
  22425432.114    22425435.090    -3283520.641 9  -2230095.207 8
 90  3  8  5 28 14.0800000  0  4G 6G12G11G13
  23159429.959    23159435.298     4473099.136 9   3615637.844 7
  23448004.927    23448012.929   -11700726.998 9  14111426.196 8
  22756020.468    22756027.791     2692190.098 8   2263448.294 9
  22422223.248    22422228.513    -3300372.178 9  -2243226.274 7
 90  3  8  5 28 29.0800000  0  4G 6G12G11G13
  23167207.828    23167211.457     4513969.411 8   3647484.805 8
  23440391.346    23440399.388   -11740736.796 8  14080249.767 9
  22760699.138    22760706.819     2716772.371 9   2282603.273 7
  22419037.251    22419043.375    -3317113.782 8  -2256271.652 8
 90  3  8  5 28 44.0800000  0  4G 6G12G11G13
  23175007.143    23175013.502     4554960.041 9   3679425.545 8
  23432795.592    23432800.262   -11780669.669 9  14049133.263 9
  22765389.979    22765397.780     2741422.231 9   2301810.959 9
  22415872.401    22415879.841    -3333745.298 8  -2269231.251 7
 90  3  8  5 28 59.0800000  0  4G 6G12G11G13
  23182830.809    23182836.889     4596071.169 9   3711460.175 8
  23425211.759    23425216.127   -11820524.986 9  14018077.166 9
  22770094.318    22770099.710     2766139.600 9   2321071.280 8
  22412727.799    22412736.541    -3350266.584 9  -2282104.957 7
 90  3  8  5 29 14.0800000  0  4G 6G12G11G13
  23190677.267    23190683.438     4637302.350 9   3743588.336 9
  23417641.734    23417646.324   -11860302.523 9  13987081.690 8
  22774812.324    22774816.218     2790924.015 9   2340383.828 7
  22409605.148    22409613.447    -3366677.882 9  -2294892.977 8
 90  3  8  5 29 29.0800000  0  4G 6G12G11G13
  23198544.957    23198553.613     4678653.264 8   3775809.784 8
  23410088.049    23410091.515   -11900002.065 9  13956146.983 9
  22779540.882    22779544.900     2815775.148 8   2359748.346 9
  22406503.359    22406512.502    -3382979.159 8  -2307595.258 8
 90  3  8  5 29 44.0800000  0  4G 6G12G11G13
  23206437.651    23206442.725     4720123.677 9   3808124.391 8
  23402546.295    23402550.668   -11939623.297 9  13925273.292 8
  22784281.211    22784286.803     2840692.635 8   2379164.576 8
  22403422.647    22403429.330    -3399170.384 9  -2320211.793 8
 90  3  8  5 29 59.0800000  0  4G 6G12G11G13
  23214352.656    23214355.724     4761713.397 9   3840531.948 8
  23395020.412    23395027.313   -11979165.859 8  13894460.923 9
  22789035.210    22789042.476     2865676.283 9   2398632.355 7
  22400363.986    22400367.621    -3415251.837 9  -2332742.773 8
 90  3  8  5 30 14.0800000  0  4G 6G12G11G13
  23222289.630    23222293.923     4803422.288 9   3873032.357 8
  23387510.856    23387517.185   -12018629.317 8  13863710.217 8
  22793801.089    22793808.466     2890725.869 9   2418151.498 9
  22397323.254    22397329.664    -3431223.476 9  -2345188.171 8
 90  3  8  5 30 29.0800000  0  4G 6G12G11G13
  23230249.353    23230253.738     4845249.850 9   3905625.245 9
  23380017.190    23380023.678   -12058013.394 9  13833021.345 9
  22798581.102    22798586.508     2915841.122 8   2437721.819 7
  22394304.302    22394310.827    -3447085.295 9  -2357548.033 7
 90  3  8  5 30 44.0800000  0  4G 6G12G11G13
  23238231.218    23238237.434     4887196.066 8   3938310.583 8
  23372536.883    23372544.282   -12097317.804 8  13802394.574 8
  22803373.143    22803378.420     2941021.610 8   2457342.997 7
  22391307.757    22391313.825    -3462837.519 7  -2369822.490 7
 90  3  8  5 30 59.0800000  0  4G 6G12G11G13
  23246234.907    23246241.191     4929260.780 8   3971088.261 8
  23365074.243    23365078.662   -12136541.983 9  13771830.291 9
  22808176.825    22808183.807     2966267.214 8   2477014.886 8
  22388330.415    22388336.853    -3478480.011 8  -2382011.425 8
 90  3  8  5 31 14.0800000  0  4G 6G12G11G13
  23254260.906    23254268.065     4971443.636 8   4003957.990 8
  23357624.300    23357630.092   -12175685.487 9  13741328.853 8
  22812995.224    22813001.001     2991577.656 8   2496737.298 7
  22385374.966    22385381.406    -3494012.792 8  -2394114.861 8
 90  3  8  5 31 29.0800000  0  4G 6G12G11G13
  23262311.555    23262317.358     5013744.481 8   4036919.644 8
  23350190.628    23350198.397   -12214747.895 9  13710890.620 8
  22817824.219    22817827.857     3016952.731 9   2516510.115 7
  22382439.436    22382448.194    -3509436.017 8  -2406132.925 8
 90  3  8  5 31 44.0800000  0  4G 6G12G11G13
  23270384.244    23270391.224     5056163.118 8   4069973.125 9
  23342773.315    23342780.155   -12253728.881 9  13680515.823 8
  22822664.355    22822667.421     3042392.162 9   2536333.075 8
  22379526.400    22379533.182    -3524749.770 8  -2418065.701 8
 90  3  8  5 31 59.0800000  0  4G 6G12G11G13
  23278477.129    23278483.841     5098699.189 8   4103118.105 9
  23335370.945    23335377.527   -12292628.152 9  13650204.728 9
  22827517.440    22827521.757     3067895.630 8   2556205.899 7
  22376633.169    22376640.035    -3539954.283 9  -2429913.380 8
 90  3  8  5 32 14.0800000  0  4G 6G12G11G13
  23286595.231    23286599.764     5141352.535 7   4136354.471 8
  23327982.384    23327990.893   -12331445.291 9  13619957.643 8
  22832379.737    22832386.488     3093462.891 8   2576128.425 7
  22373759.595    22373767.007    -3555049.438 9  -2441675.841 8
 90  3  8  5 32 29.0800000  0  4G 6G12G11G13
  23294733.786    23294739.099     5184122.817 8   4169681.950 9
  23320612.588    23320620.104   -12370179.919 9  13589774.846 9
  22837257.899    22837263.991     3119093.511 9   2596100.309 8
  22370906.544    22370915.960    -3570035.462 8  -2453353.233 9
 90  3  8  5 32 44.0800000  0  4G 6G12G11G13
  23302895.230    23302900.909     5227009.790 8   4203100.355 9
  23313258.258    23313265.515   -12408831.855 8  13559656.477 8
  22842147.787    22842154.251     3144787.154 8   2616121.328 8
  22368078.003    22368083.826    -3584912.670 8  -2464945.854 8
 90  3  8  5 32 59.0800000  0  4G 6G12G11G13
  23311076.354    23311083.503     5270013.221 7   4236609.499 9
  23305918.754    23305924.743   -12447400.583 9  13529602.924 8
  22847049.673    22847056.416     3170543.749 8   2636191.401 8
  22365265.617    22365273.188    -3599680.795 9  -2476453.470 8
 90  3  8  5 33 14.0800000  0  4G 6G12G11G13
  23319282.333    23319289.049     5313133.083 8   4270209.386 9
  23298595.199    23298600.450   -12485885.692 9  13499614.513 7
  22851964.846    22851969.371     3196363.115 9   2656310.372 8
  22362476.114    22362483.067    -3614339.812 8  -2487876.056 8
 90  3  8  5 33 29.0800000  0  4G 6G12G11G13
  23327510.406    23327515.625     5356369.118 8   4303899.764 9
  23291287.350    23291293.157   -12524286.724 9  13469691.642 8
  22856887.608    22856894.050     3222244.957 8   2676478.026 8
  22359708.130    22359713.466    -3628889.983 8  -2499213.854 7
 90  3  8  5 33 44.0800000  0  4G 6G12G11G13
  23335760.553    23335765.920     5399720.957 8   4337680.410 8
  23283996.004    23284002.977   -12562603.460 9  13439834.442 7
  22861823.987    22861830.659     3248189.114 9   2696694.247 7
  22356960.221    22356966.189    -3643331.370 9  -2510466.844 8
 90  3  8  5 33 59.0800000  0  4G 6G12G11G13
  23344031.797    23344038.531     5443188.241 9   4371550.989 9
  23276721.221    23276726.623   -12600835.757 9  13410043.070 9
  22866774.432    22866779.442     3274195.025 8   2716958.590 8
  22354233.634    22354238.684    -3657664.364 7  -2521635.362 9
 90  3  8  5 34 14.0800000  0  4G 6G12G11G13
  23352324.302    23352331.280     5486770.840 8   4405511.450 8
  23269462.193    23269468.188   -12638982.868 9  13380318.050 8
  22871735.707    22871741.167     3300262.603 8   2737271.000 8
  22351526.549    22351533.218    -3671888.649 9  -2532719.217 8
 90  3  8  5 34 29.0800000  0  4G 6G12G11G13
  23360639.796    23360646.360     5530468.579 8   4439561.616 8
  23262220.119    23262224.821   -12677044.597 9  13350659.572 8
  22876707.422    22876711.375     3326391.568 9   2757631.231 8
  22348841.214    22348845.838    -3686004.295 9  -2543718.437 7
 90  3  8  5 34 44.0800000  0  4G 6G12G11G13
  23368976.257    23368983.471     5574281.006 8   4473701.154 8
  23254994.989    23254998.776   -12715020.668 9  13321067.832 8
  22881689.546    22881695.803     3352581.559 8   2778039.008 8
  22346174.596    22346180.264    -3700011.424 9  -2554633.089 8
 90  3  8  5 34 59.0800000  0  4G 6G12G11G13
  23377338.101    23377343.569     5618207.762 9   4507929.793 8
  23247783.299    23247788.683   -12752910.683 9  13291543.157 7
  22886684.535    22886693.496     3378832.298 8   2798494.092 8
  22343529.043    22343535.983    -3713910.134 8  -2565463.242 8
 90  3  8  5 35 14.0800000  0  4G 6G12G11G13
  23385718.181    23385723.298     5662248.802 8   4542247.479 9
  23240588.424    23240594.962   -12790714.390 9  13262085.734 9
  22891692.089    22891697.428     3405143.402 7   2818996.246 7
  22340906.969    22340911.621    -3727700.812 8  -2576209.195 9
 90  3  8  5 35 29.0800000  0  4G 6G12G11G13
  23394118.808    23394126.003     5706403.882 8   4576654.011 9
  23233411.294    23233417.176   -12828431.208 9  13232696.017 8
  22896712.632    22896713.503     3431514.729 8   2839545.354 7
  22338302.998    22338307.833    -3741383.334 8  -2586870.898 8
 90  3  8  5 35 44.0800000  0  4G 6G12G11G13
  23402544.738    23402550.094     5750672.638 8   4611149.119 8
  23226251.898    23226256.259   -12866060.742 9  13203374.310 8
  22901742.241    22901744.600     3457946.029 8   2860141.193 7
  22335718.543    22335724.567    -3754957.651 8  -2597448.293 8
 90  3  8  5 35 59.0800000  0  4G 6G12G11G13
  23410991.096    23410995.697     5795055.070 9   4645732.826 8
  23219107.440    23219110.946   -12903602.553 9  13174120.957 7
  22906780.952    22906786.885     3484437.061 8   2880783.564 7
  22333156.083    22333162.879    -3768423.842 8  -2607941.419 7
 90  3  8  5 36 14.0800000  0  4G 6G12G11G13
  23419457.723    23419461.711     5839550.552 8   4680404.589 8
  23211979.914    23211984.854   -12941056.602 9  13144936.004 8
  22911833.083    22911838.799     3510987.228 8   2901472.011 8
  22330614.270    22330620.050    -3781782.317 8  -2618350.548 8
 90  3  8  5 36 29.0800000  0  4G 6G12G11G13
  23427945.368    23427950.067     5884158.909 8   4715164.327 8
  23204868.646    23204874.609   -12978422.394 9  13115819.801 8
  22916897.087    22916904.995     3537596.491 8   2922206.495 8
  22328091.716    22328098.371    -3795033.113 8  -2628675.812 7
 90  3  8  5 36 44.0800000  0  4G 6G12G11G13
  23436455.868    23436461.832     5928879.828 8   4750011.776 8
  23197774.550    23197782.998   -13015699.482 9  13086772.710 9
  22921973.731    22921979.851     3564264.492 9   2942986.738 8
  22325592.774    22325598.640    -3808176.208 9  -2638917.188 8
 90  3  8  5 36 59.0800000  0  4G 6G12G11G13
  23444986.691    23444993.851     5973713.215 7   4784946.869 9
  23190697.306    23190704.975   -13052887.533 9  13057795.029 8
  22927058.889    22927063.399     3590991.090 8   2963812.647 7
  22323112.992    22323116.024    -3821211.885 8  -2649074.858 8
 90  3  8  5 37 14.0800000  0  4G 6G12G11G13
  23453539.914    23453547.348     6018658.695 8   4819969.304 8
  23183637.135    23183645.800   -13089986.319 9  13028886.924 8
  22932157.584    22932160.420     3617775.990 9   2984683.991 8
  22320650.408    22320656.762    -3834140.180 8  -2659148.855 7
 90  3  8  5 37 29.0800000  0  4G 6G12G11G13
  23462115.054    23462121.663     6063715.973 9   4855078.854 9
  23176597.332    23176601.919   -13126995.493 9  13000048.617 8
  22937262.388    22937266.913     3644618.910 8   3005600.549 8
  22318209.534    22318217.073    -3846961.027 8  -2669139.120 8
 90  3  8  5 37 44.0800000  0  4G 6G12G11G13
  23470710.095    23470716.609     6108884.682 9   4890275.236 8
  23169572.586    23169577.810   -13163914.772 9  12971280.336 8
  22942380.694    22942387.759     3671519.346 9   3026561.920 9
  22315790.292    22315797.275    -3859674.753 8  -2679045.903 7
 90  3  8  5 37 59.0800000  0  4G 6G12G11G13
  23479326.575    23479332.920     6154164.618 9   4925558.284 8
  23162564.859    23162569.660   -13200743.784 9  12942582.402 9
  22947512.120    22947519.378     3698477.065 8   3047567.937 8
  22313392.358    22313398.654    -3872281.520 9  -2688869.366 7
 90  3  8  5 38 14.0800000  0  4G 6G12G11G13
  23487965.765    23487969.926     6199555.571 9   4960927.842 9
  23155572.344    23155576.790   -13237482.105 9  12913955.143 9
  22952652.968    22952660.699     3725491.832 8   3068618.390 8
  22311012.383    22311021.096    -3884781.179 8  -2698609.350 7
 90  3  8  5 38 29.0800000  0  4G 6G12G11G13
  23496624.840    23496627.513     6245057.406 9   4996383.817 8
  23148597.762    23148602.770   -13274129.233 9  12885398.969 9
  22957805.674    22957811.293     3752563.492 9   3089713.197 9
  22308652.796    22308662.312    -3897173.598 9  -2708265.768 8
 90  3  8  5 38 44.0800000  0  4G 6G12G11G13
  23505303.068    23505309.565     6290669.649 8   5031925.798 8
  23141642.883    23141646.946   -13310684.994 9  12856913.983 9
  22962969.002    22962973.092     3779691.647 9   3110852.027 9
  22306315.949    22306324.106    -3909459.516 8  -2717839.165 7
 90  3  8  5 38 59.0800000  0  4G 6G12G11G13
  23514003.817    23514008.114     6336391.856 9   5067553.473 7
  23134701.770    23134708.441   -13347149.141 9  12828500.384 8
  22968141.032    22968144.856     3806875.985 9   3132034.631 8
  22304000.163    22304004.900    -3921639.082 9  -2727329.690 8
 90  3  8  5 39 14.0800000  0  4G 6G12G11G13
  23522725.771    23522730.779     6382224.050 9   5103266.871 8
  23127780.096    23127787.072   -13383520.964 8  12800158.721 9
  22973323.243    22973328.169     3834116.513 8   3153261.017 8
  22301701.221    22301708.705    -3933711.916 9  -2736737.094 9
 90  3  8  5 39 29.0800000  0  4G 6G12G11G13
  23531467.721    23531472.116     6428165.975 9   5139065.739 8
  23120875.742    23120883.194   -13419800.177 9  12771889.223 9
  22978518.116    22978523.542     3861412.838 9   3174530.860 8
  22299425.057    22299431.654    -3945678.095 8  -2746061.363 8
 90  3  8  5 39 44.0800000  0  4G 6G12G11G13
  23540230.853    23540235.953     6474217.511 9   5174950.029 8
  23113989.644    23113995.679   -13455986.301 8  12743692.249 8
  22983724.093    22983729.063     3888764.794 9   3195844.090 8
  22297167.198    22297172.892    -3957537.735 9  -2755302.636 7
 90  3  8  5 39 59.0800000  0  4G 6G12G11G13
  23549015.933    23549021.640     6520378.192 9   5210919.376 8
  23107122.232    23107127.651   -13492079.179 8  12715567.943 8
  22988937.147    22988943.025     3916172.086 8   3217200.413 8
  22294931.872    22294936.795    -3969291.079 8  -2764461.097 8
 90  3  8  5 40 14.0800000  0  4G 6G12G11G13
  23557820.836    23557824.980     6566647.696 8   5246973.538 7
  23100270.302    23100277.386   -13528078.461 8  12687516.587 9
  22994164.682    22994168.942     3943634.311 8   3238599.566 7
  22292715.422    22292721.016    -3980938.342 8  -2773536.894 8
 90  3  8  5 40 29.0800000  0  4G 6G12G11G13
  23566644.210    23566650.941     6613025.763 9   5283112.250 8
  23093437.259    23093445.810   -13563983.773 8  12659538.436 9
  22999401.603    22999406.043     3971151.329 9   3260041.410 9
  22290518.590    22290525.356    -3992479.536 9  -2782530.020 8
 90  3  8  5 40 44.0800000  0  4G 6G12G11G13
  23575491.306    23575495.510     6659512.246 9   5319335.470 8
  23086625.050    23086631.719   -13599794.698 8  12631633.843 9
  23004648.076    23004653.296     3998722.892 9   3281525.735 8
  22288340.374    22288346.869    -4003914.844 8  -2791440.639 8
 90  3  8  5 40 59.0800000  0  4G 6G12G11G13
  23584358.981    23584362.687     6706106.835 9   5355642.915 8
  23079828.374    23079835.305   -13635510.835 8  12603803.101 8
  23009905.626    23009910.928     4026348.731 9   3303052.351 8
  22286187.284    22286192.851    -4015244.268 8  -2800268.751 8
 90  3  8  5 41 14.0800000  0  4G 6G12G11G13
  23593245.177    23593251.305     6752809.230 8   5392034.394 8
  23073049.087    23073056.302   -13671131.845 9  12576046.476 9
  23015172.787    23015176.675     4054028.555 9   3324621.049 8
  22284054.026    22284057.662    -4026467.798 8  -2809014.359 7
 90  3  8  5 41 29.0800000  0  4G 6G12G11G13
  23602152.057    23602159.346     6799619.037 8   5428509.559 8
  23066289.039    23066295.398   -13706657.537 8  12548364.141 8
  23020447.993    23020454.394     4081761.986 8   3346231.540 7
  22281936.023    22281942.820    -4037585.683 8  -2817677.634 8
 90  3  8  5 41 44.0800000  0  4G 6G12G11G13
  23611079.791    23611086.033     6846535.898 8   5465068.164 8
  23059548.145    23059552.740   -13742087.593 9  12520756.327 8
  23025735.624    23025742.776     4109548.651 8   3367883.458 8
  22279840.285    22279846.037    -4048598.161 8  -2826258.747 8
 90  3  8  5 41 59.0800000  0  4G 6G12G11G13
  23620029.080    23620034.726     6893559.684 8   5501710.054 8
  23052825.307    23052829.807   -13777421.555 9  12493223.382 8
  23031034.650    23031042.058     4137388.312 9   3389576.683 9
  22277766.439    22277769.002    -4059505.139 9  -2834757.669 8
 90  3  8  5 42 14.0800000  0  4G 6G12G11G13
  23628997.955    23629003.538     6940689.943 8   5538434.923 8
  23046118.989    23046123.143   -13812659.127 9  12465765.552 9
  23036343.238    23036347.764     4165280.766 9   3411311.055 7
  22275711.384    22275714.002    -4070307.126 9  -2843174.790 8
 90  3  8  5 42 29.0800000  0  4G 6G12G11G13
  23637986.916    23637991.583     6987926.544 9   5575242.641 9
  23039431.845    23039435.842   -13847799.838 9  12438383.211 8
  23041660.175    23041665.459     4193225.799 9   3433086.408 8
  22273672.724    22273680.922    -4081003.885 9  -2851509.916 8
 90  3  8  5 42 44.0800000  0  4G 6G12G11G13
  23646995.988    23647000.587     7035269.062 9   5612132.895 9
  23032762.531    23032767.485   -13882843.443 8  12411076.522 8
  23046989.357    23046994.139     4221223.045 9   3454902.448 8
  22271657.932    22271665.445    -4091595.767 8  -2859763.322 8
 90  3  8  5 42 59.0800000  0  4G 6G12G11G13
  23656024.703    23656029.847     7082717.286 7   5649105.504 8
  23026112.783    23026118.235   -13917789.645 9  12383845.721 9
  23052326.105    23052330.859     4249272.323 9   3476759.035 7
  22269662.932    22269668.169    -4102082.753 9  -2867934.986 8
 90  3  8  5 43 14.0800000  0  4G 6G12G11G13
  23665073.521    23665079.746     7130270.859 7   5686160.211 8
  23019482.365    23019486.607   -13952637.978 9  12356691.183 9
  23057672.514    23057677.297     4277373.415 9   3498655.996 8
  22267687.806    22267691.039    -4112464.974 9  -2876025.013 8
 90  3  8  5 43 29.0800000  0  4G 6G12G11G13
  23674142.966    23674149.847     7177929.541 7   5723296.811 9
  23012870.217    23012874.015   -13987388.159 9  12329613.126 8
  23063030.677    23063035.531     4305525.813 9   3520592.942 8
  22265731.882    22265735.201    -4122742.658 9  -2884033.596 8
 90  3  8  5 43 44.0800000  0  4G 6G12G11G13
  23683232.075    23683238.603     7225692.847 7   5760514.958 8
  23006275.242    23006280.873   -14022039.923 9  12302611.756 9
  23068397.918    23068402.224     4333729.312 9   3542569.683 9
  22263794.704    22263801.859    -4132916.048 8  -2891960.921 7
 90  3  8  5 43 59.0800000  0  4G 6G12G11G13
  23692340.856    23692346.192     7273560.634 8   5797814.546 8
  22999699.658    22999706.450   -14056592.870 9  12275687.397 9
  23073774.169    23073780.553     4361983.649 9   3564586.038 8
  22261878.489    22261885.144    -4142985.109 8  -2899806.924 8
 90  3  8  5 44 14.0800000  0  4G 6G12G11G13
  23701470.226    23701475.082     7321532.694 8   5835195.348 8
  22993142.403    22993149.642   -14091046.473 9  12248840.442 9
  23079161.365    23079165.855     4390288.619 9   3586641.837 8
  22259983.895    22259987.687    -4152950.053 8  -2907571.790 7
 90  3  8  5 44 29.0800000  0  4G 6G12G11G13
  23710618.123    23710624.371     7369608.729 8   5872657.153 9
  22986605.241    22986612.486   -14125400.463 9  12222071.110 9
  23084556.597    23084561.386     4418643.995 9   3608736.941 8
  22258105.744    22258113.299    -4162810.952 8  -2915255.609 8
 90  3  8  5 44 44.0800000  0  4G 6G12G11G13
  23719786.845    23719792.645     7417788.407 8   5910199.709 8
  22980088.496    22980094.227   -14159654.462 9  12195379.693 9
  23089962.544    23089966.248     4447049.517 9   3630871.129 8
  22256248.453    22256256.367    -4172567.757 8  -2922858.307 7
 90  3  8  5 44 59.0800000  0  4G 6G12G11G13
  23728975.478    23728981.012     7466071.418 8   5947822.811 9
  22973588.983    22973594.319   -14193808.191 9  12168766.409 9
  23095377.029    23095382.327     4475504.980 9   3653044.213 8
  22254413.314    22254417.836    -4182220.500 9  -2930379.899 7
 90  3  8  5 45 14.0800000  0  4G 6G12G11G13
  23738181.988    23738187.599     7514457.377 9   5985526.145 8
  22967108.063    22967114.195   -14227861.325 9  12142231.518 9
  23100800.463    23100807.414     4504009.938 8   3675255.865 9
  22252595.274    22252600.225    -4191769.613 8  -2937820.744 7
 90  3  8  5 45 29.0800000  0  4G 6G12G11G13
  23747408.938    23747416.138     7562946.082 8   6023309.545 9
  22960648.028    22960652.732   -14261813.493 9  12115775.287 9
  23106234.085    23106240.415     4532564.148 9   3697505.904 8
  22250797.912    22250804.794    -4201215.253 9  -2945180.995 8
 90  3  8  5 45 44.0800000  0  4G 6G12G11G13
  23756654.738    23756661.270     7611537.184 8   6061172.698 9
  22954206.700    22954212.359   -14295664.409 9  12089397.941 9
  23111674.985    23111684.591     4561167.244 8   3719794.025 8
  22249020.468    22249027.162    -4210557.644 8  -2952460.788 7
 90  3  8  5 45 59.0800000  0  4G 6G12G11G13
  23765920.770    23765927.278     7660230.358 8   6099115.414 8
  22947783.261    22947790.506   -14329413.690 9  12063099.813 9
  23117128.425    23117134.469     4589819.084 8   3742120.114 8
  22247261.725    22247268.478    -4219796.747 8  -2959660.083 8
 90  3  8  5 46 14.0800000  0  4G 6G12G11G13
  23775205.464    23775212.739     7709025.218 7   6137137.386 8
  22941379.680    22941387.013   -14363061.094 9  12036881.072 9
  23122591.804    23122595.356     4618519.294 9   3764483.915 8
  22245522.829    22245528.624    -4228932.951 7  -2966779.158 8
 90  3  8  5 46 29.0800000  0  4G 6G12G11G13
  23784511.491    23784517.843     7757921.721 8   6175238.529 9
  22934996.767    22935002.619   -14396606.020 9  12010742.178 9
  23128061.093    23128065.509     4647267.694 9   3786885.264 7
  22243803.995    22243809.832    -4237966.062 8  -2973817.955 7
 90  3  8  5 46 44.0800000  0  4G 6G12G11G13
  23793835.085    23793841.230     7806919.612 8   6213418.698 8
  22928634.326    22928639.927   -14430047.961 9  11984683.534 9
  23133540.962    23133546.826     4676064.252 8   3809324.134 7
  22242106.595    22242109.845    -4246895.808 9  -2980776.174 8
 90  3  8  5 46 59.0800000  0  4G 6G12G11G13
  23803179.622    23803184.703     7856018.505 8   6251677.558 8
  22922289.544    22922295.532   -14463386.765 9  11958705.261 8
  23139030.540    23139037.069     4704908.566 9   3831800.209 8
  22240425.566    22240431.035    -4255722.752 8  -2987654.317 7
 90  3  8  5 47 14.0800000  0  4G 6G12G11G13
  23812541.162    23812547.130     7905217.911 8   6290014.734 8
  22915965.032    22915970.848   -14496622.040 9  11932807.652 9
  23144528.619    23144534.940     4733800.296 9   3854313.262 7
  22238763.911    22238771.111    -4264447.064 8  -2994452.482 8
 90  3  8  5 47 29.0800000  0  4G 6G12G11G13
  23821922.059    23821929.804     7954517.668 8   6328430.102 9
  22909661.676    22909664.766   -14529753.420 9  11906990.995 8
  23150033.558    23150040.895     4762739.242 8   3876863.099 7
  22237124.452    22237129.875    -4273068.878 8  -3001170.773 8
 90  3  8  5 47 44.0800000  0  4G 6G12G11G13
  23831322.822    23831331.207     8003917.355 8   6366923.321 9
  22903376.267    22903378.992   -14562780.753 9  11881255.413 9
  23155550.066    23155558.242     4791725.062 8   3899449.433 7
  22235505.195    22235509.418    -4281588.481 8  -3007809.396 7
 90  3  8  5 47 59.0800000  0  4G 6G12G11G13
  23840742.543    23840751.511     8053416.961 7   6405494.398 8
  22897111.356    22897116.004   -14595703.483 9  11855601.334 8
  23161075.827    23161080.867     4820757.732 9   3922072.265 8
  22233904.269    22233907.903    -4290005.719 9  -3014368.273 8
 90  3  8  5 48 14.0800000  0  4G 6G12G11G13
  23850182.909    23850187.081     8103015.725 8   6444142.780 9
  22890864.903    22890871.407   -14628521.590 9  11830028.790 8
  23166609.113    23166613.696     4849836.558 8   3944731.085 8
  22232319.898    22232323.017    -4298320.972 8  -3020847.682 7
 90  3  8  5 48 29.0800000  0  4G 6G12G11G13
  23859638.245    23859645.008     8152713.472 8   6482868.285 8
  22884640.245    22884646.098   -14661234.564 8  11804538.169 9
  23172152.488    23172156.512     4878961.510 7   3967425.843 7
  22230755.273    22230760.055    -4306534.414 8  -3027247.741 6
 90  3  8  5 48 44.0800000  0  4G 6G12G11G13
  23869114.197    23869120.974     8202509.929 9   6521670.712 9
  22878435.053    22878441.697   -14693842.209 9  11779129.641 9
  23177702.808    23177706.526     4908132.203 9   3990156.260 7
  22229213.402    22229217.724    -4314646.013 8  -3033568.463 7
 90  3  8  5 48 59.0800000  0  4G 6G12G11G13
  23878608.222    23878614.713     8252404.995 8   6560549.958 9
  22872250.864    22872254.681   -14726344.033 9  11753803.570 9
  23183261.199    23183265.618     4937348.531 8   4012922.243 8
  22227688.729    22227694.911    -4322656.082 8  -3039810.048 8
 90  3  8  5 49 14.0800000  0  4G 6G12G11G13
  23888123.408    23888128.322     8302398.201 9   6599505.685 8
  22866085.434    22866090.306   -14758739.678 9  11728560.201 7
  23188830.079    23188835.663     4966610.137 8   4035723.493 8
  22226185.591    22226189.783    -4330564.617 9  -3045972.527 8
 90  3  8  5 49 29.0800000  0  4G 6G12G11G13
  23897655.702    23897661.370     8352489.321 9   6638537.719 8
  22859939.246    22859944.260   -14791028.673 3  11703399.943 3
  23194406.546    23194413.468     4995916.971 8   4058559.978 7
  22224697.748    22224703.482    -4338371.724 8  -3052055.962 8
 90  3  8  5 49 44.0800000  0  4G 6G12G11G13
  23907206.827    23907212.077     8402677.929 9   6677645.711 9
  22853813.767    22853820.581   -14823210.946 3  11678322.817 3
  23199991.954    23199999.681     5025268.452 8   4081431.245 8
  22223230.768    22223237.291    -4346077.684 9  -3058060.594 7
 90  3  8  5 49 59.0800000  0  4G 6G12G11G13
  23916774.559    23916780.742     8452963.652 9   6716829.370 8
  22847711.341    22847720.346   -14855286.074 5  11653329.219 5
  23205586.388    23205592.045     5054664.372 9   4104337.153 8
  22221785.178    22221789.137    -4353682.479 9  -3063986.411 8
 90  3  8  5 50 14.0800000  0  4G 6G12G11G13
  23926361.659    23926368.239     8503346.285 9   6756088.545 8
  22841630.067    22841636.790   -14887253.622 8  11628419.451 9
  23211186.591    23211199.162     5084104.507 1   4127277.530 1
  22220356.555    22220361.376    -4361186.562 7  -3069833.736 6
 90  3  8  5 50 29.0800000  0  4G 6G12G11G13
  23935967.888    23935974.009     8553825.627 9   6795423.073 8
  22835567.399    22835573.684   -14919113.166 9  11603593.842 8
                  23216801.461     5113591.838 7
  22218946.678    22218956.324    -4368589.932 6  -3075602.604 6
 90  3  8  5 50 44.0800000  0  4G 6G12G11G13
  23945592.734    23945597.359     8604401.191 9   6834832.591 9
  22829523.418    22829529.067   -14950864.519 9  11578852.546 8
                  23222420.066     5143121.135 1
  22217557.659    22217563.850    -4375892.712 6  -3081293.056 6
 90  3  8  5 50 59.0800000  0  4G 6G12G11G13
  23955234.127    23955240.379     8655072.658 9   6874316.838 8
  22823504.841    22823508.979   -14982507.279 6  11554195.844 4
                  22853123.230   -20485964.376 1
  22216188.508    22216194.188    -4383094.877 7  -3086905.103 5
 90  3  8  5 51 14.0800000  0  4G 6G12G11G13
  23964895.496    23964902.518     8705839.639 8   6913875.481 8
  22817503.601    22817508.228   -15014041.224 9  11529623.934 7
                  22859360.169   -20603165.967 1
  22214835.796    22214842.675    -4390196.659 1  -3092438.970 2
 90  3  8  5 51 29.0800000  0  4G 6G12G11G13
  23974574.040    23974579.389     8756702.046 9   6953508.515 8
  22811524.202    22811530.422   -15045465.835 9  11505137.198 7
                  22939517.484   -20608505.884 7
  22213502.913    22213508.598    -4397198.170 7  -3097894.687 5
 90  3  8  5 51 44.0800000  0  4G 6G12G11G13
  23984271.042    23984276.516     8807659.308 9   6993215.460 8
  22805563.682    22805570.480   -15076780.917 9  11480735.865 7
                  23244950.662   -20578804.421 9
  22212188.732    22212198.727    -4404099.843 1  -3103272.586 1
 90  3  8  5 51 59.0800000  0  4G 6G12G11G13
  23993984.879    23993991.165     8858711.276 9   7032996.209 7
  22799625.338    22799631.778   -15107986.070 9  11456420.179 7
                  23250636.114   -20549060.965 8
  22210897.256    22210901.098    -4410901.720 1  -3108572.747 2
 90  3  8  5 52 14.0800000  0  4G 6G12G11G13
  24003718.203    24003725.906     8909857.603 9   7072850.465 7
  22793708.859    22793713.866   -15139081.095 8  11432190.337 7
  23256305.061    23256310.977   -20519275.553 8  26493396.836 8
  22209621.020    22209627.231    -4417603.876 1  -3113795.213 1
 90  3  8  5 52 29.0800000  0  4G 6G12G11G13
  24013469.889    24013475.266     8961097.862 9   7112777.912 7
  22787814.616    22787815.933   -15170065.575 9  11408046.610 7
  23261981.066    23261986.217   -20489448.222 9  26516638.894 8
  22208364.672    22208370.514    -4424206.343 2  -3118939.965 4
 90  3  8  5 52 44.0800000  0  4G 6G12G11G13
  24023238.514    24023242.570     9012431.722 9   7152778.300 8
  22781939.916    22781941.242   -15200939.149 9  11383989.259 8
  23267663.940    23267669.019   -20459579.286 9  26539913.371 8
  22207125.957    22207133.678    -4430709.553 8  -3124007.374 7
 90  3  8  5 52 59.0800000  0  4G 6G12G11G13
  24033022.536    24033030.757     9063859.218 8   7192851.625 9
  22776082.333    22776088.362   -15231701.205 9  11360018.826 8
  23273353.976    23273364.264   -20429668.753 9  26563220.279 9
  22205907.815    22205914.621    -4437113.310 9  -3128997.302 7
 90  3  8  5 53 14.0800000  0  4G 6G12G11G13
  24042828.215    24042833.476     9115379.515 9   7232997.276 7
  22770248.951    22770256.686   -15262351.960 8  11336135.143 8
  23279055.581    23279063.351   -20399717.326 8  26586559.039 8
  22204709.906    22204715.941    -4443418.186 9  -3133910.199 6
 90  3  8  5 53 29.0800000  0  4G 6G12G11G13
  24052649.589    24052653.901     9166992.428 9   7273215.130 7
  22764440.773    22764446.405   -15292890.809 9  11312338.647 8
  23284763.895    23284770.157   -20369725.085 9  26609929.590 8
  22203527.823    22203533.599    -4449624.059 8  -3138745.932 6
 90  3  8  5 53 44.0800000  0  4G 6G12G11G13
  24062487.929    24062492.068     9218697.733 9   7313504.953 6
  22758652.247    22758655.163   -15323317.477 9  11288629.574 8
  23290479.268    23290483.073   -20339692.278 8  26633331.786 7
  22202365.029    22202370.074    -4455731.127 9  -3143504.676 7
 90  3  8  5 53 59.0800000  0  4G 6G12G11G13
  24072345.047    24072348.525     9270494.973 8   7353866.425 7
  22752881.071    22752886.681   -15353631.649 9  11265008.140 8
  23296201.684    23296205.052   -20309619.069 9  26656765.443 7
  22201221.896    22201227.757    -4461739.710 8  -3148186.681 7
 90  3  8  5 54 14.0800000  0  4G 6G12G11G13
  24082219.785    24082225.357     9322384.097 8   7394299.489 7
  22747131.437    22747141.157   -15383832.772 9  11241474.808 9
  23301930.585    23301938.470   -20279505.584 9  26680230.476 7
  22200096.748    22200104.957    -4467649.623 9  -3152791.793 8
 90  3  8  5 54 29.0800000  0  4G 6G12G11G13
  24092111.170    24092117.961     9374364.764 8   7434803.867 7
  22741406.693    22741415.605   -15413920.592 8  11218029.773 9
  23307668.147    23307677.485   -20249351.953 9  26703726.810 7
  22198991.207    22198998.571    -4473461.004 9  -3157320.133 7
 90  3  8  5 54 44.0800000  0  4G 6G12G11G13
  24102020.372    24102025.672     9426436.519 8   7475379.241 7
  22735705.529    22735708.978   -15443895.045 9  11194673.053 8
  23313413.811    23313419.013   -20219158.740 9  26727254.050 7
  22197905.422    22197911.083    -4479174.459 9  -3161772.167 7
 90  3  8  5 54 59.0800000  0  4G 6G12G11G13
  24111945.346    24111952.326     9478599.004 8   7516025.311 7
  22730022.543    22730026.857   -15473755.605 9  11171405.082 7
  23319167.141    23319172.823   -20188926.115 8  26750811.954 7
  22196836.522    22196842.367    -4484790.063 8  -3166147.953 7
 90  3  8  5 55 14.0800000  0  4G 6G12G11G13
  24121888.962    24121895.927     9530851.914 8   7556741.840 8
  22724358.965    22724365.855   -15503501.895 9  11148226.136 8
  23324927.412    23324933.838   -20158654.311 8  26774400.373 8
  22195784.038    22195790.676    -4490308.041 9  -3170447.649 6
 90  3  8  5 55 29.0800000  0  4G 6G12G11G13
  24131849.977    24131856.437     9583194.860 8   7597528.531 8
  22718720.313    22718728.334   -15533133.693 8  11125136.443 7
  23330697.317    23330700.650   -20128343.544 9  26798019.132 7
  22194753.396    22194759.304    -4495728.161 9  -3174671.106 7
 90  3  8  5 55 44.0800000  0  4G 6G12G11G13
  24141827.955    24141833.978     9635627.509 8   7638385.116 8
  22713108.934    22713108.644   -15562650.674 1  11102136.231 1
  23336474.881    23336475.254   -20097994.206 8  26821667.972 7
  22193742.657    22193747.460    -4501050.984 6  -3178818.785 5
 90  3  8  5 55 59.0800000  0  4G 6G12G11G13
  24151823.811    24151828.617     9688149.519 9   7679311.322 8
  22707512.505    22707517.025   -15592052.423 8  11079225.759 8
                  23342255.284   -22273125.549 8
  22192747.738    22192751.441    -4506276.631 9  -3182890.725 7
 90  3  8  5 56 14.0800000  0  4G 6G12G11G13
  24161834.530    24161840.697     9740760.803 9   7720307.114 8
  22701936.613    22701944.568   -15621338.498 9  11056405.431 7
  23348043.873    23348049.684   -22242699.575 9  28322478.240 7
  22191770.920    22191775.161    -4511404.829 9  -3186886.694 6
 90  3  8  5 56 29.0800000  0  4G 6G12G11G13
  24171863.663    24171869.212     9793460.784 9   7761371.980 9
  22696385.877    22696392.976   -15650508.793 9  11033675.346 8
  23353839.244    23353846.114   -22212235.862 8  28346216.196 8
  22190812.662    22190816.314    -4516435.960 8  -3190807.038 7
 90  3  8  5 56 44.0800000  0  4G 6G12G11G13
  24181908.374    24181914.485     9846248.989 8   7802505.590 8
  22690856.833    22690864.399   -15679563.041 9  11011035.695 8
  23359643.299    23359651.465   -22181734.665 9  28369983.347 8
  22189875.388    22189877.004    -4521370.462 8  -3194652.082 8
 90  3  8  5 56 59.0800000  0  4G 6G12G11G13
  24191970.589    24191976.112     9899125.121 9   7843707.738 8
  22685350.797    22685357.393   -15708500.891 9  10988486.729 9
  23365457.026    23365460.997   -22151196.246 9  28393779.510 8
  22188954.958    22188958.799    -4526208.510 8  -3198421.981 7
 90  3  8  5 57 14.0800000  0  4G 6G12G11G13
  24202049.250    24202053.859     9952088.797 9   7884978.130 8
  22679866.913    22679873.679   -15737322.056 9  10966028.675 8
  23371275.407    23371278.671   -22120620.821 9  28417604.522 8
  22188051.159    22188056.911    -4530950.073 9  -3202116.696 7
 90  3  8  5 57 29.0800000  0  4G 6G12G11G13
  24212143.643    24212148.977    10005140.159 9   7926316.830 7
  22674403.863    22674410.098   -15766025.876 9  10943662.043 8
  23377101.011    23377103.858   -22090008.268 9  28441458.459 8
  22187167.769    22187172.246    -4535594.998 9  -3205736.111 7
 90  3  8  5 57 44.0800000  0  4G 6G12G11G13
  24222254.247    24222261.206    10058278.177 9   7967723.052 8
  22668964.993    22668971.876   -15794612.888 9  10921386.470 8
  23382933.524    23382937.438   -22059359.626 9  28465340.522 8
  22186303.828    22186309.056    -4540144.313 9  -3209281.031 7
 90  3  8  5 57 59.0800000  0  4G 6G12G11G13
  24232384.177    24232390.114    10111502.894 9   8009196.832 8
  22663547.336    22663553.508   -15823082.089 9  10899202.677 7
  23388770.632    23388777.792   -22028674.539 9  28489250.942 8
  22185453.582    22185459.410    -4544597.778 9  -3212751.246 8
 90  3  8  5 58 14.0800000  0  4G 6G12G11G13
  24242529.375    24242535.503    10164813.569 9   8050737.580 7
  22658152.393    22658157.756   -15851433.567 9  10877110.634 7
  23394618.078    23394623.901   -21997953.727 9  28513189.247 8
  22184624.256    22184629.032    -4548956.057 9  -3216147.284 7
 90  3  8  5 58 29.0800000  0  4G 6G12G11G13
  24252690.875    24252695.312    10218210.228 9   8092345.330 7
  22652780.434    22652785.585   -15879666.798 9  10855110.727 8
  23400470.189    23400477.296   -21967197.021 9  28537155.501 8
  22183815.230    22183819.636    -4553218.745 8  -3219468.845 7
 90  3  8  5 58 44.0800000  0  4G 6G12G11G13
  24262867.966    24262874.400    10271692.546 9   8134019.827 8
  22647430.226    22647434.477   -15907781.418 9  10833203.247 7
  23406330.169    23406334.970   -21936404.648 8  28561149.566 8
  22183020.772    22183026.792    -4557386.003 8  -3222716.072 8
 90  3  8  5 58 59.0800000  0  4G 6G12G11G13
  24273062.340    24273066.936    10325260.185 9   8175760.840 9
  22642100.710    22642107.105   -15935776.991 9  10811388.515 9
  23412196.062    23412201.943   -21905576.934 8  28585171.157 7
  22182244.120    22182252.070    -4561457.905 8  -3225888.980 8
 90  3  8  5 59 14.0800000  0  4G 6G12G11G13
  24283271.865    24283277.424    10378912.954 9   8217568.149 8
  22636796.660    22636802.340   -15963653.210 9  10789666.794 9
  23418069.253    23418076.152   -21874714.011 9  28609220.170 9
  22181486.640    22181494.517    -4565434.691 9  -3228987.757 8
 90  3  8  5 59 29.0800000  0  4G 6G12G11G13
  24293498.188    24293503.279    10432650.193 8   8259441.304 8
  22631517.512    22631522.062   -15991409.941 9  10768038.180 8
  23423950.128    23423955.035   -21843816.404 9  28633296.239 9
  22180750.969    22180756.480    -4569316.748 8  -3232012.723 7
 90  3  8  5 59 44.0800000  0  4G 6G12G11G13
  24303740.382    24303745.398    10486471.657 8   8301380.079 8
  22626257.711    22626262.231   -16019046.829 9  10746502.957 8
  23429837.086    23429842.377   -21812884.288 9  28657399.196 8
  22180030.238    22180035.526    -4573104.081 9  -3234963.890 7
 90  3  8  5 59 59.0800000  0  4G 6G12G11G13
  24313997.084    24314003.380    10540377.208 9   8343384.392 8
  22621020.200    22621024.251   -16046563.439 9  10725061.461 7
  23435729.680    23435733.957   -21781917.678 9  28681529.017 8
  22179326.292    22179333.213    -4576796.775 9  -3237841.325 6
 90  3  8  6  0 14.0800000  0  4G 6G12G11G13
  24324271.479    24324277.518    10594366.600 9   8385454.020 8
  22615806.872    22615810.683   -16073959.314 9  10703714.036 8
  23441626.848    23441632.594   -21750916.696 8  28705685.615 9
  22178640.560    22178647.360    -4580395.039 9  -3240645.141 7
 90  3  8  6  0 29.0800000  0  4G 6G12G11G13
  24334560.733    24334566.517    10648439.279 8   8427588.545 8
  22610618.788    22610619.804   -16101234.291 9  10682460.807 7
  23447532.415    23447538.578   -21719881.795 8  28729868.646 9
  22177976.761    22177979.347    -4583898.928 8  -3243375.403 7
 90  3  8  6  0 44.0800000  0  4G 6G12G11G13
  24344865.263    24344872.057    10702594.994 8   8469787.773 8
  22605451.825    22605456.430   -16128387.985 9  10661302.089 8
  23453445.115    23453451.304   -21688813.069 9  28754078.021 7
  22177326.507    22177330.014    -4587308.563 9  -3246032.266 7
 90  3  8  6  0 59.0800000  0  4G 6G12G11G13
  24355186.020    24355193.100    10756833.443 9   8512051.473 8
  22600307.039    22600311.571   -16155419.949 9  10640238.240 7
  23459364.577    23459369.590   -21657710.741 9  28778313.604 9
  22176696.330    22176700.386    -4590624.132 8  -3248615.814 8
 90  3  8  6  1 14.0800000  0  4G 6G12G11G13
  24365524.669    24365529.632    10811154.354 8   8554379.428 8
  22595186.006    22595190.029   -16182329.887 9  10619269.469 7
  23465291.277    23465294.099   -21626574.965 9  28802575.249 8
  22176082.695    22176088.913    -4593845.832 8  -3251126.228 8
 90  3  8  6  1 29.0800000  0  4G 6G12G11G13
  24375875.321    24375882.244    10865557.210 8   8596771.218 8
  22590088.040    22590092.663   -16209117.677 9  10598395.867 8
  23471220.167    23471225.038   -21595406.271 9  28826862.542 7
  22175488.107    22175495.237    -4596974.062 8  -3253563.788 8
 90  3  8  6  1 44.0800000  0  4G 6G12G11G13
  24386244.282    24386250.730    10920042.219 8   8639227.036 8
  22585014.087    22585018.293   -16235782.410 9  10577618.160 7
  23477157.815    23477161.979   -21564204.326 9  28851175.732 7
  22174910.315    22174916.199    -4600008.273 8  -3255928.111 7
 90  3  8  6  1 59.0800000  0  4G 6G12G11G13
  24396627.301    24396633.486    10974608.556 8   8681746.233 8
  22579963.711    22579967.576   -16262324.305 9  10556936.169 7
  23483103.094    23483106.828   -21532969.853 8  28875514.290 8
  22174348.574    22174356.585    -4602949.220 8  -3258219.736 6
 90  3  8  6  2 14.0800000  0  4G 6G12G11G13
  24407026.083    24407033.241    11029255.719 8   8724328.403 8
  22574935.490    22574940.368   -16288743.074 9  10536350.114 8
  23489053.093    23489056.887   -21501703.146 9  28899877.973 9
  22173809.852    22173815.817    -4605797.155 9  -3260438.877 8
 90  3  8  6  2 29.0800000  0  4G 6G12G11G13
  24417441.595    24417447.010    11083983.353 9   8766973.281 8
  22569931.848    22569936.442   -16315038.511 9  10515860.158 7
  23495007.360    23495013.256   -21470404.550 9  28924266.494 8
  22173283.923    22173292.308    -4608552.519 8  -3262585.934 9
 90  3  8  6  2 44.0800000  0  4G 6G12G11G13
  24427871.027    24427878.512    11138791.321 9   8809680.749 8
  22564950.846    22564956.069   -16341210.097 9  10495466.738 7
  23500969.974    23500975.957   -21439074.164 8  28948679.765 8
  22172775.740    22172786.335    -4611215.291 9  -3264660.814 8
 90  3  8  6  2 59.0800000  0  4G 6G12G11G13
  24438316.440    24438322.911    11193679.321 8   8852450.584 8
  22559993.970    22559998.503   -16367257.418 9  10475170.131 7
  23506939.376    23506944.031   -21407712.010 9  28973117.817 9
  22172287.708    22172293.397    -4613785.388 9  -3266663.473 8
 90  3  8  6  3 14.0800000  0  4G 6G12G11G13
  24448775.590    24448783.229    11248647.025 9   8895282.548 8
  22555060.445    22555066.269   -16393180.317 9  10454970.471 8
  23512911.134    23512919.058   -21376318.345 8  28997580.400 9
  22171816.713    22171820.813    -4616263.084 9  -3268594.146 7
 90  3  8  6  3 29.0800000  0  4G 6G12G11G13
  24459250.039    24459256.962    11303694.077 8   8938176.328 8
  22550151.072    22550157.298   -16418978.414 9  10434868.047 7
  23518890.772    23518896.969   -21344893.408 8  29022067.353 8
  22171362.187    22171367.371    -4618648.482 9  -3270452.895 7
 90  3  8  6  3 44.0800000  0  4G 6G12G11G13
  24469740.783    24469747.460    11358819.864 7   8981131.486 7
  22545266.657    22545272.635   -16444651.559 8  10414863.008 8
  23524876.733    23524881.364   -21313437.695 7  29046578.265 8
  22170926.727    22170932.642    -4620942.039 8  -3272240.072 7
 90  3  8  6  3 59.0800000  0  4G 6G12G11G13
  24480247.010    24480251.858    11414024.308 9   9024147.935 8
  22540404.965    22540411.730   -16470199.354 9  10394955.648 8
  23530868.362    23530873.931   -21281951.281 8  29071113.125 8
  22170506.959    22170513.385    -4623143.662 9  -3273955.607 7
 90  3  8  6  4 14.0800000  0  4G 6G12G11G13
  24490766.711    24490772.445    11469306.988 8   9067225.321 8
  22535567.570    22535573.309   -16495621.468 9  10375146.228 8
  23536866.404    23536872.091   -21250434.315 9  29095671.755 9
  22170104.639    22170111.802    -4625253.514 8  -3275599.626 7
 90  3  8  6  4 29.0800000  0  4G 6G12G11G13
  24501300.914    24501306.000    11524667.738 9   9110363.523 8
  22530753.012    22530759.549   -16520917.407 9  10355435.122 8
  23542870.808    23542875.182   -21218886.938 9  29120254.122 9
  22169721.314    22169726.049    -4627271.736 9  -3277172.242 8
 90  3  8  6  4 44.0800000  0  4G 6G12G11G13
  24511851.757    24511856.457    11580106.032 9   9153562.172 7
  22525964.436    22525970.601   -16546086.918 9  10335822.495 8
  23548879.322    23548885.578   -21187309.601 9  29144859.858 7
  22169356.214    22169360.356    -4629198.669 9  -3278673.746 7
 90  3  8  6  4 59.0800000  0  4G 6G12G11G13
  24522415.598    24522419.574    11635621.435 9   9196820.903 7
  22521198.963    22521204.625   -16571130.022 9  10316308.378 9
  23554891.872    23554899.568   -21155702.581 9  29169488.702 8
  22169004.901    22169010.652    -4631034.551 9  -3280104.302 8
 90  3  8  6  5 14.0800000  0  4G 6G12G11G13
  24532993.892    24532999.908    11691213.484 8   9240139.360 7
  22516457.781    22516462.914   -16596046.402 9  10296893.010 7
  23560913.173    23560919.100   -21124066.019 9  29194140.551 8
  22168672.482    22168679.709    -4632779.585 9  -3281464.070 7
 90  3  8  6  5 29.0800000  0  4G 6G12G11G13
  24543587.142    24543593.304    11746881.924 9   9283517.338 7
  22511739.178    22511746.317   -16620835.843 9  10277576.570 7
  23566942.267    23566943.144   -21092400.257 9  29218815.193 7
  22168358.505    22168363.993    -4634433.856 9  -3282753.132 6
 90  3  8  6  5 44.0800000  0  4G 6G12G11G13
  24554194.729    24554202.004    11802626.569 9   9326954.691 6
  22507046.793    22507053.115   -16645497.698 9  10258359.568 8
  23572972.350    23572976.140   -21060705.333 9  29243512.564 8
  22168060.711    22168065.964    -4635997.447 9  -3283971.518 7
 90  3  8  6  5 59.0800000  0  4G 6G12G11G13
  24564815.836    24564823.758    11858447.089 8   9370451.170 7
  22502377.990    22502383.768   -16670031.804 9  10239242.086 8
  23579006.939    23579013.119   -21028981.395 9  29268232.489 8
  22167781.587    22167787.442    -4637470.635 9  -3285119.422 7
 90  3  8  6  6 14.0800000  0  4G 6G12G11G13
  24575453.175    24575460.110    11914342.913 8   9414006.316 7
  22497733.280    22497739.015   -16694437.978 9  10220224.284 9
  23585050.475    23585055.710   -20997228.905 8  29292974.667 8
  22167518.811    22167523.123    -4638853.792 9  -3286197.180 7
 90  3  8  6  6 29.0800000  0  4G 6G12G11G13
  24586100.548    24586111.048    11970313.697 7   9457619.870 8
  22493113.557    22493118.318   -16718716.054 9  10201306.306 8
  23591097.939    23591104.043   -20965448.298 8  29317738.775 8
  22167273.166    22167277.377    -4640147.153 9  -3287204.981 8
 90  3  8  6  6 44.0800000  0  4G 6G12G11G13
  24596769.756    24596775.628    12026359.037 8   9501291.509 6
  22488518.845    22488523.879   -16742865.697 9  10182488.399 8
  23597150.627    23597155.776   -20933639.676 8  29342524.685 8
  22167042.839    22167046.793    -4641350.678 9  -3288142.819 7
 90  3  8  6  6 59.0800000  0  4G 6G12G11G13
  24607450.229    24607455.191    12082478.521 9   9545020.971 8
  22483948.144    22483952.623   -16766886.631 9  10163770.783 8
  23603208.125    23603214.463   -20901803.256 8  29367332.259 8
  22166829.572    22166836.063    -4642464.750 9  -3289010.932 7
 90  3  8  6  7 14.0800000  0  4G 6G12G11G13
  24618143.826    24618147.727    12138672.185 9   9588808.241 8
  22479400.141    22479406.548   -16790778.208 9  10145153.975 8
  23609270.431    23609278.973   -20869938.892 9  29392161.610 9
  22166635.257    22166639.866    -4643489.283 9  -3289809.243 7
 90  3  8  6  7 29.0800000  0  4G 6G12G11G13
  24628851.326    24628855.791    12194939.209 9   9632652.660 8
  22474878.774    22474884.797   -16814540.525 9  10126637.897 7
  23615340.439    23615347.481   -20838047.251 9  29417012.234 8
  22166457.642    22166462.510    -4644424.643 9  -3290538.085 7
 90  3  8  6  7 44.0800000  0  4G 6G12G11G13
  24639572.723    24639578.678    12251279.594 9   9676554.231 8
  22470382.853    22470387.486   -16838172.976 9  10108223.014 8
  23621416.163    23621421.536   -20806128.281 9  29441884.163 7
  22166297.573    22166300.683    -4645271.030 9  -3291197.579 6
 90  3  8  6  7 59.0800000  0  4G 6G12G11G13
  24650307.467    24650312.811    12307692.908 8   9720512.619 7
  22465910.085    22465914.904   -16861675.292 9  10089909.511 6
  23627494.477    23627500.303   -20774182.189 9  29466777.227 8
  22166153.244    22166158.387    -4646028.559 9  -3291787.854 7
 90  3  8  6  8 14.0800000  0  4G 6G12G11G13
  24661054.707    24661061.865    12364178.879 8   9764527.611 8
  22461461.153    22461466.275   -16885047.241 9  10071697.612 7
  23633578.594    23633584.514   -20742209.152 9  29491691.281 8
  22166023.600    22166030.276    -4646697.420 8  -3292309.035 7
 90  3  8  6  8 29.0800000  0  4G 6G12G11G13
  24671817.480    24671823.507    12420737.152 8   9808598.964 7
  22457040.445    22457043.824   -16908288.437 9  10053587.589 8
  23639668.079    23639675.146   -20710209.382 9  29516626.173 8
  22165914.269    22165918.760    -4647277.761 9  -3292761.257 7
 90  3  8  6  8 44.0800000  0  4G 6G12G11G13
  24682592.909    24682599.806    12477367.345 9   9852726.348 7
  22452642.624    22452646.630   -16931398.647 9  10035579.658 7
  23645760.991    23645767.397   -20678183.198 9  29541581.634 7
  22165822.256    22165827.645    -4647769.548 9  -3293144.473 7
 90  3  8  6  8 59.0800000  0  4G 6G12G11G13
  24693385.067    24693390.142    12534068.964 8   9896909.391 6
  22448268.531    22448275.669   -16954377.659 9  10017673.935 7
  23651861.334    23651867.843   -20646130.963 8  29566557.410 7
  22165746.120    22165751.496    -4648173.329 9  -3293459.089 7
 90  3  8  6  9 14.0800000  0  4G 6G12G11G13
  24704188.805    24704193.737    12590841.638 8   9941147.813 8
  22443921.428    22443925.961   -16977225.374 9   9999870.525 7
  23657967.295    23657971.257   -20614052.882 9  29591553.309 7
  22165683.455    22165690.008    -4648489.227 9  -3293705.219 7
 90  3  8  6  9 29.0800000  0  4G 6G12G11G13
  24715004.013    24715011.363    12647685.031 9   9985441.364 7
  22439599.966    22439603.311   -16999941.415 8   9982169.710 8
  23664075.832    23664079.401   -20581949.189 8  29616569.201 8
  22165639.756    22165645.207    -4648717.584 9  -3293883.155 7
 90  3  8  6  9 44.0800000  0  4G 6G12G11G13
  24725835.545    24725842.067    12704598.582 9  10029789.563 8
  22435301.537    22435305.400   -17022525.694 9   9964571.574 8
  23670187.806    23670193.495   -20549820.141 9  29641604.789 7
  22165613.830    22165620.494    -4648858.696 9  -3293993.118 7
 90  3  8  6  9 59.0800000  0  4G 6G12G11G13
  24736679.360    24736684.729    12761582.141 8  10074192.312 7
  22431027.753    22431033.491   -17044977.691 9   9947076.515 9
  23676309.247    23676311.801   -20517665.834 9  29666660.091 7
  22165603.489    22165611.060    -4648912.476 9  -3294035.042 8
 90  3  8  6 10 14.0800000  0  4G 6G12G11G13
  24747535.944    24747542.541    12818635.404 9  10118649.380 7
  22426780.698    22426787.808   -17067297.098 9   9929684.776 8
  23682431.580    23682436.586   -20485486.591 9  29691734.828 7
  22165610.285    22165616.053    -4648878.819 9  -3294008.809 8
 90  3  8  6 10 29.0800000  0  4G 6G12G11G13
  24758406.775    24758412.488    12875757.969 8  10163160.450 8
  22422559.228    22422564.633   -17089483.715 9   9912396.483 8
  23688558.586    23688563.995   -20453282.612 9  29716828.837 8
  22165632.859    22165638.391    -4648758.146 9  -3293914.755 7
 90  3  8  6 10 44.0800000  0  4G 6G12G11G13
  24769288.607    24769295.135    12932949.593 7  10207725.313 8
  22418361.709    22418368.005   -17111537.213 9   9895211.952 8
  23694691.068    23694697.126   -20421054.013 8  29741942.025 7
  22165670.368    22165677.934    -4648550.664 9  -3293753.069 7
 90  3  8  6 10 59.0800000  0  4G 6G12G11G13
  24780183.689    24780191.614    12990210.043 7  10252343.801 8
  22414191.091    22414196.330   -17133457.106 9   9878131.527 8
  23700829.691    23700834.859   -20388800.826 9  29767074.360 8
  22165726.311    22165733.958    -4648256.562 8  -3293523.908 7
 90  3  8  6 11 14.0800000  0  4G 6G12G11G13
  24791094.293    24791101.196    13047539.121 8  10297015.765 9
  22410046.461    22410050.568   -17155242.910 8   9861155.574 8
  23706972.925    23706978.698   -20356523.168 9  29792225.794 8
  22165800.751    22165807.335    -4647875.806 9  -3293227.220 8
 90  3  8  6 11 29.0800000  0  4G 6G12G11G13
  24802016.854    24802024.322    13104936.236 8  10341740.758 7
  22405925.584    22405930.651   -17176894.426 9   9844284.251 8
  23713119.693    23713125.374   -20324221.433 9  29817395.958 9
  22165891.656    22165896.901    -4647408.823 9  -3292863.316 8
 90  3  8  6 11 44.0800000  0  4G 6G12G11G13
  24812952.684    24812959.733    13162400.855 9  10386518.351 7
  22401831.810    22401837.090   -17198411.677 9   9827517.562 7
  23719271.637    23719275.883   -20291895.964 9  29842584.611 8
  22165995.505    22166002.334    -4646855.968 9  -3292432.523 8
 90  3  8  6 11 59.0800000  0  4G 6G12G11G13
  24823901.660    24823905.910    13219932.636 9  10431348.277 9
  22397761.556    22397766.794   -17219794.566 9   9810855.580 7
  23725427.662    23725431.394   -20259547.091 9  29867791.518 8
  22166117.274    22166123.007    -4646217.430 9  -3291934.944 8
 90  3  8  6 12 14.0800000  0  4G 6G12G11G13
  24834862.044    24834866.405    13277531.258 9  10476230.291 8
  22393718.466    22393721.998   -17241042.602 9   9794298.680 7
  23731587.227    23731591.735   -20227174.919 9  29893016.583 8
  22166255.272    22166258.949    -4645493.200 8  -3291370.599 7
 90  3  8  6 12 29.0800000  0  4G 6G12G11G13
  24845835.139    24845839.730    13335196.401 8  10521164.136 7
  22389700.528    22389704.848   -17262155.524 9   9777847.053 7
  23737749.688    23737756.290   -20194779.528 9  29918259.762 8
  22166408.164    22166413.705    -4644683.466 9  -3290739.652 7
 90  3  8  6 12 44.0800000  0  4G 6G12G11G13
  24856820.558    24856825.392    13392928.155 8  10566149.873 7
  22385708.977    22385713.165   -17283132.629 9   9761501.250 7
  23743918.734    23743925.077   -20162360.747 8  29943521.131 8
  22166579.630    22166583.919    -4643788.087 8  -3290041.948 8
 90  3  8  6 12 59.0800000  0  4G 6G12G11G13
  24867819.015    24867824.241    13450725.828 9  10611186.964 6
  22381742.724    22381747.722   -17303973.904 9   9745261.286 8
  23750091.614    23750098.786   -20129919.158 8  29968800.295 8
  22166766.270    22166771.528    -4642807.593 9  -3289277.901 8
 90  3  8  6 13 14.0800000  0  4G 6G12G11G13
  24878830.024    24878835.570    13508588.838 8  10656274.989 7
  22377803.662    22377805.805   -17324679.282 9   9729127.236 8
  23756269.494    23756275.430   -20097455.087 8  29994096.976 8
  22166969.330    22166974.229    -4641742.301 9  -3288447.784 7
 90  3  8  6 13 29.0800000  0  4G 6G12G11G13
  24889851.754    24889858.881    13566517.140 7  10701413.867 7
  22373889.239    22373893.169   -17345248.255 9   9713099.453 7
  23762451.363    23762458.151   -20064968.501 8  30019411.203 8
  22167186.801    22167192.278    -4640591.938 9  -3287551.406 7
 90  3  8  6 13 44.0800000  0  4G 6G12G11G13
  24900889.814    24900894.696    13624510.383 8  10746603.372 7
  22369999.509    22370005.630   -17365680.586 9   9697178.169 7
  23768639.909    23768644.280   -20032459.564 8  30044742.826 8
  22167421.723    22167425.057    -4639356.892 9  -3286589.034 7
 90  3  8  6 13 59.0800000  0  4G 6G12G11G13
  24911937.472    24911943.344    13682568.049 8  10791843.086 8
  22366137.200    22366143.222   -17385976.073 9   9681363.507 7
  23774831.483    23774834.089   -19999928.449 9  30070091.733 8
  22167673.902    22167678.072    -4638037.694 8  -3285561.085 7
 90  3  8  6 14 14.0800000  0  4G 6G12G11G13
  24922997.081    24923003.886    13740690.137 8  10837132.995 8
  22362303.111    22362307.245   -17406134.128 9   9665655.932 7
  23781025.257    23781028.690   -19967375.192 9  30095457.923 8
  22167940.814    22167947.473    -4636634.039 9  -3284467.327 7
 90  3  8  6 14 29.0800000  0  4G 6G12G11G13
  24934069.694    24934074.453    13798875.873 9  10882472.536 7
  22358494.603    22358497.744   -17426154.756 9   9650055.442 7
  23787223.284    23787229.639   -19934800.360 9  30120840.898 8
  22168222.152    22168228.443    -4635146.262 9  -3283307.994 6
 90  3  8  6 14 44.0800000  0  4G 6G12G11G13
  24945152.484    24945160.391    13857125.009 8  10927861.456 7
  22354709.791    22354712.596   -17446037.835 9   9634562.119 7
  23793424.668    23793432.350   -19902204.231 9  30146240.472 7
  22168522.031    22168526.194    -4633574.625 9  -3282083.337 8
 90  3  8  6 14 59.0800000  0  4G 6G12G11G13
  24956249.383    24956255.633    13915436.975 8  10973299.317 7
  22350952.221    22350955.936   -17465783.203 9   9619176.132 8
  23799630.604    23799639.167   -19869587.067 9  30171656.420 9
  22168837.396    22168841.225    -4631919.328 9  -3280793.475 7
 90  3  8  6 15 14.0800000  0  4G 6G12G11G13
  24967357.345    24967363.241    13973811.473 9  11018785.924 7
  22347220.382    22347225.732   -17485390.583 9   9603897.659 7
  23805842.397    23805850.972   -19836949.015 9  30197088.663 8
  22169169.081    22169172.217    -4630180.695 9  -3279438.692 7
 90  3  8  6 15 29.0800000  0  4G 6G12G11G13
  24978478.312    24978484.236    14032248.244 9  11064321.056 7
  22343514.703    22343521.554   -17504859.707 8   9588726.929 8
  23812059.407    23812062.661   -19804290.214 9  30222537.082 9
  22169514.985    22169516.491    -4628359.042 9  -3278019.199 7
 90  3  8  6 15 44.0800000  0  4G 6G12G11G13
  24989609.696    24989616.808    14090746.917 9  11109904.424 7
  22339836.209    22339842.314   -17524190.225 8   9573664.190 7
  23818277.769    23818282.834   -19771610.792 8  30248001.559 8
  22169877.201    22169880.728    -4626454.471 9  -3276535.108 7
 90  3  8  6 15 59.0800000  0  4G 6G12G11G13
  25000753.912    25000760.062    14149307.209 9  11155535.783 8
  22336184.644    22336189.848   -17543381.823 9   9558709.696 7
  23824500.140    23824504.761   -19738910.987 8  30273481.917 8
  22170255.530    22170258.938    -4624467.065 9  -3274986.463 6
 90  3  8  6 16 14.0800000  0  4G 6G12G11G13
  25011910.149    25011915.913    14207928.718 8  11201214.855 8
  22332559.179    22332562.414   -17562434.356 8   9543863.565 8
  23830726.605    23830730.699   -19706190.928 9  30298978.040 9
  22170650.909    22170653.557    -4622396.773 9  -3273373.240 7
 90  3  8  6 16 29.0800000  0  4G 6G12G11G13
  25023076.470    25023083.722    14266610.902 9  11246941.199 8
  22328959.184    22328965.622   -17581347.629 9   9529125.957 8
  23836955.428    23836962.547   -19673450.963 9  30324489.701 8
  22171058.768    22171063.312    -4620244.275 9  -3271695.937 7
 90  3  8  6 16 44.0800000  0  4G 6G12G11G13
  25034255.085    25034260.644    14325353.450 9  11292714.580 7
  22325385.806    22325393.900   -17600121.247 9   9514497.161 8
  23843189.179    23843195.963   -19640691.275 7  30350016.715 7
  22171484.217    22171487.609    -4618009.739 8  -3269954.743 6
 90  3  8  6 16 59.0800000  0  4G 6G12G11G13
  25045445.750    25045451.651    14384156.046 9  11338534.753 8
  22321840.472    22321848.271   -17618754.962 8   9499977.361 7
  23849428.357    23849432.057   -19607912.142 9  30375558.881 8
  22171923.662    22171927.920    -4615693.370 9  -3268149.786 6
 90  3  8  6 17 14.0800000  0  4G 6G12G11G13
  25056647.083    25056652.538    14443018.081 9  11384401.243 8
  22318323.013    22318328.321   -17637248.763 9   9485566.617 7
  23855670.008    23855674.964   -19575113.946 9  30401115.947 8
  22172380.141    22172386.678    -4613295.271 9  -3266281.179 7
 90  3  8  6 17 29.0800000  0  4G 6G12G11G13
  25067858.123    25067864.929    14501939.356 9  11430313.895 8
  22314829.051    22314834.627   -17655602.228 9   9471265.228 8
  23861915.456    23861919.406   -19542296.804 9  30426687.758 8
  22172851.826    22172859.764    -4610815.748 9  -3264349.087 7
 90  3  8  6 17 44.0800000  0  4G 6G12G11G13
  25079081.503    25079088.510    14560919.387 9  11476272.343 8
  22311363.221    22311370.330   -17673815.267 8   9457073.258 7
  23868164.317    23868168.746   -19509460.928 9  30452274.158 8
  22173339.273    22173346.539    -4608254.936 8  -3262353.618 7
 90  3  8  6 17 59.0800000  0  4G 6G12G11G13
  25090317.281    25090322.293    14619957.968 8  11522276.396 8
  22307925.892    22307930.210   -17691887.532 9   9442990.971 7
  23874415.786    23874419.973   -19476606.232 9  30477875.214 8
  22173844.913    22173847.935    -4605613.021 9  -3260294.965 7
 90  3  8  6 18 14.0800000  0  4G 6G12G11G13
  25101562.555    25101569.161    14679054.789 8  11568325.837 8
  22304513.490    22304519.239   -17709818.691 9   9429018.627 8
  23880669.495    23880676.227   -19443732.966 8  30503490.727 8
  22174361.354    22174364.156    -4602890.079 9  -3258173.192 7
 90  3  8  6 18 29.0800000  0  4G 6G12G11G13
  25112820.347    25112825.535    14738209.165 8  11614420.115 8
  22301126.131    22301133.196   -17727608.829 9   9415156.189 7
  23886927.745    23886933.975   -19410841.534 7  30529120.399 8
  22174894.490    22174899.245    -4600086.633 8  -3255988.695 7
 90  3  8  6 18 44.0800000  0  4G 6G12G11G13
  25124086.574    25124093.947    14797420.801 8  11660559.029 7
  22297769.396    22297774.287   -17745257.658 9   9401403.863 7
  23893189.846    23893196.770   -19377932.140 8  30554764.062 8
  22175444.522    22175449.025    -4597202.805 9  -3253741.556 7
 90  3  8  6 18 59.0800000  0  4G 6G12G11G13
  25135366.774    25135371.453    14856689.376 8  11706742.289 7
  22294438.157    22294443.406   -17762764.851 9   9387761.895 8
  23899457.712    23899463.538   -19345004.933 8  30580421.588 8
  22176008.247    22176013.127    -4594238.916 9  -3251432.016 9
 90  3  8  6 19 14.0800000  0  4G 6G12G11G13
  25146655.382    25146660.951    14916014.484 9  11752969.612 8
  22291133.589    22291140.224   -17780130.255 9   9374230.410 8
  23905727.286    23905732.976   -19312060.278 7  30606092.758 8
  22176586.539    22176591.544    -4591195.233 9  -3249060.318 7
 90  3  8  6 19 29.0800000  0  4G 6G12G11G13
  25157953.720    25157959.713    14975395.717 9  11799240.662 8
  22287856.096    22287861.115   -17797353.662 9   9360809.569 8
  23911998.872    23912005.373   -19279098.400 9  30631777.349 9
  22177181.207    22177184.035    -4588071.742 9  -3246626.420 8
 90  3  8  6 19 44.0800000  0  4G 6G12G11G13
  25169265.147    25169270.914    15034832.567 8  11845555.049 7
  22284605.017    22284609.822   -17814434.955 9   9347499.462 7
  23918276.171    23918281.842   -19246119.622 9  30657475.074 9
  22177791.831    22177795.407    -4584868.855 9  -3244130.648 6
 90  3  8  6 19 59.0800000  0  4G 6G12G11G13
  25180587.422    25180591.832    15094324.759 9  11891912.588 7
  22281381.270    22281386.720   -17831373.727 9   9334300.416 8
  23924554.681    23924559.117   -19213123.923 9  30683185.998 9
  22178415.115    22178419.743    -4581586.569 9  -3241573.008 7
 90  3  8  6 20 14.0800000  0  4G 6G12G11G13
  25191917.497    25191923.230    15153871.965 9  11938312.981 7
  22278185.739    22278191.557   -17848169.731 9   9321212.609 8
  23930836.722    23930841.728   -19180111.438 9  30708910.002 8
  22179054.366    22179059.562    -4578225.262 9  -3238953.803 8
 90  3  8  6 20 29.0800000  0  4G 6G12G11G13
  25203259.547    25203264.859    15213473.842 8  11984755.977 7
  22275015.965    22275023.058   -17864822.667 9   9308236.303 7
  23937120.196    23937126.742   -19147082.330 8  30734646.956 9
  22179709.413    22179716.712    -4574785.125 9  -3236273.168 7
 90  3  8  6 20 44.0800000  0  4G 6G12G11G13
  25214612.558    25214618.356    15273130.222 9  12031241.441 7
  22271875.180    22271881.447   -17881332.140 9   9295371.784 7
  23943409.545    23943415.280   -19114036.688 9  30760396.796 9
  22180380.483    22180386.154    -4571266.007 9  -3233531.016 8
 90  3  8  6 20 59.0800000  0  4G 6G12G11G13
  25225975.269    25225981.099    15332840.616 9  12077769.002 7
  22268760.984    22268765.704   -17897698.041 9   9282619.126 7
  23949701.275    23949705.458   -19080974.848 9  30786159.277 8
  22181063.585    22181069.483    -4567668.462 9  -3230727.730 8
 90  3  8  6 21 14.0800000  0  4G 6G12G11G13
  25237347.832    25237353.694    15392604.412 9  12124338.166 7
  22265673.917    22265678.566   -17913920.423 9   9269978.323 7
  23955994.503    23956001.825   -19047897.134 9  30811934.129 8
  22181762.637    22181768.965    -4563992.765 9  -3227863.552 8
 90  3  8  6 21 29.0800000  0  4G 6G12G11G13
  25248730.434    25248735.800    15452421.338 9  12170948.731 8
  22262615.068    22262619.391   -17929998.906 9   9257449.641 8
  23962293.366    23962298.888   -19014803.626 9  30837721.273 9
  22182477.302    22182483.098    -4560238.789 9  -3224938.374 8
 90  3  8  6 21 44.0800000  0  4G 6G12G11G13
  25260123.642    25260129.523    15512291.280 9  12217600.604 8
  22259582.720    22259587.824   -17945933.060 9   9245033.422 7
  23968595.055    23968598.391   -18981694.377 9  30863520.692 8
  22183207.812    22183210.171    -4556406.883 9  -3221952.453 7
 90  3  8  6 21 59.0800000  0  4G 6G12G11G13
  25271524.250    25271533.397    15572213.769 9  12264293.412 8
  22256576.585    22256581.321   -17961722.645 9   9232729.850 7
  23974897.714    23974902.093   -18948569.571 8  30889332.229 8
  22183951.927    22183956.058    -4552497.267 9  -3218906.003 7
 90  3  8  6 22 14.0800000  0  4G 6G12G11G13
  25282937.199    25282945.115    15632188.467 7  12311026.897 8
  22253599.359    22253604.178   -17977367.528 8   9220539.030 6
  23981202.893    23981208.477   -18915429.535 9  30915155.621 8
  22184709.205    22184714.707    -4548509.859 9  -3215798.923 7
 90  3  8  6 22 29.0800000  0  4G 6G12G11G13
  25294360.153    25294367.222    15692214.841 7  12357800.652 8
  22250650.828    22250656.422   -17992867.587 9   9208461.053 7
  23987512.943    23987517.154   -18882274.466 9  30940990.751 9
  22185482.013    22185488.361    -4544445.317 9  -3212631.752 8
 90  3  8  6 22 44.0800000  0  4G 6G12G11G13
  25305792.860    25305798.775    15752292.208 8  12404614.162 7
  22247727.518    22247734.512   -18008222.881 9   9196495.876 7
  23993825.691    23993830.252   -18849104.888 9  30966837.174 9
  22186272.530    22186278.086    -4540304.084 9  -3209404.810 8
 90  3  8  6 22 59.0800000  0  4G 6G12G11G13
  25317234.164    25317241.387    15812420.518 8  12451467.370 9
  22244833.538    22244839.243   -18023432.880 9   9184643.940 7
  24000139.348    24000145.646   -18815920.759 8  30992694.924 9
  22187074.967    22187079.699    -4536086.367 9  -3206118.264 8
 90  3  8  6 23 14.0800000  0  4G 6G12G11G13
  25328686.434    25328693.403    15872599.645 8  12498360.179 8
  22241967.263    22241971.426   -18038497.181 8   9172905.526 7
  24006455.243    24006462.709   -18782721.895 9  31018564.139 9
  22187891.274    22187897.046    -4531791.679 9  -3202771.738 8
 90  3  8  6 23 29.0800000  0  4G 6G12G11G13
  25340148.166    25340155.157    15932829.350 9  12545292.406 8
  22239128.288    22239131.236   -18053415.635 9   9161280.753 6
  24012775.747    24012782.764   -18749508.400 9  31044444.787 9
  22188721.160    22188729.019    -4527420.128 8  -3199365.338 8
 90  3  8  6 23 44.0800000  0  4G 6G12G11G13
  25351618.603    25351625.732    15993108.919 9  12592263.479 8
  22236316.359    22236323.120   -18068188.119 9   9149769.730 7
  24019100.209    24019105.244   -18716280.717 9  31070336.485 9
  22189567.329    22189575.082    -4522972.354 8  -3195899.542 7
 90  3  8  6 23 59.0800000  0  4G 6G12G11G13
  25363098.536    25363105.396    16053438.382 9  12639273.426 8
  22233535.022    22233538.946   -18082814.053 9   9138372.897 7
  24025426.305    24025431.443   -18683038.741 9  31096239.334 8
  22190430.190    22190435.088    -4518448.144 9  -3192374.178 7
 90  3  8  6 24 14.0800000  0  4G 6G12G11G13
  25374589.024    25374594.673    16113817.005 7  12686321.685 7
  22230780.672    22230784.019   -18097293.646 9   9127090.109 7
  24031753.287    24031760.252   -18649782.921 9  31122152.938 9
  22191304.128    22191311.294    -4513848.050 7  -3188789.687 7
 90  3  8  6 24 29.0800000  0  4G 6G12G11G13
  25386086.997    25386094.324    16174244.401 8  12733407.916 8
  22228052.254    22228057.716   -18111626.709 9   9115921.483 7
  24038086.763    24038090.700   -18616513.612 9  31148077.051 9
  22192193.070    22192200.944    -4509172.185 8  -3185146.155 7
 90  3  8  6 24 44.0800000  0  4G 6G12G11G13
  25397595.606    25397601.422    16234720.019 8  12780531.741 8
  22225353.163    22225355.220   -18125813.068 9   9104867.174 7
  24044419.640    24044424.959   -18583230.924 9  31174011.626 7
  22193098.375    22193105.050    -4504420.780 9  -3181443.746 7
 90  3  8  6 24 59.0800000  0  4G 6G12G11G13
  25409112.851    25409120.218    16295244.032 8  12827693.251 7
  22222681.608    22222684.700   -18139852.114 9   9093927.679 8
  24050755.958    24050759.892   -18549934.736 9  31199956.727 8
  22194017.715    22194024.309    -4499593.944 9  -3177682.582 8
 90  3  8  6 25 14.0800000  0  3G12G11G13
  22220036.355    22220043.471   -18153743.890 6   9083102.909 5
  24057095.334    24057099.978   -18516625.401 7  31225912.055 4
  22194952.228    22194957.486    -4494692.003 7  -3173862.899 5
 90  3  8  6 25 29.0800000  0  4G 3G12G11G13
                  24783261.268   -32838756.304 9
  22217421.459    22217427.274   -18167488.332 8   9072392.957 8
  24063435.199    24063439.067   -18483303.154 9  31251877.445 8
  22195897.459    22195903.270    -4489715.217 9  -3169984.895 8
 90  3  8  6 25 44.0800000  0  4G 3G12G11G13
                  24777383.787   -32869817.553 7
  22214835.211    22214838.891   -18181085.125 9   9061798.046 7
  24069776.034    24069781.719   -18449968.141 8  31277852.774 8
  22196858.614    22196864.346    -4484663.726 9  -3166048.658 8
 90  3  8  6 25 59.0800000  0  4G 3G12G11G13
  24771486.660    24771491.368   -32900815.590 8  41819680.819 8
  22212274.747    22212277.517   -18194534.026 8   9051318.385 7
  24076121.959    24076128.230   -18416620.417 8  31303837.970 9
  22197834.947    22197839.463    -4479537.717 9  -3162054.344 7
 90  3  8  6 26 14.0800000  0  4G 3G12G11G13
  24765596.338    24765604.778   -32931751.000 8  41795575.342 8
  22209742.449    22209748.076   -18207835.001 8   9040953.981 7
  24082472.549    24082476.552   -18383260.340 9  31329832.818 8
  22198824.879    22198828.352    -4474337.474 9  -3158002.205 7
 90  3  8  6 26 29.0800000  0  4G 3G12G11G13
  24759722.524    24759730.585   -32962623.825 8  41771518.634 7
  22207240.856    22207246.870   -18220987.694 8   9030705.134 8
  24088823.056    24088827.535   -18349888.054 9  31355837.197 9
  22199828.682    22199832.543    -4469063.146 9  -3153892.340 7
 90  3  8  6 26 44.0800000  0  4G 3G12G11G13
  24753859.338    24753865.253   -32993434.355 9  41747510.467 7
  22204766.308    22204772.183   -18233992.052 9   9020571.858 8
  24095175.251    24095181.123   -18316503.831 9  31381850.872 7
  22200845.187    22200852.929    -4463715.035 8  -3149724.985 7
 90  3  8  6 26 59.0800000  0  4G 3G12G11G13
  24748010.330    24748014.559   -33024182.596 9  41723550.811 7
  22202319.808    22202325.009   -18246848.080 8   9010554.182 7
  24101531.022    24101534.647   -18283107.962 9  31407873.620 7
  22201876.197    22201881.612    -4458293.299 9  -3145500.253 7
 90  3  8  6 27 14.0800000  0  4G 3G12G11G13
  24742172.305    24742175.050   -33054868.648 8  41699639.611 7
  22199901.724    22199904.667   -18259555.335 9   9000652.416 7
  24107888.386    24107892.947   -18249700.614 9  31433905.344 7
  22202922.975    22202926.830    -4452798.367 9  -3141218.491 7
 90  3  8  6 27 29.0800000  0  4G 3G12G11G13
  24736342.173    24736348.868   -33085492.065 8  41675777.225 7
  22197512.117    22197516.946   -18272113.400 9   8990866.902 8
  24114246.520    24114252.088   -18216281.579 9  31459946.157 8
  22203983.245    22203988.409    -4447230.166 9  -3136879.621 8
 90  3  8  6 27 44.0800000  0  4G 3G12G11G13
  24730526.500    24730533.308   -33116053.088 8  41651963.462 7
  22195150.983    22195156.632   -18284522.340 9   8981197.600 8
  24120608.650    24120614.175   -18182851.163 9  31485995.817 8
  22205056.400    22205062.964    -4441589.104 9  -3132484.006 9
 90  3  8  6 27 59.0800000  0  4G 3G12G11G13
  24724723.785    24724730.313   -33146551.818 8  41628198.265 8
  22192818.354    22192823.653   -18296781.831 9   8971644.753 8
  24126972.355    24126977.543   -18149409.581 9  31512054.183 8
  22206142.458    22206148.774    -4435875.320 9  -3128031.691 8
 90  3  8  6 28 14.0800000  0  4G 3G12G11G13
  24718931.917    24718938.461   -33176988.345 8  41604481.523 7
  22190513.431    22190517.900   -18308892.144 8   8962208.146 8
  24133338.067    24133344.434   -18115957.475 9  31538120.751 9
  22207244.918    22207248.815    -4430089.385 9  -3123523.161 7
 90  3  8  6 28 29.0800000  0  4G 3G12G11G13
  24713152.285    24713157.968   -33207362.956 8  41580813.022 9
  22188237.525    22188242.279   -18320852.880 8   8952888.078 7
  24139706.439    24139711.664   -18082494.753 9  31564195.601 8
  22208358.017    22208362.260    -4424231.212 9  -3118958.335 8
 90  3  8  6 28 44.0800000  0  4G 3G12G11G13
  24707383.711    24707389.123   -33237675.094 8  41557193.196 7
  22185989.518    22185993.626   -18332663.762 9   8943684.774 8
  24146075.977    24146079.437   -18049021.418 9  31590278.729 8
  22209486.459    22209490.946    -4418301.046 9  -3114337.437 7
 90  3  8  6 28 59.0800000  0  4G 3G12G11G13
  24701628.051    24701632.515   -33267925.149 9  41533621.731 8
  22183771.303    22183775.516   -18344324.657 8   8934598.367 7
  24152447.794    24152451.985   -18015537.638 9  31616369.978 9
  22210627.443    22210634.586    -4412299.128 9  -3109660.600 8
 90  3  8  6 29 14.0800000  0  4G 3G12G11G13
  24695882.498    24695889.186   -33298113.254 7  41510098.542 8
  22181580.706    22181583.363   -18355835.492 9   8925628.893 7
  24158820.120    24158826.804   -17982043.827 9  31642469.038 7
  22211784.061    22211792.098    -4406225.598 9  -3104927.986 8
 90  3  8  6 29 29.0800000  0  4G 3G12G11G13
  24690146.647    24690156.206   -33328238.985 8  41486623.984 8
  22179418.473    22179423.715   -18367195.769 9   8916776.725 7
  24165196.116    24165201.088   -17948539.798 9  31668576.060 8
  22212954.518    22212960.688    -4400080.340 9  -3100139.480 6
 90  3  8  6 29 44.0800000  0  4G 3G12G11G13
  24684426.702    24684435.193   -33358302.695 8  41463197.756 9
  22177285.168    22177290.115   -18378405.602 8   8908041.788 8
  24171572.858    24171578.505   -17915025.955 8  31694690.748 7
  22214138.152    22214140.648    -4393864.066 9  -3095295.592 6
 90  3  8  6 29 59.0800000  0  4G 3G12G11G13
  24678718.960    24678726.692   -33388304.605 8  41439819.678 8
  22175179.368    22175185.528   -18389464.942 8   8899424.121 7
  24177953.174    24177956.885   -17881502.693 9  31720812.782 8
  22215333.842    22215336.263    -4387577.004 9  -3090396.577 8
 90  3  8  6 30 14.0800000  0  4G 3G12G11G13
  24673021.595    24673028.543   -33418244.249 8  41416490.107 8
  22173103.281    22173108.590   -18400373.260 7   8890924.152 7
  24184335.334    24184339.815   -17847969.731 9  31746942.357 7
  22216542.333    22216548.671    -4381218.945 9  -3085442.263 7
 90  3  8  6 30 29.0800000  0  4G 3G12G11G13
  24667336.685    24667341.724   -33448121.866 8  41393208.859 7
  22171056.688    22171061.676   -18411130.561 8   8882541.850 6
  24190718.249    24190721.760   -17814427.320 8  31773079.296 8
  22217764.997    22217773.468    -4374790.348 8  -3080432.973 8
 90  3  8  6 30 44.0800000  0  4G 3G12G11G13
  24661661.619    24661668.739   -33477937.300 8  41369976.070 7
  22169039.548    22169043.144   -18421736.464 8   8874277.496 6
  24197101.490    24197107.140   -17780875.536 8  31799223.522 9
  22219003.482    22219010.713    -4368291.124 9  -3075368.647 8
 90  3  8  6 30 59.0800000  0  4G 3G12G11G13
  24656000.674    24656007.577   -33507690.636 8  41346791.678 8
  22167049.738    22167055.745   -18432190.802 9   8866131.250 7
  24203486.466    24203493.278   -17747314.573 8  31825374.890 8
  22220255.718    22220261.076    -4361721.708 9  -3070249.624 7
 90  3  8  6 31 14.0800000  0  4G 3G12G11G13
  24650350.506    24650357.835   -33537382.091 8  41323655.510 8
  22165088.206    22165095.136   -18442493.607 8   8858103.104 8
  24209876.439    24209881.143   -17713744.894 9  31851533.063 8
  22221517.598    22221520.043    -4355082.466 9  -3065076.187 8
 90  3  8  6 31 29.0800000  0  4G 3G12G11G13
  24644712.444    24644718.477   -33567011.773 8  41300567.475 8
  22163156.266    22163161.817   -18452644.681 8   8850193.190 8
  24216265.705    24216271.550   -17680166.490 8  31877698.075 9
  22222794.054    22222796.618    -4348373.667 8  -3059848.553 7
 90  3  8  6 31 44.0800000  0  4G 3G12G11G13
  24639085.640    24639091.799   -33596579.689 8  41277527.558 9
  22161256.659    22161259.824   -18462643.984 9   8842401.531 7
  24222657.707    24222662.907   -17646579.753 8  31903869.544 8
  22224083.856    22224089.953    -4341595.542 8  -3054566.888 7
 90  3  8  6 31 59.0800000  0  4G 3G12G11G13
  24633469.603    24633475.765   -33626085.613 8  41254535.933 8
  22159382.697    22159385.353   -18472491.028 9   8834728.489 8
  24229050.056    24229057.680   -17612984.502 9  31930047.661 8
  22225387.519    22225394.309    -4334747.982 9  -3049231.121 7
 90  3  8  6 32 14.0800000  0  4G 3G12G11G13
  24627866.770    24627874.400   -33655529.780 9  41231592.452 7
  22157536.177    22157541.733   -18482185.831 9   8827174.100 7
  24235444.868    24235451.882   -17579380.978 8  31956232.215 8
  22226703.195    22226708.187    -4327831.297 9  -3043841.489 7
 90  3  8  6 32 29.0800000  0  4G 3G12G11G13
  24622277.319    24622282.359   -33684911.912 8  41208697.299 8
  22155720.311    22155725.383   -18491728.093 9   8819738.571 7
  24241842.096    24241847.636   -17545769.160 8  31982423.225 9
  22228031.416    22228037.664    -4320845.652 9  -3038398.131 7
 90  3  8  6 32 44.0800000  0  4G 3G12G11G13
  24616697.083    24616704.496   -33714232.526 9  41185850.087 8
  22153935.380    22153936.732   -18501118.057 9   8812421.743 7
  24248238.542    24248245.215   -17512149.531 9  32008620.344 9
  22229375.533    22229379.786    -4313791.449 8  -3032901.350 7
 90  3  8  6 32 59.0800000  0  4G 3G12G11G13
  24611129.405    24611136.040   -33743491.463 9  41163050.946 8
  22152178.951    22152182.598   -18510355.268 9   8805223.901 7
  24254637.806    24254644.262   -17478522.170 8  32034823.455 8
  22230731.072    22230733.815    -4306668.653 9  -3027351.117 8
 90  3  8  6 33 14.0800000  0  4G 3G12G11G13
  24605573.833    24605578.584   -33772688.539 9  41140300.001 7
  22150449.658    22150451.955   -18519439.510 9   8798145.243 7
  24261038.964    24261044.322   -17444887.183 8  32061032.517 9
  22232098.694    22232103.564    -4299477.518 9  -3021747.635 7
 90  3  8  6 33 29.0800000  0  4G 3G12G11G13
  24600029.874    24600032.950   -33801824.026 9  41117597.051 7
  22148747.599    22148752.798   -18528370.628 9   8791185.930 7
  24267440.225    24267445.877   -17411244.718 8  32087247.429 9
  22233478.657    22233485.356    -4292218.394 9  -3016091.164 8
 90  3  8  6 33 44.0800000  0  4G 3G12G11G13
  24594496.452    24594500.390   -33830897.901 9  41094942.085 7
  22147076.575    22147083.055   -18537148.590 9   8784345.972 8
  24273844.165    24273848.808   -17377595.006 8  32113467.981 9
  22234873.605    22234878.587    -4284891.492 9  -3010381.873 7
 90  3  8  6 33 59.0800000  0  4G 3G12G11G13
  24588974.449    24588978.819   -33859910.091 9  41072335.186 8
  22145437.150    22145439.310   -18545773.155 9   8777625.521 7
  24280248.398    24280254.234   -17343938.100 8  32139694.143 8
  22236282.311    22236285.982    -4277496.953 9  -3004619.875 6
 90  3  8  6 34 14.0800000  0  4G 3G12G11G13
  24583464.609    24583472.170   -33888860.814 9  41049776.198 7
  22143825.689    22143827.974   -18554244.309 9   8771024.622 7
  24286655.266    24286661.144   -17310274.330 8  32165925.629 9
  22237701.827    22237706.594    -4270035.042 9  -2998805.404 7
 90  3  8  6 34 29.0800000  0  4G 3G12G11G13
  24577968.122    24577973.966   -33917749.992 9  41027265.175 8
  22142241.854    22142245.970   -18562561.732 8   8764543.496 7
  24293061.532    24293067.345   -17276603.737 9  32192162.455 9
  22239134.703    22239140.263    -4262505.705 9  -2992938.413 8
 90  3  8  6 34 44.0800000  0  4G 3G12G11G13
  24572481.446    24572489.321   -33946577.878 8  41004801.921 8
  22140686.665    22140692.442   -18570725.696 8   8758181.960 7
  24299470.612    24299475.514   -17242926.627 9  32218404.342 9
  22240579.498    22240586.206    -4254909.725 9  -2987019.459 7
 90  3  8  6 34 59.0800000  0  4G 3G12G11G13
  24567008.048    24567013.997   -33975344.588 8  40982386.332 7
  22139164.121    22139169.588   -18578736.138 9   8751940.057 7
  24305879.753    24305885.743   -17209243.299 9  32244651.098 9
  22242036.647    22242043.267    -4247247.223 9  -2981048.676 7
 90  3  8  6 35 14.0800000  0  4G 3G12G11G13
  24561546.412    24561549.967   -34004050.162 9  40960018.370 7
  22137669.575    22137673.770   -18586592.765 9   8745817.995 7
  24312290.904    24312295.686   -17175553.860 8  32270902.598 9
  22243510.117    22243512.860    -4239518.334 9  -2975026.154 7
 90  3  8  6 35 29.0800000  0  4G 3G12G11G13
  24556095.732    24556099.842   -34032694.490 8  40937698.133 6
  22136202.632    22136207.686   -18594295.216 9   8739816.108 8
  24318702.308    24318707.757   -17141858.270 8  32297158.896 8
  22244991.789    22244997.382    -4231723.098 9  -2968951.951 7
 90  3  8  6 35 44.0800000  0  4G 3G12G11G13
  24550656.831    24550659.867   -34061277.588 8  40915425.621 8
  22134766.230    22134771.448   -18601843.366 8   8733934.438 8
  24325116.144    24325120.129   -17108156.728 8  32323419.840 8
  22246487.393    22246494.641    -4223861.732 8  -2962826.198 8
 90  3  8  6 35 59.0800000  0  4G 3G12G11G13
  24545228.502    24545232.606   -34089799.470 8  40893200.783 7
  22133360.316    22133364.777   -18609237.133 9   8728173.063 7
  24331529.639    24331535.571   -17074449.300 9  32349685.363 8
  22247995.569    22248001.526    -4215934.409 9  -2956649.050 7
 90  3  8  6 36 14.0800000  0  4G 3G12G11G13
  24539812.759    24539818.399   -34118260.066 8  40871023.735 7
  22131983.816    22131988.633   -18616476.204 9   8722532.208 7
  24337946.543    24337952.184   -17040736.210 9  32375955.300 9
  22249518.509    22249521.181    -4207941.365 9  -2950420.695 6
 90  3  8  6 36 29.0800000  0  4G 3G12G11G13
  24534409.396    24534412.349   -34146659.458 8  40848894.340 7
  22130634.500    22130638.164   -18623560.498 8   8717011.982 7
  24344362.294    24344370.030   -17007017.620 8  32402229.517 9
  22251051.481    22251053.505    -4199882.974 9  -2944141.426 6
 90  3  8  6 36 44.0800000  0  4G 3G12G11G13
  24529017.034    24529021.404   -34174997.847 9  40826812.509 8
  22129314.848    22129320.068   -18630490.085 8   8711612.308 8
  24350780.668    24350786.872   -16973293.706 8  32428507.891 9
  22252596.880    22252599.085    -4191759.467 9  -2937811.401 7
 90  3  8  6 36 59.0800000  0  4G 3G12G11G13
  24523634.803    24523640.673   -34203275.056 9  40804778.339 8
  22128025.290    22128033.665   -18637264.564 8   8706333.496 8
  24357197.408    24357205.662   -16939564.393 8  32454790.450 8
  22254154.524    22254159.857    -4183570.674 9  -2931430.510 7
 90  3  8  6 37 14.0800000  0  4G 3G12G11G13
  24518266.824    24518269.480   -34231491.177 9  40782791.778 8
  22126767.405    22126772.887   -18643883.803 9   8701175.634 7
  24363615.986    24363625.309   -16905829.807 7  32481077.112 9
  22255725.805    22255731.177    -4175316.881 8  -2924998.978 7
 90  3  8  6 37 29.0800000  0  4G 3G12G11G13
  24512907.929    24512911.538   -34259646.464 9  40760852.619 7
  22125536.696    22125541.005   -18650347.980 9   8696138.607 7
  24370038.651    24370044.841   -16872090.417 8  32507367.545 8
  22257308.743    22257311.461    -4166998.816 8  -2918517.361 6
 90  3  8  6 37 44.0800000  0  4G 3G12G11G13
  24507562.845    24507564.917   -34287740.749 8  40738960.963 8
  22124335.239    22124343.403   -18656656.885 9   8691222.576 7
  24376458.924    24376466.777   -16838346.320 8  32533661.662 9
  22258902.738    22258908.383    -4158616.374 9  -2911985.563 7
 90  3  8  6 37 59.0800000  0  4G 3G12G11G13
  24502228.504    24502232.373   -34315774.111 9  40717116.799 7
  22123163.205    22123171.770   -18662810.248 8   8686427.728 7
  24382878.387    24382888.343   -16804597.489 8  32559959.464 8
  22260511.630    22260517.103    -4150169.584 8  -2905403.649 7
 90  3  8  6 38 14.0800000  0  4G 3G12G11G13
  24496906.704    24496908.850   -34343746.578 8  40695320.089 7
  22122023.621    22122029.275   -18668808.065 9   8681754.118 8
  24389302.983    24389311.914   -16770844.055 8  32586260.819 9
  22262130.553    22262136.700    -4141658.635 9  -2898771.759 8
 90  3  8  6 38 29.0800000  0  4G 3G12G11G13
  24491594.101    24491598.377   -34371658.054 9  40673570.907 8
  22120912.761    22120917.148   -18674650.055 9   8677201.899 7
  24395728.215    24395733.992   -16737086.096 8  32612565.709 8
  22263762.379    22263768.789    -4133083.808 8  -2892090.083 8
 90  3  8  6 38 44.0800000  0  4G 3G12G11G13
  24486293.455    24486298.029   -34399508.889 9  40651868.988 7
  22119829.060    22119835.794   -18680336.280 8   8672771.057 8
  24402151.270    24402158.277   -16703323.888 7  32638873.925 8
  22265405.771    22265412.546    -4124445.504 9  -2885358.934 7
 90  3  8  6 38 59.0800000  0  4G 3G12G11G13
  24481004.875    24481009.551   -34427299.290 8  40630214.174 8
  22118776.348    22118785.204   -18685866.808 8   8668461.556 8
  24408577.639    24408583.415   -16669557.772 6  32665185.163 9
  22267061.557    22267066.438    -4115744.065 9  -2878578.598 7
 90  3  8  6 39 14.0800000  0  4G 3G12G11G13
  24475727.331    24475732.081   -34455028.817 8  40608606.774 8
  22117755.257    22117762.837   -18691241.165 9   8664273.743 7
  24415001.322    24415010.562   -16635787.583 7  32691499.575 9
  22268729.743    22268736.376    -4106979.520 9  -2871749.124 7
 90  3  8  6 39 29.0800000  0  4G 3G12G11G13
  24470461.491    24470465.414   -34482698.123 9  40587046.302 7
  22116762.959    22116767.806   -18696459.499 8   8660207.497 8
  24421430.113    24421437.706   -16602013.914 7  32717816.696 8
  22270409.692    22270416.842    -4098152.057 9  -2864870.596 7
 90  3  8  6 39 44.0800000  0  4G 3G12G11G13
  24465209.107    24465212.827   -34510306.404 9  40565533.365 8
  22115798.167    22115803.069   -18701521.369 9   8656263.169 8
  24427858.889    24427864.822   -16568236.281 7  32744136.919 8
  22272101.173    22272110.249    -4089261.576 9  -2857942.952 8
 90  3  8  6 39 59.0800000  0  4G 3G12G11G13
  24459967.513    24459972.146   -34537854.138 8  40544067.621 8
  22114865.027    22114871.173   -18706426.957 9   8652440.642 7
  24434285.231    24434293.716   -16534455.193 7  32770459.840 9
  22273805.309    22273809.161    -4080308.601 9  -2850966.565 7
 90  3  8  6 40 14.0800000  0  4G 3G12G11G13
  24454734.979    24454741.538   -34565341.466 9  40522648.933 7
  22113962.579    22113968.795   -18711176.203 8   8648739.934 7
  24440714.656    24440722.290   -16500670.884 7  32796785.266 8
  22275522.494    22275523.967    -4071293.355 9  -2843941.675 8
 90  3  8  6 40 29.0800000  0  4G 3G12G11G13
  24449516.279    24449522.349   -34592768.590 9  40501277.163 8
  22113087.555    22113094.990   -18715769.027 8   8645161.099 7
  24447145.595    24447151.528   -16466883.634 7  32823112.963 7
  22277249.516    22277250.774    -4062216.280 9  -2836868.633 7
 90  3  8  6 40 44.0800000  0  4G 3G12G11G13
  24444308.918    24444314.259   -34620135.601 9  40479952.243 8
  22112243.962    22112249.735   -18720205.258 8   8641704.314 8
  24453573.985    24453581.190   -16433093.288 7  32849443.086 8
  22278987.478    22278990.364    -4053077.277 9  -2829747.319 6
 90  3  8  6 40 59.0800000  0  4G 3G12G11G13
  24439113.868    24439117.620   -34647442.110 8  40458674.462 7
  22111430.067    22111434.223   -18724484.691 8   8638369.708 7
  24460007.769    24460013.117   -16399299.963 8  32875775.532 8
  22280736.625    22280743.151    -4043876.604 9  -2822577.968 7
 90  3  8  6 41 14.0800000  0  4G 3G12G11G13
  24433928.870    24433934.743   -34674688.100 9  40437443.840 7
  22110646.327    22110649.327   -18728606.944 9   8635157.559 8
  24466439.397    24466443.236   -16365503.600 9  32902110.365 7
  22282499.213    22282504.589    -4034614.256 9  -2815360.528 6
 90  3  8  6 41 29.0800000  0  4G 3G12G11G13
  24428753.298    24428760.435   -34701873.845 9  40416260.167 8
  22109890.676    22109894.500   -18732572.124 9   8632067.797 7
  24472869.988    24472873.422   -16331704.669 9  32928447.193 7
  22284275.276    22284278.534    -4025290.577 9  -2808095.304 6
 90  3  8  6 41 44.0800000  0  4G 3G12G11G13
  24423592.293    24423598.105   -34728999.556 8  40395123.269 8
  22109165.576    22109171.915   -18736380.300 9   8629100.397 8
  24479302.698    24479306.710   -16297903.266 8  32954785.935 7
  22286061.900    22286065.156    -4015906.070 9  -2800782.709 7
 90  3  8  6 41 59.0800000  0  4G 3G12G11G13
  24418441.762    24418448.339   -34756065.232 8  40374033.136 8
  22108472.323    22108475.280   -18740031.268 9   8626255.489 8
  24485736.265    24485740.099   -16264099.586 8  32981126.464 7
  22287858.721    22287863.460    -4006460.893 9  -2793422.838 7
 90  3  8  6 42 14.0800000  0  4G 3G12G11G13
  24413303.755    24413310.314   -34783070.874 9  40352989.800 7
  22107806.683    22107811.360   -18743524.911 9   8623533.141 7
  24492168.951    24492172.626   -16230293.635 9  33007468.791 8
  22289666.662    22289672.607    -3996954.928 9  -2786015.585 7
 90  3  8  6 42 29.0800000  0  4G 3G12G11G13
  24408174.969    24408182.017   -34810016.412 9  40331993.303 8
  22107170.079    22107174.807   -18746861.022 9   8620933.546 7
  24498600.790    24498605.862   -16196485.522 8  33033812.766 8
  22291485.824    22291491.860    -3987388.514 8  -2778561.240 6
 90  3  8  6 42 44.0800000  0  4G 3G12G11G13
  24403058.328    24403064.314   -34836902.045 9  40311043.484 7
  22106566.729    22106567.649   -18750039.629 8   8618456.715 7
  24505035.149    24505040.309   -16162675.438 8  33060158.280 8
  22293318.428    22293324.511    -3977761.933 8  -2771060.011 7
 90  3  8  6 42 59.0800000  0  4G 3G12G11G13
  24397954.514    24397959.364   -34863727.574 9  40290140.501 8
  22105992.841    22105996.246   -18753060.628 9   8616102.705 7
  24511471.722    24511475.837   -16128863.240 8  33086505.450 8
  22295164.057    22295166.302    -3968075.424 9  -2763512.062 7
 90  3  8  6 43 14.0800000  0  4G 3G12G11G13
  24392862.170    24392866.248   -34890493.125 8  40269284.235 7
  22105446.294    22105452.764   -18755923.704 9   8613871.715 8
  24517905.545    24517910.109   -16095049.091 8  33112854.125 8
  22297017.329    22297021.186    -3958328.882 9  -2755917.340 8
 90  3  8  6 43 29.0800000  0  4G 3G12G11G13
  24387778.165    24387784.038   -34917198.658 9  40248474.743 8
  22104931.523    22104935.825   -18758628.887 9   8611763.790 8
  24524341.310    24524345.378   -16061233.279 8  33139204.086 8
  22298880.805    22298888.690    -3948522.621 9  -2748276.120 8
 90  3  8  6 43 44.0800000  0  4G 3G12G11G13
  24382708.309    24382713.925   -34943845.105 8  40227711.300 7
  22104447.148    22104448.842   -18761176.909 9   8609778.294 6
  24530775.390    24530780.454   -16027416.638 7  33165554.681 8
  22300760.180    22300764.885    -3938657.492 9  -2740589.009 6
 90  3  8  6 43 59.0800000  0  4G 3G12G11G13
  24377650.268    24377656.221   -34970432.020 9  40206994.264 8
  22103992.376    22103992.871   -18763567.378 9   8607915.606 7
  24537211.384    24537216.557   -15993598.921 8  33191906.134 8
  22302648.540    22302652.803    -3928733.371 9  -2732855.936 6
 90  3  8  6 44 14.0800000  0  4G 3G12G11G13
  24372603.175    24372606.667   -34996959.179 9  40186323.778 8
  22103567.643    22103572.116   -18765799.807 9   8606176.061 6
  24543645.681    24543652.004   -15959779.939 9  33218258.586 8
  22304549.298    22304550.363    -3918750.227 9  -2725076.824 7
 90  3  8  6 44 29.0800000  0  4G 3G12G11G13
  24367564.217    24367570.853   -35023426.937 8  40165699.572 8
  22103173.044    22103178.137   -18767874.246 8   8604559.611 8
  24550080.516    24550087.530   -15925959.769 8  33244611.963 8
  22306458.111    22306462.035    -3908708.211 9  -2717251.861 7
 90  3  8  6 44 44.0800000  0  4G 3G12G11G13
  24362539.767    24362544.806   -35049834.863 9  40145121.994 7
  22102808.045    22102812.844   -18769790.398 9   8603066.500 8
  24556514.925    24556522.923   -15892138.514 7  33270966.158 8
  22308379.589    22308385.396    -3898607.544 9  -2709381.206 7
 90  3  8  6 44 59.0800000  0  4G 3G12G11G13
  24357524.172    24357530.731   -35076183.500 8  40124590.620 7
  22102472.980    22102475.095   -18771548.384 9   8601696.628 7
  24562951.569    24562958.684   -15858316.444 7  33297320.988 7
  22310314.011    22310320.347    -3888448.507 9  -2701465.101 7
 90  3  8  6 45 14.0800000  0  4G 3G12G11G13
  24352524.197    24352527.783   -35102472.404 9  40104105.770 8
  22102169.326    22102172.443   -18773148.009 9   8600450.176 6
  24569388.519    24569396.042   -15824493.478 8  33323676.516 8
  22312260.814    22312265.271    -3878230.984 9  -2693503.402 7
 90  3  8  6 45 29.0800000  0  4G 3G12G11G13
  24347531.989    24347535.890   -35128701.608 8  40083667.452 8
  22101895.538    22101899.863   -18774588.977 9   8599327.323 7
  24575825.222    24575832.172   -15790669.508 8  33350032.837 8
  22314216.248    22314221.254    -3867955.439 9  -2685496.484 8
 90  3  8  6 45 44.0800000  0  4G 3G12G11G13
  24342551.097    24342556.502   -35154871.494 8  40063275.348 8
  22101652.020    22101657.460   -18775871.457 9   8598327.976 8
  24582264.215    24582267.676   -15756845.110 9  33376389.535 8
  22316182.016    22316186.963    -3857622.397 9  -2677444.738 7
 90  3  8  6 45 59.0800000  0  4G 3G12G11G13
  24337581.148    24337588.857   -35180982.262 9  40042929.303 8
  22101436.339    22101442.275   -18776995.555 9   8597452.045 7
  24588700.005    24588704.008   -15723020.577 9  33402746.321 8
  22318160.333    22318161.581    -3847231.779 9  -2669348.123 8
 90  3  8  6 46 14.0800000  0  4G 3G12G11G13
  24332624.449    24332630.413   -35207033.849 9  40022629.385 8
  22101251.664    22101256.660   -18777961.076 9   8596699.693 6
  24595136.134    24595140.767   -15689195.741 9  33429103.339 8
  22320148.203    22320152.113    -3836783.819 9  -2661206.855 7
 90  3  8  6 46 29.0800000  0  4G 3G12G11G13
  24327677.413    24327684.261   -35233026.580 9  40002375.333 7
  22101099.634    22101103.078   -18778767.995 8   8596070.918 7
  24601572.197    24601576.474   -15655370.946 9  33455460.328 8
  22322146.165    22322152.530    -3826278.721 9  -2653021.083 8
 90  3  8  6 46 44.0800000  0  4G 3G12G11G13
  24322744.742    24322749.298   -35258959.983 9  39982167.505 7
  22100976.723    22100979.859   -18779416.207 8   8595565.812 6
  24608007.598    24608013.634   -15621546.169 8  33481817.302 8
  22324155.395    22324161.106    -3815716.715 9  -2644790.959 8
 90  3  8  6 46 59.0800000  0  4G 3G12G11G13
  24317820.617    24317827.191   -35284834.478 9  39962005.591 8
  22100883.033    22100884.877   -18779905.512 9   8595184.524 6
  24614444.173    24614450.253   -15587721.415 9  33508174.250 8
  22326175.627    22326182.409    -3805097.983 9  -2636516.625 7
 90  3  8  6 47 14.0800000  0  4G 3G12G11G13
  24312909.055    24312913.291   -35310650.337 8  39941889.357 8
  22100818.977    22100823.753   -18780236.388 9   8594926.686 7
  24620881.548    24620888.042   -15553897.267 8  33534530.716 8
  22328207.138    22328213.794    -3794423.084 8  -2628198.529 7
 90  3  8  6 47 29.0800000  0  4G 3G12G11G13
  24308008.461    24308012.316   -35336407.336 8  39921818.994 8
  22100786.947    22100792.554   -18780408.528 9   8594792.565 6
  24627317.400    24627323.720   -15520073.648 8  33560886.796 7
  22330249.022    22330254.384    -3783692.092 9  -2619836.715 6
 90  3  8  6 47 44.0800000  0  4G 3G12G11G13
  24303116.205    24303121.657   -35362106.099 9  39901794.003 8
  22100784.974    22100788.893   -18780422.224 9   8594781.886 7
  24633753.918    24633760.334   -15486250.891 6  33587242.194 8
  22332301.854    22332306.691    -3772905.368 9  -2611431.474 8
 90  3  8  6 47 59.0800000  0  4G 3G12G11G13
  24298237.326    24298241.206   -35387745.801 9  39881815.029 8
  22100813.244    22100816.513   -18780276.818 9   8594895.182 7
  24640189.530    24640197.667   -15452428.706 7  33613597.136 8
  22334365.347    22334370.095    -3762062.881 9  -2602982.768 8
 90  3  8  6 48 14.0800000  0  4G 3G12G11G13
  24293369.219    24293373.955   -35413326.831 8  39861881.765 7
  22100870.329    22100875.491   -18779972.350 9   8595132.417 7
  24646626.062    24646633.796   -15418607.260 9  33639951.506 8
  22336439.128    22336443.872    -3751164.714 9  -2594490.696 7
 90  3  8  6 48 29.0800000  0  4G 3G12G11G13
  24288513.125    24288516.013   -35438849.348 9  39841994.117 7
  22100959.335    22100963.746   -18779508.937 9   8595493.527 7
  24653061.834    24653068.930   -15384786.731 8  33666305.143 8
  22338523.910    22338525.791    -3740211.215 9  -2585955.488 7
 90  3  8  6 48 44.0800000  0  4G 3G12G11G13
  24283666.196    24283670.694   -35464313.237 9  39822152.166 7
  22101077.868    22101082.475   -18778886.334 9   8595978.669 7
  24659500.799    24659504.661   -15350967.224 9  33692658.019 8
  22340618.137    22340620.819    -3729202.075 8  -2577376.933 6
 90  3  8  6 48 59.0800000  0  4G 3G12G11G13
  24278831.263    24278837.659   -35489718.771 9  39802355.674 8
  22101225.579    22101230.127   -18778104.887 9   8596587.582 7
  24665935.130    24665939.475   -15317149.139 9  33719009.799 8
  22342725.255    22342726.783    -3718138.008 9  -2568755.602 7
 90  3  8  6 49 14.0800000  0  4G 3G12G11G13
  24274007.771    24274012.948   -35515066.074 8  39782604.528 7
  22101404.019    22101409.346   -18777164.431 8   8597320.380 7
  24672369.542    24672374.172   -15283332.306 7  33745360.576 8
  22344840.007    22344843.497    -3707019.239 9  -2560091.598 6
 90  3  8  6 49 29.0800000  0  4G 3G12G11G13
  24269195.115    24269198.478   -35540355.080 9  39762898.831 8
  22101612.340    22101620.694   -18776064.830 9   8598177.188 7
  24678802.656    24678809.132   -15249516.781 6  33771710.303 8
  22346966.258    22346971.631    -3695846.003 9  -2551385.178 8
 90  3  8  6 49 44.0800000  0  4G 3G12G11G13
  24264394.106    24264398.173   -35565585.979 8  39743238.418 7
  22101853.023    22101860.461   -18774806.180 9   8599157.946 7
  24685237.732    24685243.490   -15215702.916 7  33798058.771 9
  22349102.487    22349109.838    -3684618.596 9  -2542636.518 8
 90  3  8  6 49 59.0800000  0  4G 3G12G11G13
  24259604.585    24259610.592   -35590758.658 8  39723623.362 8
  22102122.674    22102126.712   -18773388.248 9   8600262.838 7
  24691671.958    24691677.564   -15181890.620 7  33824406.010 8
  22351248.158    22351254.786    -3673336.938 7  -2533845.619 9
 90  3  8  6 50 14.0800000  0  4G 3G12G11G13
  24254827.690    24254829.662   -35615873.180 9  39704053.624 7
  22102423.142    22102427.283   -18771810.969 9   8601491.893 7
  24698103.541    24698112.836   -15148079.991 5  33850751.934 9
  22353403.643    22353411.735    -3662001.185 9  -2525012.578 7
 90  3  8  6 50 29.0800000  0  4G 3G12G11G13
  24250057.372    24250062.100   -35640929.571 8  39684529.176 8
  22102753.692    22102759.104   -18770074.441 9   8602845.037 7
  24704534.063    24704546.365   -15114271.288 4  33877096.343 9
  22355572.649    22355577.762    -3650611.777 9  -2516137.733 7
 90  3  8  6 50 44.0800000  0  4G 3G12G11G13
  24245300.973    24245304.986   -35665928.221 8  39665049.723 8
  22103114.979    22103119.329   -18768178.721 8   8604322.240 7
  24710969.549    24710979.088   -15080464.568 5  33903439.185 9
  22357752.232    22357755.290    -3639168.921 9  -2507221.224 7
 90  3  8  6 50 59.0800000  0  4G 3G12G11G13
  24240555.084    24240558.575   -35690868.756 8  39645615.565 8
  22103506.286    22103510.714   -18766123.483 9   8605923.697 7
  24717404.543    24717411.760   -15046659.793 7  33929780.556 8
  22359940.105    22359944.800    -3627672.827 9  -2498263.241 7
 90  3  8  6 51 14.0800000  0  4G 3G12G11G13
  24235820.395    24235823.850   -35715751.474 8  39626226.470 8
  22103926.464    22103930.810   -18763908.806 9   8607649.411 7
  24723839.480    24723845.085   -15012857.296 7  33956120.161 9
  22362138.015    22362142.012    -3616123.544 9  -2489263.787 8
 90  3  8  6 51 29.0800000  0  4G 3G12G11G13
  24231097.028    24231101.290   -35740576.751 9  39606882.113 8
  22104377.980    22104383.098   -18761534.797 8   8609499.291 6
  24730271.003    24730277.496   -14979057.419 7  33982457.713 9
  22364343.742    22364349.895    -3604521.623 9  -2480223.331 8
 90  3  8  6 51 44.0800000  0  4G 3G12G11G13
  24226383.243    24226387.896   -35765344.062 9  39587582.926 8
  22104861.246    22104864.609   -18759001.224 9   8611473.502 7
  24736701.810    24736708.763   -14945259.893 8  34008793.442 9
  22366562.615    22366567.663    -3592866.667 9  -2471141.544 8
 90  3  8  6 51 59.0800000  0  4G 3G12G11G13
  24221680.773    24221683.927   -35790053.905 9  39568328.512 8
  22105373.095    22105378.551   -18756308.369 9   8613571.838 8
  24743132.363    24743138.655   -14911465.083 8  34035127.057 9
  22368791.113    22368795.509    -3581159.283 9  -2462018.900 7
 90  3  8  6 52 14.0800000  0  4G 3G12G11G13
  24216990.088    24216993.402   -35814706.236 9  39549118.920 8
  22105915.837    22105919.126   -18753455.937 8   8615794.486 7
  24749561.068    24749569.150   -14877672.747 7  34061458.746 8
  22371028.673    22371033.869    -3569399.693 9  -2452855.606 8
 90  3  8  6 52 29.0800000  0  4G 3G12G11G13
  24212309.860    24212315.255   -35839300.882 9  39529954.293 8
  22106490.048    22106492.848   -18750443.942 9   8618141.503 7
  24755992.134    24755999.815   -14843883.144 8  34087788.292 8
  22373276.075    22373281.841    -3557587.862 9  -2443651.600 8
 90  3  8  6 52 44.0800000  0  4G 3G12G11G13
  24207639.632    24207646.209   -35863838.275 8  39510834.273 8
  22107093.585    22107096.014   -18747272.478 9   8620612.781 8
  24762421.683    24762427.845   -14810096.404 8  34114115.614 8
  22375532.886    22375539.896    -3545724.087 8  -2434407.093 6
 90  3  8  6 52 59.0800000  0  4G 3G12G11G13
  24202981.051    24202987.182   -35888318.274 9  39491758.963 8
  22107726.623    22107729.478   -18743941.489 9   8623208.342 8
  24768852.077    24768858.084   -14776312.587 9  34140440.659 8
  22377800.327    22377806.771    -3533808.652 8  -2425122.354 7
 90  3  8  6 53 14.0800000  0  4G 3G12G11G13
  24198335.120    24198339.733   -35912741.150 8  39472728.159 7
  22108391.359    22108394.174   -18740450.892 8   8625928.300 8
  24775280.669    24775285.798   -14742531.855 8  34166763.283 8
  22380078.067    22380081.012    -3521841.761 9  -2415797.474 7
 90  3  8  6 53 29.0800000  0  4G 3G12G11G13
  24193697.121    24193702.645   -35937106.725 8  39453742.004 8
  22109085.186    22109088.884   -18736800.691 8   8628772.611 7
  24781706.682    24781712.948   -14708754.257 9  34193083.484 9
  22382366.124    22382367.483    -3509823.633 9  -2406432.693 7
 90  3  8  6 53 44.0800000  0  4G 3G12G11G13
  24189071.178    24189075.965   -35961415.091 8  39434800.447 8
  22109809.745    22109815.425   -18732990.904 8   8631741.274 7
  24788135.732    24788140.835   -14674979.773 9  34219401.255 8
  22384661.178    22384664.777    -3497754.323 9  -2397028.017 7
 90  3  8  6 53 59.0800000  0  4G 3G12G11G13
  24184457.344    24184461.923   -35985666.601 9  39415903.172 8
  22110565.966    22110571.087   -18729021.767 9   8634834.099 8
  24794562.333    24794568.153   -14641208.818 9  34245716.275 8
  22386967.629    22386971.169    -3485634.167 9  -2387583.763 7
 90  3  8  6 54 14.0800000  0  4G 3G12G11G13
  24179854.100    24179857.641   -36009861.030 9  39397050.411 8
  22111352.618    22111354.313   -18724892.969 8   8638051.336 7
  24800987.946    24800994.269   -14607441.229 9  34272028.681 8
  22389283.451    22389288.368    -3473463.345 8  -2378100.029 6
 90  3  8  6 54 29.0800000  0  4G 3G12G11G13
  24175259.682    24175262.309   -36033998.628 9  39378241.930 8
  22112166.856    22112171.932   -18720604.535 9   8641392.962 7
  24807412.234    24807418.952   -14573677.121 8  34298338.343 9
  22391609.547    22391614.921    -3461241.833 8  -2368576.777 8
 90  3  8  6 54 44.0800000  0  4G 3G12G11G13
  24170677.421    24170681.078   -36058079.284 8  39359477.802 7
  22113013.670    22113019.394   -18716156.538 9   8644858.926 7
  24813836.642    24813842.609   -14539916.660 9  34324645.190 8
  22393944.287    22393951.097    -3448970.089 9  -2359014.363 7
 90  3  8  6 54 59.0800000  0  4G 3G12G11G13
  24166105.531    24166110.233   -36082103.262 9  39340757.813 7
  22113892.111    22113894.362   -18711548.949 8   8648449.269 7
  24820259.868    24820266.233   -14506159.957 8  34350949.114 8
  22396291.083    22396295.036    -3436648.199 9  -2349412.895 7
 90  3  8  6 55 14.0800000  0  4G 3G12G11G13
  24161545.169    24161550.981   -36106070.456 8  39322082.101 7
  22114798.332    22114801.665   -18706781.936 9   8652163.827 7
  24826684.107    24826689.484   -14472407.201 9  34377249.966 8
  22398645.075    22398648.029    -3424276.629 9  -2339772.689 8
 90  3  8  6 55 29.0800000  0  4G 3G12G11G13
  24156994.868    24156998.737   -36129981.116 8  39303450.443 8
  22115735.338    22115737.970   -18701855.331 9   8656002.724 7
  24833105.132    24833110.243   -14438658.343 9  34403547.767 8
  22401006.439    22401012.170    -3411855.111 9  -2330093.576 7
 90  3  8  6 55 44.0800000  0  4G 3G12G11G13
  24152455.432    24152458.623   -36153835.485 8  39284862.648 8
  22116703.591    22116707.541   -18696769.495 9   8659965.726 7
  24839526.410    24839531.010   -14404913.983 9  34429842.047 8
  22403379.739    22403385.759    -3399384.393 9  -2320376.119 7
 90  3  8  6 55 59.0800000  0  4G 3G12G11G13
  24147922.892    24147931.412   -36177633.738 8  39266318.563 8
  22117702.601    22117704.772   -18691524.189 8   8664052.964 7
  24845947.160    24845952.545   -14371173.870 9  34456133.023 7
  22405762.465    22405767.719    -3386864.520 9  -2310620.369 6
 90  3  8  6 56 14.0800000  0  4G 3G12G11G13
  24143407.140    24143413.711   -36201375.328 9  39247818.649 8
  22118730.921    22118732.728   -18686119.033 9   8668264.764 7
  24852367.205    24852372.539   -14337437.856 9  34482420.810 7
  22408154.160    22408158.358    -3374295.420 9  -2300826.260 7
 90  3  8  6 56 29.0800000  0  4G 3G12G11G13
  24138900.649    24138906.040   -36225060.724 9  39229362.529 9
  22119786.436    22119791.788   -18680554.278 8   8672600.931 8
  24858786.453    24858790.785   -14303706.127 8  34508705.270 7
  22410553.363    22410561.085    -3361677.352 8  -2290994.030 7
 90  3  8  6 56 44.0800000  0  4G 3G12G11G13
  24134404.930    24134410.401   -36248689.569 8  39210950.448 8
  22120876.955    22120882.081   -18674829.941 9   8677061.431 6
  24865204.740    24865207.654   -14269978.783 9  34534986.316 8
  22412963.378    22412971.760    -3349010.405 8  -2281123.682 8
 90  3  8  6 56 59.0800000  0  4G 3G12G11G13
  24129918.575    24129924.547   -36272262.373 8  39192582.037 7
  22121998.142    22122002.516   -18668946.082 8   8681646.247 8
  24871620.940    24871625.642   -14236256.100 8  34561263.738 8
  22415384.084    22415392.573    -3336294.761 8  -2271215.406 9
 90  3  8  6 57 14.0800000  0  4G 3G12G11G13
  24125441.646    24125448.277   -36295779.091 8  39174257.368 8
  22123146.206    22123153.188   -18662902.763 8   8686355.324 8
  24878037.122    24878042.712   -14202538.069 9  34587537.538 7
  22417815.037    22417820.861    -3323530.949 9  -2261269.581 7
 90  3  8  6 57 29.0800000  0  4G 3G12G11G13
  24120978.998    24120984.078   -36319240.141 8  39155976.071 7
  22124327.260    22124334.069   -18656700.161 9   8691188.508 8
  24884452.464    24884458.700   -14168824.898 8  34613807.527 7
  22420253.123    22420259.733    -3310719.134 9  -2251286.329 7
 90  3  8  6 57 44.0800000  0  4G 3G12G11G13
  24116527.357    24116530.814   -36342645.337 9  39137738.274 8
  22125538.967    22125544.217   -18650338.334 8   8696145.766 8
  24890868.007    24890872.359   -14135116.691 9  34640073.657 7
  22422698.860    22422703.925    -3297859.609 9  -2241265.918 7
 90  3  8  6 57 59.0800000  0  4G 3G12G11G13
  24112081.915    24112086.743   -36365994.629 9  39119544.015 9
  22126778.715    22126784.429   -18643817.062 9   8701227.283 7
  24897281.769    24897285.745   -14101413.411 8  34666335.937 7
  22425154.807    22425158.878    -3284952.438 9  -2231208.377 7
 90  3  8  6 58 14.0800000  0  4G 3G12G11G13
  24107647.897    24107655.552   -36389288.170 9  39101393.226 8
  22128049.658    22128055.949   -18637136.257 9   8706433.116 7
  24903693.150    24903699.355   -14067715.033 8  34692594.413 7
  22427620.752    22427624.515    -3271997.665 9  -2221113.740 7
 90  3  8  6 58 29.0800000  0  4G 3G12G11G13
  24103227.461    24103235.117   -36412526.004 9  39083285.857 8
  22129353.616    22129357.228   -18630296.101 8   8711763.091 7
  24910105.371    24910111.101   -14034021.689 9  34718848.949 8
  22430096.926    22430099.376    -3258995.440 9  -2210982.135 8
 90  3  8  6 58 44.0800000  0  4G 3G12G11G13
  24098816.956    24098820.722   -36435708.264 9  39065221.790 7
  22130684.673    22130689.592   -18623296.656 7   8717217.213 7
  24916514.886    24916522.166   -14000333.502 8  34745099.456 8
  22432580.010    22432585.830    -3245945.881 9  -2200813.650 8
 90  3  8  6 58 59.0800000  0  4G 3G12G11G13
  24094414.035    24094418.949   -36458834.761 8  39047201.135 7
  22132044.942    22132052.113   -18616137.692 8   8722795.621 8
  24922925.574    24922932.741   -13966650.438 9  34771345.982 8
  22435072.054    22435077.924    -3232849.150 9  -2190608.398 8
 90  3  8  6 59 14.0800000  0  4G 3G12G11G13
  24090021.736    24090030.019   -36481905.785 9  39029223.715 8
  22133438.946    22133445.419   -18608819.538 8   8728498.060 7
  24929334.333    24929339.367   -13932972.960 9  34797588.161 8
  22437571.580    22437579.519    -3219705.695 8  -2180366.747 7
 90  3  8  6 59 29.0800000  0  4G 3G12G11G13
  24085643.542    24085650.350   -36504921.668 8  39011289.276 7
  22134863.365    22134867.859   -18601342.314 9   8734324.474 7
  24935741.335    24935747.510   -13899301.156 9  34823825.905 8
  22440083.080    22440087.801    -3206515.754 9  -2170088.877 8
 90  3  8  6 59 44.0800000  0  4G 3G12G11G13
  24081275.472    24081282.280   -36527882.502 8  38993397.749 8
  22136316.042    22136319.717   -18593705.955 9   8740274.898 7
  24942147.560    24942155.855   -13865635.034 8  34850059.242 8
  22442602.541    22442606.427    -3193279.641 9  -2159775.009 8
 90  3  8  6 59 59.0800000  0  4G 3G12G11G13
  24076916.829    24076921.208   -36550788.010 8  38975549.314 7
  22137799.401    22137802.822   -18585910.389 9   8746349.350 8
  24948554.226    24948560.789   -13831974.607 9  34876288.128 7
  22445130.157    22445132.683    -3179997.390 9  -2149425.194 7
 90  3  8  7  0 14.0800000  0  4G 3G12G11G13
  24072567.625    24072572.490   -36573638.283 8  38957743.920 7
  22139314.467    22139318.553   -18577955.654 9   8752547.832 7
  24954958.778    24954965.071   -13798319.908 9  34902512.565 8
  22447666.058    22447669.482    -3166669.222 9  -2139039.590 7
 90  3  8  7  0 29.0800000  0  4G 3G12G11G13
  24068228.672    24068235.861   -36596433.708 8  38939981.265 7
  22140857.230    22140862.898   -18569841.957 8   8758870.176 8
  24961361.039    24961366.828   -13764670.939 9  34928732.548 7
  22450208.722    22450215.173    -3153295.348 9  -2128618.391 7
 90  3  8  7  0 44.0800000  0  4G 3G12G11G13
  24063901.388    24063909.748   -36619174.221 8  38922261.403 7
  22142432.210    22142435.768   -18561569.344 8   8765316.374 7
  24967762.714    24967770.879   -13731027.933 8  34954947.878 7
  22452762.138    22452768.178    -3139875.912 9  -2118161.685 7
 90  3  8  7  0 59.0800000  0  4G 3G12G11G13
  24059584.866    24059592.613   -36641859.798 8  38904584.368 8
  22144037.623    22144040.372   -18553137.624 8   8771886.547 7
  24974163.932    24974170.929   -13697390.816 9  34981158.605 7
  22455326.167    22455328.995    -3126410.841 9  -2107669.429 6
 90  3  8  7  1 14.0800000  0  4G 3G12G11G13
  24055278.773    24055285.858   -36664490.652 9  38886949.947 6
  22145669.925    22145675.105   -18544546.977 8   8778580.531 6
  24980564.232    24980570.309   -13663759.801 9  35007364.573 8
  22457896.978    22457900.833    -3112900.576 9  -2097141.929 7
 90  3  8  7  1 29.0800000  0  4G 3G12G11G13
  24050984.762    24050990.820   -36687066.772 9  38869358.180 8
  22147335.045    22147339.791   -18535797.420 8   8785398.347 7
  24986962.346    24986967.949   -13630134.955 9  35033565.755 8
  22460476.595    22460481.425    -3099345.534 9  -2086579.544 7
 90  3  8  7  1 44.0800000  0  4G 3G12G11G13
  24046697.339    24046703.173   -36709588.488 9  38851808.811 8
  22149031.922    22149036.911   -18526889.257 9   8792339.791 7
  24993360.155    24993365.619   -13596516.558 9  35059761.895 8
  22463064.530    22463069.173    -3085745.913 9  -2075982.444 8
 90  3  8  7  1 59.0800000  0  4G 3G12G11G13
  24042421.517    24042428.005   -36732055.753 9  38834301.876 8
  22150757.116    22150760.214   -18517822.356 9   8799404.905 6
  24999756.522    24999761.281   -13562904.642 8  35085952.996 8
  22465660.167    22465666.606    -3072101.590 9  -2065350.486 8
 90  3  8  7  2 14.0800000  0  4G 3G12G11G13
  24038158.208    24038162.924   -36754468.553 8  38816837.372 7
  22152509.856    22152516.809   -18508596.811 8   8806593.613 8
  25006150.429    25006155.866   -13529299.274 9  35112138.991 8
  22468266.561    22468270.991    -3058412.924 9  -2054684.003 7
 90  3  8  7  2 29.0800000  0  4G 3G12G11G13
  24033904.480    24033908.564   -36776827.096 9  38799415.146 9
  22154294.437    22154303.793   -18499212.534 9   8813906.031 7
  25012544.834    25012551.125   -13495700.409 8  35138319.910 8
  22470879.858    22470884.658    -3044679.615 9  -2043982.725 8
 90  3  8  7  2 44.0800000  0  4G 3G12G11G13
  24029658.874    24029663.713   -36799131.129 9  38782035.396 8
  22156112.779    22156118.013   -18489669.723 8   8821341.995 6
  25018937.110    25018942.128   -13462108.099 8  35164495.736 7
  22473500.771    22473505.199    -3030902.299 9  -2033247.150 8
 90  3  8  7  2 59.0800000  0  4G 3G12G11G13
  24025425.711    24025429.809   -36821381.182 9  38764697.721 8
  22157958.263    22157963.850   -18479968.518 7   8828901.370 6
  25025329.112    25025333.042   -13428522.462 9  35190666.349 8
  22476130.162    22476135.180    -3017081.424 9  -2022477.632 7
 90  3  8  7  3 14.0800000  0  4G 3G12G11G13
  24021202.027    24021207.118   -36843577.108 9  38747402.221 7
  22159835.151    22159841.810   -18470108.810 8   8836584.280 7
  25031718.249    25031723.130   -13394943.557 9  35216831.709 8
  22478767.120    22478773.337    -3003216.707 8  -2011673.955 7
 90  3  8  7  3 29.0800000  0  4G 3G12G11G13
  24016988.348    24016992.907   -36865719.056 8  38730148.755 8
  22161739.999    22161749.340   -18460090.699 9   8844390.579 7
  25038105.115    25038113.466   -13361371.486 9  35242991.742 8
  22481414.067    22481420.599    -2989308.482 9  -2000836.371 7
 90  3  8  7  3 44.0800000  0  4G 3G12G11G13
  24012783.895    24012789.270   -36887806.829 9  38712937.536 8
  22163675.582    22163686.013   -18449914.074 8   8852320.396 8
  25044493.136    25044500.919   -13327806.179 8  35269146.502 7
  22484069.646    22484074.598    -2975356.822 9  -1989964.938 7
 90  3  8  7  3 59.0800000  0  4G 3G12G11G13
  24008592.429    24008594.885   -36909840.704 9  38695768.305 7
  22165644.249    22165649.828   -18439579.124 8   8860373.572 7
  25050879.476    25050885.112   -13294247.762 8  35295295.903 7
  22486732.129    22486739.682    -2961361.826 9  -1979059.753 7
 90  3  8  7  4 14.0800000  0  4G 3G12G11G13
  24004409.234    24004412.800   -36931821.018 9  38678640.795 7
  22167641.537    22167644.932   -18429086.184 9   8868549.896 7
  25057264.480    25057269.470   -13260696.546 9  35321439.701 7
  22489404.425    22489409.307    -2947324.058 9  -1968121.233 8
 90  3  8  7  4 29.0800000  0  4G 3G12G11G13
  24000235.478    24000241.425   -36953747.541 9  38661555.191 7
  22169669.080    22169672.164   -18418435.017 9   8876849.530 7
  25063648.756    25063653.055   -13227152.387 8  35347578.004 8
  22492083.535    22492088.937    -2933243.530 9  -1957149.392 6
 90  3  8  7  4 44.0800000  0  4G 3G12G11G13
  23996073.844    23996081.281   -36975620.364 9  38644511.434 8
  22171725.494    22171729.658   -18407625.703 8   8885272.365 7
  25070028.709    25070034.990   -13193615.256 8  35373710.829 6
  22494772.239    22494777.419    -2919120.321 9  -1946144.305 8
 90  3  8  7  4 59.0800000  0  4G 3G12G11G13
  23991921.390    23991927.335   -36997439.688 9  38627509.394 9
  22173811.264    22173817.237   -18396658.369 9   8893818.313 6
  25076409.347    25076414.883   -13160085.398 7  35399837.957 7
  22497467.890    22497474.022    -2904954.882 9  -1935106.320 8
 90  3  8  7  5 14.0800000  0  4G 3G12G11G13
  23987779.314    23987783.736   -37019205.575 9  38610548.984 8
  22175930.057    22175934.269   -18385533.193 9   8902487.273 8
  25082789.243    25082793.923   -13126562.915 8  35425959.350 8
  22500171.790    22500175.210    -2890747.391 9  -1924035.524 7
 90  3  8  7  5 29.0800000  0  4G 3G12G11G13
  23983646.923    23983651.527   -37040918.078 9  38593630.183 7
  22178078.095    22178081.676   -18374250.101 9   8911279.310 7
  25089166.681    25089171.640   -13093047.735 7  35452075.052 8
  22502882.358    22502885.395    -2876497.990 9  -1912932.086 6
 90  3  8  7  5 44.0800000  0  4G 3G12G11G13
  23979525.189    23979529.004   -37062577.285 9  38576752.900 7
  22180252.713    22180259.363   -18362809.176 8   8920194.279 6
  25095543.842    25095547.645   -13059540.009 7  35478184.965 7
  22505602.619    22505605.535    -2862206.696 9  -1901795.984 8
 90  3  8  7  5 59.0800000  0  4G 3G12G11G13
  23975414.043    23975418.739   -37084183.336 9  38559917.038 7
  22182459.954    22182462.834   -18351210.545 8   8929232.173 5
  25101917.877    25101924.198   -13026039.912 6  35504288.904 7
  22508330.259    22508334.249    -2847873.597 9  -1890627.335 7
 90  3  8  7  6 14.0800000  0  4G 3G12G11G13
  23971313.802    23971319.480   -37105736.165 9  38543122.631 8
  22184699.526    22184701.473   -18339454.193 9   8938392.966 7
  25108289.171    25108297.482   -12992547.320 5  35530386.982 8
  22511064.943    22511069.217    -2833498.731 9  -1879426.146 7
 90  3  8  7  6 29.0800000  0  4G 3G12G11G13
  23967222.237    23967227.763   -37127236.048 9  38526369.483 7
  22186965.264    22186971.487   -18327540.383 9   8947676.469 7
  25114660.846    25114669.596   -12959062.439 6  35556479.071 8
  22513808.769    22513813.158    -2819082.577 9  -1868192.787 7
 90  3  8  7  6 44.0800000  0  4G 3G12G11G13
  23963140.522    23963147.094   -37148683.002 9  38509657.598 7
  22189261.455    22189267.901   -18315469.125 9   8957082.626 7
  25121029.926    25121040.099   -12925585.427 6  35582565.031 8
  22516558.601    22516566.697    -2804625.427 9  -1856927.497 7
 90  3  8  7  6 59.0800000  0  4G 3G12G11G13
  23959069.484    23959074.586   -37170077.176 9  38492986.838 7
  22191589.850    22191595.097   -18303240.582 9   8966611.352 8
  25127401.527    25127409.694   -12892116.203 6  35608644.957 8
  22519316.412    22519323.149    -2790127.219 9  -1845630.182 7
 90  3  8  7  7 14.0800000  0  4G 3G12G11G13
  23955009.668    23955012.143   -37191418.364 9  38476357.381 7
  22193947.784    22193950.250   -18290854.669 9   8976262.718 7
  25133768.793    25133777.546   -12858654.626 6  35634718.928 8
  22522084.233    22522090.625    -2775588.054 9  -1834300.954 8
 90  3  8  7  7 29.0800000  0  4G 3G12G11G13
  23950957.276    23950961.343   -37212706.651 9  38459769.088 7
  22196332.198    22196336.745   -18278311.380 8   8986036.706 7
  25140135.711    25140143.413   -12825200.765 7  35660786.871 8
  22524859.377    22524864.668    -2761008.003 9  -1822939.873 8
 90  3  8  7  7 44.0800000  0  4G 3G12G11G13
  23946914.752    23946920.602   -37233942.806 8  38443221.452 8
  22198749.842    22198756.616   -18265611.444 8   8995932.736 6
  25146501.224    25146507.028   -12791755.240 8  35686848.316 7
  22527642.222    22527645.740    -2746387.817 9  -1811547.514 8
 90  3  8  7  7 59.0800000  0  4G 3G12G11G13
  23942884.791    23942891.322   -37255126.483 9  38426714.707 8
  22201197.453    22201201.089   -18252754.542 9   9005951.093 7
  25152863.712    25152869.991   -12758317.819 7  35712903.440 8
  22530432.508    22530435.725    -2731727.574 9  -1800123.953 7
 90  3  8  7  8 14.0800000  0  4G 3G12G11G13
  23938863.393    23938871.574   -37276257.886 9  38410248.713 7
  22203673.658    22203675.968   -18239740.684 9   9016091.763 6
  25159224.847    25159231.968   -12724888.537 7  35738952.228 8
  22533229.787    22533232.608    -2717027.418 9  -1788669.279 7
 90  3  8  7  8 29.0800000  0  4G 3G12G11G13
  23934853.534    23934859.469   -37297337.006 8  38393823.452 8
  22206180.833    22206182.424   -18226569.971 8   9026354.647 7
  25165585.392    25165591.370   -12691467.504 7  35764994.590 8
  22536033.744    22536038.513    -2702287.477 9  -1777183.603 8
 90  3  8  7  8 44.0800000  0  4G 3G12G11G13
  23930851.905    23930856.790   -37318363.883 9  38377438.868 7
  22208716.262    22208723.034   -18213242.660 8   9036739.553 7
  25171944.925    25171950.265   -12658054.851 8  35791030.442 9
  22538846.215    22538850.963    -2687507.796 9  -1765666.978 8
 90  3  8  7  8 59.0800000  0  4G 3G12G11G13
  23926859.389    23926863.925   -37339338.631 9  38361094.907 7
  22211281.601    22211288.256   -18199758.685 9   9047246.549 7
  25178300.585    25178306.238   -12624650.361 8  35817059.916 8
  22541666.630    22541672.086    -2672688.598 9  -1754119.557 8
 90  3  8  7  9 14.0800000  0  4G 3G12G11G13
  23922878.245    23922883.288   -37360261.314 8  38344791.551 7
  22213876.618    22213882.285   -18186118.349 8   9057875.348 7
  25184654.451    25184659.892   -12591254.306 7  35843082.803 8
  22544494.899    22544498.765    -2657830.016 9  -1742541.450 8
 90  3  8  7  9 29.0800000  0  4G 3G12G11G13
  23918909.339    23918913.912   -37381131.954 9  38328528.713 8
  22216502.297    22216507.412   -18172321.807 9   9068625.896 7
  25191007.866    25191013.773   -12557866.841 8  35869098.990 7
  22547329.382    22547334.842    -2642932.165 9  -1730932.723 7
 90  3  8  7  9 44.0800000  0  4G 3G12G11G13
  23914946.368    23914952.484   -37401950.807 9  38312306.263 8
  22219158.798    22219162.320   -18158368.888 9   9079498.306 7
  25197358.911    25197365.995   -12524487.851 8  35895108.553 8
  22550171.769    22550176.018    -2627995.317 9  -1719293.603 8
 90  3  8  7  9 59.0800000  0  4G 3G12G11G13
  23910992.881    23910999.006   -37422717.686 9  38296124.303 8
  22221842.671    22221848.367   -18144259.793 9   9090492.437 8
  25203710.081    25203715.838   -12491117.284 8  35921111.562 8
  22553021.607    22553025.636    -2613019.701 9  -1707624.292 7
 90  3  8  7 10 14.0800000  0  4G 3G12G11G13
  23907050.041    23907056.797   -37443433.008 8  38279982.507 7
  22224555.260    22224564.149   -18129994.666 8   9101608.102 7
  25210059.183    25210065.342   -12457755.453 8  35947107.783 7
  22555879.147    22555881.205    -2598005.546 9  -1695924.945 7
 90  3  8  7 10 29.0800000  0  4G 3G12G11G13
  23903119.564    23903124.967   -37464096.823 9  38263880.833 7
  22227299.725    22227306.859   -18115573.740 7   9112845.156 7
  25216406.910    25216411.216   -12424402.447 7  35973097.118 8
  22558742.731    22558746.719    -2582953.038 9  -1684195.728 8
 90  3  8  7 10 44.0800000  0  4G 3G12G11G13
  23899198.948    23899202.374   -37484709.096 9  38247819.317 7
  22230075.859    22230080.104   -18100997.035 8   9124203.612 8
  25222750.975    25222757.114   -12391058.190 9  35999079.635 8
  22561614.264    22561619.172    -2567862.281 9  -1672436.723 7
 90  3  8  7 10 59.0800000  0  4G 3G12G11G13
  23895284.869    23895289.436   -37505269.949 9  38231797.919 7
  22232878.180    22232884.651   -18086264.821 8   9135683.277 7
  25229093.987    25229101.236   -12357722.698 8  36025055.339 8
  22564492.915    22564498.400    -2552733.569 9  -1660648.119 8
 90  3  8  7 11 14.0800000  0  4G 3G12G11G13
  23891382.042    23891386.973   -37525779.444 9  38215816.517 8
  22235712.842    22235716.497   -18071376.972 8   9147284.193 7
  25235436.706    25235443.358   -12324396.024 8  36051024.158 7
  22567378.608    22567384.323    -2537566.693 9  -1648829.792 7
 90  3  8  7 11 29.0800000  0  4G 3G12G11G13
  23887488.237    23887493.359   -37546237.690 9  38199875.030 8
  22238574.415    22238578.748   -18056333.647 9   9159006.263 7
  25241776.921    25241782.610   -12291078.172 7  36076986.110 7
  22570271.889    22570276.000    -2522362.311 9  -1636982.216 7
 90  3  8  7 11 44.0800000  0  4G 3G12G11G13
  23883604.464    23883608.219   -37566644.854 9  38183973.367 7
  22241467.610    22241472.013   -18041135.051 8   9170849.300 7
  25248115.934    25248120.617   -12257769.331 8  36102941.021 7
  22573174.464    22573176.780    -2507120.644 9  -1625105.589 8
 90  3  8  7 11 59.0800000  0  4G 3G12G11G13
  23879731.510    23879734.500   -37587001.059 8  38168111.391 7
  22244389.064    22244394.380   -18025781.280 9   9182813.280 8
  25254450.402    25254457.781   -12224469.597 8  36128888.855 7
  22576080.276    22576083.963    -2491841.521 9  -1613199.768 7
 90  3  8  7 12 14.0800000  0  4G 3G12G11G13
  23875868.068    23875871.783   -37607306.434 9  38152289.031 8
  22247339.293    22247344.879   -18010272.377 9   9194898.123 7
  25260786.114    25260793.863   -12191179.034 8  36154829.544 7
  22578995.001    22578997.806    -2476525.008 9  -1601264.822 7
 90  3  8  7 12 29.0800000  0  4G 3G12G11G13
  23872013.824    23872020.704   -37627560.786 9  38136506.449 7
  22250320.297    22250324.620   -17994608.388 9   9207103.817 7
  25267119.875    25267128.428   -12157897.588 8  36180763.145 8
  22581915.912    22581919.772    -2461171.080 9  -1589300.732 7
 90  3  8  7 12 44.0800000  0  4G 3G12G11G13
  23868168.629    23868174.702   -37647764.245 9  38120763.520 7
  22253330.844    22253335.318   -17978789.537 9   9219430.188 8
  25273451.994    25273459.443   -12124625.191 8  36206689.693 8
  22584846.743    22584850.187    -2445780.163 9  -1577307.819 8
 90  3  8  7 12 59.0800000  0  4G 3G12G11G13
  23864333.766    23864337.506   -37667917.060 9  38105060.048 7
  22256370.084    22256376.085   -17962816.171 8   9231876.953 7
  25279781.205    25279788.601   -12091362.007 7  36232609.030 8
  22587782.287    22587787.248    -2430352.707 9  -1565286.436 8
 90  3  8  7 13 14.0800000  0  4G 3G12G11G13
  23860508.822    23860512.733   -37688019.230 9  38089396.047 8
  22259439.413    22259445.750   -17946688.325 9   9244444.082 7
  25286109.776    25286114.753   -12058108.295 8  36258520.990 8
  22590723.872    22590730.089    -2414888.752 9  -1553236.588 8
 90  3  8  7 13 29.0800000  0  4G 3G12G11G13
  23856693.493    23856696.200   -37708071.088 9  38073771.234 8
  22262536.981    22262542.594   -17930406.101 8   9257131.532 6
  25292436.783    25292440.710   -12024864.084 8  36284425.554 7
  22593672.386    22593679.193    -2399388.687 9  -1541158.610 8
 90  3  8  7 13 44.0800000  0  4G 3G12G11G13
  23852885.010    23852892.345   -37728072.543 9  38058185.687 8
  22265664.885    22265668.811   -17913969.730 9   9269939.102 7
  25298761.535    25298766.141   -11991629.169 8  36310322.862 6
  22596628.344    22596635.019    -2383852.404 8  -1529052.413 7
 90  3  8  7 13 59.0800000  0  4G 3G12G11G13
  23849089.176    23849094.951   -37748023.547 9  38042639.465 8
  22268822.616    22268826.576   -17897379.097 8   9282866.866 7
  25305084.467    25305091.831   -11958403.540 7  36336212.949 7
  22599591.762    22599599.466    -2368279.865 9  -1516917.972 8
 90  3  8  7 14 14.0800000  0  4G 3G12G11G13
  23845303.073    23845308.335   -37767924.337 9  38027132.369 8
  22272008.169    22272014.899   -17880634.499 8   9295914.595 8
  25311402.219    25311410.945   -11925187.461 8  36362095.607 8
  22602563.024    22602568.370    -2352671.428 9  -1504755.548 8
 90  3  8  7 14 29.0800000  0  4G 3G12G11G13
  23841525.881    23841531.144   -37787774.941 9  38011664.377 9
  22275224.392    22275229.243   -17863736.113 9   9309082.151 8
  25317722.589    25317731.457   -11891980.871 7  36387970.889 8
  22605540.643    22605545.325    -2337027.134 9  -1492565.187 8
 90  3  8  7 14 44.0800000  0  4G 3G12G11G13
  23837757.733    23837761.842   -37807575.631 9  37996235.297 7
  22278469.941    22278473.988   -17846684.124 9   9322369.396 7
  25324042.325    25324047.305   -11858783.857 7  36413838.719 8
  22608524.691    22608528.485    -2321347.481 9  -1480347.249 8
 90  3  8  7 14 59.0800000  0  4G 3G12G11G13
  23833999.297    23834003.719   -37827326.526 9  37980845.016 7
  22281744.505    22281746.472   -17829478.597 9   9335776.289 7
  25330357.005    25330362.153   -11825596.423 8  36439699.054 7
  22611514.722    22611519.699    -2305632.487 9  -1468101.783 8
 90  3  8  7 15 14.0800000  0  3G 3G12G13
  23830252.260    23830253.141   -37847027.652 7  37965493.503 7
  22285047.799    22285049.614   -17812119.850 7   9349302.594 6
  22614510.378    22614517.607    -2289882.479 7  -1455829.067 7
 90  3  8  7 15 29.0800000  0  4G 3G12G19G13
  23826511.954    23826515.862   -37866679.129 8  37950180.664 8
  22288379.950    22288384.413   -17794608.099 8   9362948.110 7
                  24550719.917   -50827433.332 9
  22617513.632    22617520.674    -2274097.394 9  -1443529.014 9
 90  3  8  7 15 44.0800000  0  4G 3G12G19G13
  23822780.944    23822785.459   -37886280.966 9  37934906.527 8
  22291739.920    22291746.472   -17776943.185 8   9376712.939 8
  24546099.337    24546101.795   -50851856.249 8  64590054.762 8
  22620525.085    22620532.999    -2258277.010 9  -1431201.455 7
 90  3  8  7 15 59.0800000  0  4G 3G12G19G13
  23819060.757    23819065.454   -37905833.198 9  37919671.049 9
  22295130.567    22295137.060   -17759125.428 8   9390596.896 7
  24541474.462    24541478.226   -50876156.453 9  64571119.038 7
  22623541.470    22623547.519    -2242422.127 9  -1418847.000 8
 90  3  8  7 16 14.0800000  0  4G 3G12G19G13
  23815347.264    23815352.325   -37925336.058 9  37904474.042 8
  22298551.750    22298554.711   -17741155.024 9   9404599.793 7
  24536873.771    24536878.908   -50900333.739 9  64552279.602 8
  22626566.127    22626571.972    -2226532.950 9  -1406465.824 8
 90  3  8  7 16 29.0800000  0  4G 3G12G19G13
  23811647.210    23811650.333   -37944789.564 9  37889315.472 7
  22302001.209    22302002.936   -17723032.019 8   9418721.604 6
  24532297.206    24532300.448   -50924387.817 9  64533536.145 8
  22629597.507    22629599.321    -2210609.354 9  -1394057.823 7
 90  3  8  7 16 44.0800000  0  4G 3G12G19G13
  23807954.114    23807958.315   -37964193.754 9  37874195.346 8
  22305476.557    22305481.540   -17704756.690 8   9432962.144 7
  24527741.982    24527746.129   -50948318.699 8  64514888.724 8
  22632634.006    22632638.266    -2194651.514 9  -1381623.146 7
 90  3  8  7 16 59.0800000  0  4G 3G12G19G13
  23804270.844    23804276.441   -37983548.914 9  37859113.402 8
  22308981.486    22308986.148   -17686329.272 9   9447321.180 7
  24523210.622    24523215.401   -50972126.199 7  64496337.456 8
  22635676.481    22635681.795    -2178659.682 9  -1369161.977 8
 90  3  8  7 17 14.0800000  0  4G 3G12G19G13
  23800597.848    23800602.327   -38002854.939 9  37844069.766 7
  22312517.113    22312522.511   -17667749.648 8   9461798.775 8
  24518703.038    24518707.199   -50995810.182 8  64477882.401 7
  22638725.299    22638733.365    -2162633.974 9  -1356674.425 8
 90  3  8  7 17 29.0800000  0  4G 3G12G19G13
  23796933.434    23796937.903   -38022112.065 9  37829064.240 8
  22316082.645    22316087.409   -17649018.060 8   9476394.806 7
  24514219.207    24514226.129   -51019370.526 8  64459523.704 8
  22641782.013    22641787.660    -2146574.750 9  -1344160.729 8
 90  3  8  7 17 44.0800000  0  4G 3G12G19G13
  23793276.986    23793280.775   -38041320.183 9  37814096.896 9
  22319676.825    22319680.355   -17630134.634 9   9491109.151 6
  24509760.966    24509767.005   -51042807.108 8  64441261.431 7
  22644845.583    22644849.587    -2130482.081 9  -1331620.975 7
 90  3  8  7 17 59.0800000  0  4G 3G12G19G13
  23789631.780    23789636.347   -38060479.533 8  37799167.559 8
  22323299.597    22323302.114   -17611099.533 9   9505941.711 7
  24505324.098    24505329.659   -51066119.287 8  64423096.109 8
  22647914.294    22647917.858    -2114355.661 9  -1319054.910 8
 90  3  8  7 18 14.0800000  0  4G 3G12G19G13
  23785995.444    23786000.131   -38079589.839 9  37784276.411 8
  22326952.590    22326955.108   -17591912.723 9   9520892.463 7
  24500912.929    24500918.000   -51089306.991 8  64405027.774 7
  22650988.895    22650993.562    -2098195.877 9  -1306462.880 7
 90  3  8  7 18 29.0800000  0  4G 3G12G19G13
  23782367.804    23782373.376   -38098651.665 9  37769423.044 8
  22330632.513    22330636.956   -17572574.695 9   9535961.032 7
  24496524.786    24496529.102   -51112370.235 7  64387056.435 7
  22654069.803    22654073.272    -2082003.025 8  -1293845.051 8
 90  3  8  7 18 44.0800000  0  4G 3G12G19G13
  23778748.171    23778754.005   -38117664.920 9  37754607.546 8
  22334338.587    22334343.429   -17553085.628 8   9551147.290 6
  24492158.542    24492163.012   -51135308.738 8  64369182.282 8
  22657157.416    22657163.253    -2065777.186 8  -1281201.555 7
 90  3  8  7 18 59.0800000  0  4G 3G12G19G13
  23775139.307    23775146.065   -38136629.748 8  37739829.756 9
  22338076.951    22338080.370   -17533445.696 9   9566451.134 7
  24487817.746    24487822.585   -51158122.696 8  64351405.166 8
  22660251.757    22660258.685    -2049518.503 8  -1268532.470 8
 90  3  8  7 19 14.0800000  0  4G 3G12G19G13
  23771540.040    23771546.853   -38155546.315 9  37725089.607 9
  22341844.644    22341847.219   -17513654.988 9   9581872.461 8
  24483499.513    24483504.409   -51180811.618 8  64333725.488 8
  22663352.116    22663359.224    -2033227.271 9  -1255838.030 8
 90  3  8  7 19 29.0800000  0  4G 3G12G19G13
  23767951.162    23767955.389   -38174414.606 9  37710387.058 8
  22345637.811    22345641.130   -17493713.711 9   9597411.096 7
  24479206.933    24479210.710   -51203375.294 7  64316143.411 8
  22666457.217    22666464.759    -2016903.475 9  -1243118.198 8
 90  3  8  7 19 44.0800000  0  4G 3G12G19G13
  23764368.715    23764372.862   -38193234.719 9  37695722.047 8
  22349459.792    22349466.173   -17473622.072 8   9613066.898 6
  24474935.673    24474940.947   -51225813.815 8  64298658.877 8
  22669569.814    22669576.285    -2000547.447 8  -1230373.251 8
 90  3  8  7 19 59.0800000  0  4G 3G12G19G13
  23760796.900    23760801.140   -38212006.832 9  37681094.430 8
  22353311.394    22353316.511   -17453380.399 8   9628839.618 7
  24470688.957    24470693.905   -51248126.743 8  64281272.169 8
  22672689.148    22672693.946    -1984159.350 9  -1217603.288 8
 90  3  8  7 20 14.0800000  0  4G 3G12G19G13
  23757234.970    23757240.228   -38230731.165 9  37666504.057 8
  22357193.306    22357197.130   -17432988.691 9   9644729.261 7
  24466466.326    24466472.891   -51270313.901 8  64263983.467 7
  22675813.516    22675819.164    -1967739.131 9  -1204808.319 7
 90  3  8  7 20 29.0800000  0  4G 3G12G19G13
  23753679.949    23753685.260   -38249407.493 9  37651951.116 9
  22361102.408    22361105.864   -17412447.097 9   9660735.698 7
  24462268.226    24462275.618   -51292375.079 8  64246792.930 8
  22678943.835    22678948.197    -1951287.051 9  -1191988.516 7
 90  3  8  7 20 44.0800000  0  4G 3G12G19G13
  23750134.847    23750139.830   -38268036.139 9  37637435.313 9
  22365039.604    22365042.568   -17391755.829 8   9676858.761 7
  24458095.099    24458103.070   -51314310.419 8  64229700.443 9
  22682082.157    22682084.866    -1934803.343 9  -1179144.056 8
 90  3  8  7 20 59.0800000  0  4G 3G12G19G13
  23746598.570    23746602.451   -38286617.109 9  37622956.649 8
  22369003.706    22369010.505   -17370915.061 8   9693098.300 7
  24453947.425    24453951.195   -51336119.772 9  64212706.171 8
  22685225.301    22685227.117    -1918288.017 9  -1166274.969 8
 90  3  8  7 21 14.0800000  0  4G 3G12G19G13
  23743071.057    23743076.118   -38305150.213 9  37608515.269 8
  22372998.747    22373004.599   -17349924.805 9   9709454.341 7
  24449819.642    24449823.024   -51357802.681 8  64195810.410 8
  22688373.609    22688376.160    -1901741.086 8  -1153381.247 8
 90  3  8  7 21 29.0800000  0  4G 3G12G19G13
  23739553.583    23739560.120   -38323635.686 9  37594111.020 7
  22377023.405    22377029.414   -17328785.318 9   9725926.665 8
  24445716.241    24445721.501   -51379358.936 8  64179013.345 9
  22691527.903    22691530.327    -1885162.743 9  -1140463.064 6
 90  3  8  7 21 44.0800000  0  4G 3G12G19G13
  23736042.984    23736050.774   -38342074.194 8  37579743.354 8
  22381074.080    22381079.119   -17307497.273 8   9742514.739 8
  24441640.084    24441645.396   -51400788.664 8  64162314.862 8
  22694688.189    22694694.027    -1868553.480 8  -1127520.752 8
 90  3  8  7 21 59.0800000  0  4G 3G12G19G13
  23732543.776    23732551.727   -38360465.585 9  37565412.410 9
  22385152.454    22385156.992   -17286060.767 8   9759218.497 8
  24437586.753    24437592.697   -51422091.668 9  64145715.113 8
  22697855.179    22697860.969    -1851913.783 9  -1114554.761 8
 90  3  8  7 22 14.0800000  0  4G 3G12G19G13
  23729055.107    23729060.533   -38378809.807 9  37551118.236 8
  22389261.909    22389266.062   -17264475.650 9   9776038.045 8
  24433555.104    24433563.089   -51443267.649 8  64129214.326 8
  22701025.740    22701031.422    -1835243.254 9  -1101564.749 8
 90  3  8  7 22 29.0800000  0  4G 3G12G19G13
  23725574.266    23725577.365   -38397106.717 9  37536860.923 9
  22393398.209    22393401.015   -17242742.214 9   9792973.212 7
  24429548.983    24429555.789   -51464316.375 8  64112812.723 8
  22704204.124    22704209.140    -1818541.989 8  -1088550.790 8
 90  3  8  7 22 44.0800000  0  4G 3G12G19G13
  23722099.478    23722104.062   -38415356.794 9  37522640.107 8
  22397559.868    22397565.031   -17220860.707 8   9810023.723 8
  24425569.528    24425573.772   -51485238.062 9  64096510.119 7
  22707386.783    22707392.707    -1801810.408 8  -1075513.199 7
 90  3  8  7 22 59.0800000  0  4G 3G12G19G13
  23718634.845    23718639.762   -38433559.965 8  37508455.824 9
  22401752.744    22401756.817   -17198831.285 9   9827189.498 7
  24421613.214    24421616.977   -51506032.369 9  64080306.779 8
  22710577.431    22710584.335    -1785048.258 8  -1062451.789 7
 90  3  8  7 23 14.0800000  0  4G 3G12G19G13
  23715179.478    23715185.940   -38451716.407 9  37494307.987 8
  22405973.181    22405977.312   -17176654.247 9   9844470.299 8
  24417680.504    24417685.495   -51526698.790 9  64064203.076 9
  22713771.592    22713778.514    -1768256.034 8  -1049366.935 7
 90  3  8  7 23 29.0800000  0  4G 3G12G19G13
  23711736.153    23711740.470   -38469825.955 9  37480196.669 8
  22410221.003    22410225.751   -17154329.565 8   9861866.133 8
  24413772.074    24413777.787   -51547237.316 9  64048199.023 8
  22716973.380    22716979.160    -1751433.965 8  -1036258.839 8
 90  3  8  7 23 44.0800000  0  4G 3G12G19G13
  23708298.123    23708303.120   -38487888.759 8  37466121.769 8
  22414497.764    22414503.241   -17131857.428 9   9879376.869 8
  24409887.014    24409895.016   -51567647.863 8  64032294.687 8
  22720181.097    22720186.199    -1734581.880 9  -1023127.345 7
 90  3  8  7 23 59.0800000  0  4G 3G12G19G13
  23704868.964    23704873.819   -38505904.881 9  37452083.264 8
  22418801.482    22418807.280   -17109238.146 8   9897002.283 7
  24406028.489    24406033.921   -51587930.317 8  64016490.184 7
  22723393.303    22723397.080    -1717699.976 9  -1009972.571 6
 90  3  8  7 24 14.0800000  0  4G 3G12G19G13
  23701448.190    23701452.757   -38523874.708 9  37438080.835 7
  22423132.438    22423136.690   -17086472.001 8   9914742.117 8
  24402193.901    24402197.329   -51608084.447 9  64000785.689 8
  22726610.335    22726615.680    -1700788.492 8   -996794.766 7
 90  3  8  7 24 29.0800000  0  4G 3G12G19G13
  23698040.569    23698043.535   -38541798.245 9  37424114.469 8
  22427493.849    22427497.301   -17063559.259 8   9932596.202 6
  24398382.332    24398387.553   -51628110.433 8  63985181.057 7
  22729833.929    22729843.577    -1683847.506 9   -983593.997 8
 90  3  8  7 24 44.0800000  0  4G 3G12G19G13
  23694638.454    23694642.174   -38559675.277 9  37410184.324 8
  22431881.679    22431885.195   -17040499.877 8   9950564.557 6
  24394592.835    24394602.004   -51648007.657 9  63969676.720 9
  22733063.641    22733073.396    -1666877.074 9   -970370.305 8
 90  3  8  7 24 59.0800000  0  4G 3G12G19G13
  23691243.349    23691247.891   -38577506.379 8  37396289.979 8
  22436296.231    22436301.172   -17017294.349 8   9968646.769 8
  24390833.255    24390839.173   -51667776.317 9  63954272.552 8
  22736299.054    22736306.930    -1649877.657 8   -957124.008 8
 90  3  8  7 25 14.0800000  0  4G 3G12G19G13
  23687857.004    23687861.939   -38595291.411 8  37382431.556 8
  22440740.750    22440745.964   -16993942.860 9   9986842.698 7
  24387097.514    24387102.542   -51687416.224 9  63938968.720 8
  22739541.030    22739546.775    -1632849.383 9   -943855.234 8
 90  3  8  7 25 29.0800000  0  4G 3G12G19G13
  23684483.326    23684486.747   -38613030.637 8  37368608.809 8
  22445212.747    22445218.351   -16970445.592 8  10005152.239 8
  24383384.908    24383388.724   -51706927.170 9  63923765.378 8
  22742786.982    22742791.657    -1615792.069 8   -930563.836 8
 90  3  8  7 25 44.0800000  0  4G 3G12G19G13
  23681117.709    23681120.976   -38630723.972 9  37354821.835 8
  22449709.441    22449716.492   -16946802.793 8  10023575.170 7
  24379695.393    24379699.671   -51726309.184 9  63908662.509 9
  22746036.654    22746040.326    -1598706.180 9   -917250.166 7
 90  3  8  7 25 59.0800000  0  4G 3G12G19G13
  23677757.952    23677762.702   -38648371.814 9  37341070.262 8
  22454237.235    22454242.361   -16923014.816 9  10042111.236 8
  24376031.626    24376036.601   -51745562.082 9  63893660.257 9
  22749293.295    22749298.253    -1581591.820 9   -903914.330 7
 90  3  8  7 26 14.0800000  0  4G 3G12G19G13
  23674407.431    23674413.224   -38665974.057 8  37327354.224 8
  22458791.937    22458798.100   -16899081.812 8  10060760.323 7
  24372394.133    24372398.008   -51764685.616 9  63878758.810 8
  22752556.382    22752561.636    -1564448.952 9   -890556.239 7
 90  3  8  7 26 29.0800000  0  4G 3G12G19G13
  23671068.011    23671071.823   -38683530.664 9  37313673.796 8
  22463373.626    22463379.549   -16875003.890 8  10079522.339 7
  24368779.494    24368784.456   -51783679.793 9  63863958.167 8
  22755824.052    22755831.276    -1547277.842 9   -877176.151 7
 90  3  8  7 26 44.0800000  0  4G 3G12G19G13
  23667734.868    23667739.281   -38701041.749 8  37300028.805 8
  22467983.128    22467989.391   -16850781.331 7  10098397.051 8
  24365189.844    24365194.123   -51802544.047 9  63849258.740 9
  22759096.486    22759104.126    -1530078.557 8   -863774.103 7
 90  3  8  7 26 59.0800000  0  4G 3G12G19G13
  23664410.737    23664415.085   -38718507.567 8  37286419.107 9
  22472621.361    22472625.466   -16826414.408 8  10117384.247 7
  24361624.829    24361629.213   -51821278.556 9  63834660.429 8
  22762374.804    22762381.720    -1512851.039 9   -850350.064 7
 90  3  8  7 27 14.0800000  0  4G 3G12G19G13
  23661095.948    23661101.744   -38735928.146 9  37272844.642 8
  22477284.898    22477290.534   -16801903.305 9  10136483.821 8
  24358083.207    24358087.360   -51839883.433 9  63820163.128 8
  22765660.025    22765665.424    -1495595.642 9   -836904.298 7
 90  3  8  7 27 29.0800000  0  4G 3G12G19G13
  23657788.227    23657794.421   -38753303.516 8  37259305.401 9
  22481977.055    22481982.216   -16777248.174 9  10155695.629 8
  24354567.084    24354571.182   -51858358.090 9  63805767.279 8
  22768951.302    22768954.233    -1478312.528 9   -823436.919 7
 90  3  8  7 27 44.0800000  0  4G 3G12G19G13
  23654490.693    23654497.047   -38770633.799 8  37245801.274 8
  22486694.163    22486700.845   -16752449.237 8  10175019.462 8
  24351078.274    24351082.447   -51876702.300 9  63791473.081 9
  22772245.675    22772246.578    -1461001.712 9   -809947.964 8
 90  3  8  7 27 59.0800000  0  4G 3G12G19G13
  23651201.561    23651207.409   -38787919.157 9  37232332.184 7
  22491440.028    22491447.458   -16727506.773 8  10194455.118 8
  24347611.306    24347614.817   -51894916.303 9  63777280.338 8
  22775542.310    22775544.491    -1443663.385 8   -796437.601 6
 90  3  8  7 28 14.0800000  0  4G 3G12G19G13
  23647921.436    23647927.422   -38805159.659 9  37218898.043 8
  22496214.353    22496221.679   -16702420.990 9  10214002.457 7
  24344170.300    24344174.730   -51912999.792 9  63763189.322 7
  22778848.074    22778853.423    -1426297.699 9   -782905.908 7
 90  3  8  7 28 29.0800000  0  4G 3G12G19G13
  23644650.929    23644654.433   -38822355.183 9  37205498.942 7
  22501015.859    22501023.726   -16677192.051 8  10233661.349 8
  24340753.763    24340756.808   -51930952.553 9  63749200.169 8
  22782155.770    22782163.774    -1408904.702 8   -769352.932 7
 90  3  8  7 28 44.0800000  0  4G 3G12G19G13
  23641385.056    23641390.260   -38839506.049 8  37192134.674 8
  22505843.433    22505850.134   -16651820.476 9  10253431.400 8
  24337361.609    24337366.419   -51948774.521 9  63735312.924 8
  22785469.531    22785475.668    -1391484.731 8   -755778.901 7
 90  3  8  7 28 59.0800000  0  4G 3G12G19G13
  23638128.809    23638134.457   -38856612.311 9  37178805.143 8
  22510698.428    22510704.117   -16626306.213 8  10273312.630 6
  24333994.965    24333999.764   -51966465.773 9  63721527.540 8
  22788790.011    22788795.851    -1374037.794 9   -742183.865 7
 90  3  8  7 29 14.0800000  0  4G 3G12G19G13
  23634883.101    23634887.158   -38873673.790 9  37165510.501 8
  22515581.550    22515586.746   -16600649.322 9  10293305.017 6
  24330653.803    24330658.328   -51984025.810 9  63707844.381 8
  22792115.513    22792122.358    -1356563.784 7   -728567.744 8
 90  3  8  7 29 29.0800000  0  4G 3G12G19G13
  23631645.400    23631649.768   -38890690.972 9  37152250.372 8
  22520491.431    22520496.866   -16574850.431 9  10313408.062 7
  24327338.598    24327342.375   -52001454.914 9  63694263.269 8
  22795444.278    22795453.062    -1339063.268 8   -714930.982 8
 90  3  8  7 29 44.0800000  0  4G 3G12G19G13
  23628417.333    23628422.513   -38907663.861 9  37139024.760 8
  22525429.159    22525433.039   -16548909.700 9  10333621.605 7
  24324045.177    24324050.332   -52018752.972 9  63680784.258 8
  22798781.424    22798786.495    -1321536.336 8   -701273.651 8
 90  3  8  7 29 59.0800000  0  4G 3G12G19G13
  23625194.646    23625199.475   -38924592.496 9  37125833.642 8
  22530391.962    22530397.039   -16522827.278 9  10353945.554 8
  24320778.417    24320782.435   -52035919.532 9  63667407.710 8
  22802121.275    22802125.808    -1303982.923 8   -687595.672 7
 90  3  8  7 30 14.0800000  0  4G 3G12G19G13
  23621981.946    23621985.796   -38941477.203 8  37112676.752 8
  22535381.857    22535387.054   -16496603.631 8  10374379.546 8
  24317536.418    24317540.688   -52052954.800 9  63654133.473 7
  22805468.498    22805471.471    -1286403.541 8   -673897.471 7
 90  3  8  7 30 29.0800000  0  4G 3G12G19G13
  23618778.003    23618781.825   -38958317.848 8  37099554.178 8
  22540398.401    22540403.124   -16470238.856 9  10394923.516 7
  24314320.651    24314324.586   -52069858.319 9  63640961.918 8
  22808819.739    22808823.314    -1268797.911 9   -660178.808 7
 90  3  8  7 30 44.0800000  0  4G 3G12G19G13
  23615580.444    23615584.615   -38975114.739 8  37086465.681 9
  22545442.391    22545447.599   -16443733.401 9  10415577.100 7
  24311128.985    24311132.271   -52086630.546 9  63627892.651 9
  22812174.389    22812176.384    -1251166.528 9   -646440.062 7
 90  3  8  7 30 59.0800000  0  4G 3G12G19G13
  23612392.358    23612397.155   -38991867.783 9  37073411.368 7
  22550513.138    22550519.447   -16417087.456 9  10436340.183 8
  24307960.587    24307966.723   -52103271.148 9  63614925.931 8
  22815532.919    22815537.114    -1233509.388 8   -632681.248 6
 90  3  8  7 31 14.0800000  0  4G 3G12G19G13
  23609213.685    23609218.673   -39008577.228 9  37060391.055 8
  22555610.701    22555616.308   -16390301.139 9  10457212.631 7
  24304820.938    24304826.072   -52119779.598 9  63602062.183 8
  22818898.117    22818904.535    -1215826.335 7   -618902.233 6
 90  3  8  7 31 29.0800000  0  4G 3G12G19G13
  23606041.945    23606047.642   -39025243.103 9  37047404.663 9
  22560736.082    22560740.362   -16363374.788 9  10478194.200 7
  24301705.736    24301708.309   -52136156.195 9  63589301.228 8
  22822266.542    22822273.920    -1198117.766 9   -605103.343 7
 90  3  8  7 31 44.0800000  0  4G 3G12G19G13
  23602878.232    23602883.449   -39041865.334 9  37034452.281 8
  22565885.099    22565891.832   -16336308.468 9  10499284.840 8
  24298614.109    24298617.546   -52152400.680 9  63576643.202 8
  22825641.380    22825648.423    -1180383.695 8   -591284.567 6
 90  3  8  7 31 59.0800000  0  4G 3G12G19G13
  23599722.131    23599727.570   -39058444.232 9  37021533.671 8
  22571062.019    22571066.024   -16309102.613 9  10520484.182 7
  24295546.539    24295551.747   -52168512.956 9  63564088.186 8
  22829020.262    22829029.066    -1162624.566 8   -577446.280 7
 90  3  8  7 32 14.0800000  0  4G 3G12G19G13
  23596576.315    23596581.566   -39074980.006 8  37008648.685 7
  22576265.415    22576271.318   -16281757.784 8  10541791.817 7
  24292507.261    24292509.568   -52184493.085 9  63551636.122 8
  22832403.883    22832413.750    -1144840.449 9   -563588.557 7
 90  3  8  7 32 29.0800000  0  4G 3G12G19G13
  23593440.558    23593442.371   -39091472.473 9  36995797.437 8
  22581495.705    22581502.372   -16254273.924 9  10563207.801 8
  24289491.862    24289495.843   -52200340.681 9  63539287.332 8
  22835794.455    22835799.557    -1127030.965 9   -549711.058 7
 90  3  8  7 32 44.0800000  0  4G 3G12G19G13
  23590310.498    23590312.783   -39107921.656 9  36982979.902 7
  22586751.844    22586757.737   -16226651.151 9  10584732.021 8
  24286500.445    24286506.026   -52216055.706 9  63527041.867 8
  22839190.326    22839192.831    -1109196.637 9   -535814.170 6
 90  3  8  7 32 59.0800000  0  4G 3G12G19G13
  23587186.672    23587190.562   -39124327.896 9  36970195.823 7
  22592035.224    22592039.431   -16198889.927 9  10606364.138 7
  24283533.886    24283538.786   -52231638.106 9  63514899.727 8
  22842587.942    22842591.371    -1091337.316 9   -521897.804 6
 90  3  8  7 33 14.0800000  0  4G 3G12G19G13
  23584070.672    23584078.386   -39140691.263 9  36957445.151 8
  22597344.079    22597349.945   -16170990.513 9  10628103.905 7
  24280594.613    24280598.948   -52247087.928 9  63502860.911 8
  22845990.792    22845994.755    -1073453.381 9   -507962.246 6
 90  3  8  7 33 29.0800000  0  4G 3G12G19G13
  23580965.580    23580973.917   -39157011.804 8  36944727.847 8
  22602678.315    22602684.821   -16142953.113 9  10649951.228 7
  24277681.364    24277684.324   -52262404.659 9  63490925.802 8
  22849398.001    22849404.167    -1055544.875 9   -494007.556 7
 90  3  8  7 33 44.0800000  0  4G 3G12G19G13
  23577871.187    23577875.249   -39173289.638 9  36932043.851 7
  22608039.477    22608045.358   -16114778.047 8  10671905.819 7
  24274792.464    24274795.401   -52277588.457 8  63479094.279 8
  22852809.322    22852815.765    -1037612.118 9   -480033.970 6
 90  3  8  7 33 59.0800000  0  4G 3G12G19G13
  23574781.281    23574784.492   -39189524.676 9  36919393.184 8
  22613428.636    22613433.010   -16086465.320 9  10693967.694 7
  24271926.448    24271932.166   -52292639.130 9  63467366.465 8
  22856227.172    22856232.060    -1019654.873 8   -466041.290 7
 90  3  8  7 34 14.0800000  0  4G 3G12G19G13
  23571699.719    23571703.346   -39205717.084 9  36906775.734 8
  22618841.770    22618846.434   -16058015.274 9  10716136.563 7
  24269087.693    24269091.974   -52307556.661 9  63455742.422 7
  22859648.713    22859654.252    -1001673.276 8   -452029.662 7
 90  3  8  7 34 29.0800000  0  4G 3G12G19G13
  23568625.589    23568630.185   -39221866.783 9  36894191.571 9
  22624281.896    22624289.350   -16029428.106 9  10738412.272 8
  24266274.431    24266278.641   -52322340.729 9  63444222.354 8
  22863076.098    22863081.681     -983667.160 9   -437998.902 8
 90  3  8  7 34 44.0800000  0  4G 3G12G19G13
  23565562.001    23565565.206   -39237974.090 9  36881640.452 7
  22629749.636    22629755.802   -16000704.340 9  10760794.411 8
  24263487.207    24263490.785   -52336991.465 9  63432806.202 7
  22866508.082    22866513.452     -965637.140 9   -423949.531 7
 90  3  8  7 34 59.0800000  0  4G 3G12G19G13
  23562505.539    23562508.202   -39254039.235 9  36869122.187 7
  22635239.727    22635246.411   -15971844.277 9  10783282.739 7
  24260724.612    24260728.449   -52351508.907 9  63421493.914 7
  22869943.521    22869948.699     -947583.360 9   -409881.651 9
 90  3  8  7 35 14.0800000  0  4G 3G12G19G13
  23559454.706    23559458.942   -39270062.096 9  36856636.849 7
  22640758.241    22640762.742   -15942848.147 9  10805877.121 8
  24257985.981    24257991.144   -52365892.765 9  63410285.717 7
  22873383.362    22873388.917     -929506.029 9   -395795.398 7
 90  3  8  7 35 29.0800000  0  4G 3G12G19G13
  23556412.446    23556418.067   -39286043.236 9  36844184.041 8
  22646300.357    22646306.692   -15913716.462 9  10828577.121 7
  24255273.376    24255279.873   -52380143.084 8  63399181.564 8
  22876826.469    22876832.409     -911405.356 9   -381690.981 8
 90  3  8  7 35 44.0800000  0  4G 3G12G19G13
  23553379.099    23553385.405   -39301982.536 9  36831763.817 9
  22651870.296    22651877.103   -15884449.520 9  10851382.526 7
  24252588.560    24252593.225   -52394259.957 9  63388181.406 7
  22880275.061    22880281.052     -893281.401 9   -367568.435 7
 90  3  8  7 35 59.0800000  0  4G 3G12G19G13
  23550355.301    23550359.178   -39317879.626 9  36819376.484 7
  22657466.936    22657471.781   -15855047.120 9  10874293.481 8
  24249928.790    24249931.915   -52408242.734 9  63377285.734 7
  22883730.931    22883732.931     -875133.782 9   -353427.426 9
 90  3  8  7 36 14.0800000  0  4G 3G12G19G13
  23547338.246    23547342.911   -39333734.904 9  36807021.725 7
  22663087.500    22663092.917   -15825509.613 9  10897309.699 7
  24247293.140    24247297.736   -52422091.503 9  63366494.495 7
  22887187.809    22887191.596     -856962.901 9   -339268.312 8
 90  3  8  7 36 29.0800000  0  4G 3G12G19G13
  23544328.307    23544334.378   -39349548.364 8  36794699.558 8
  22668730.953    22668739.012   -15795837.369 8  10920430.886 8
  24244682.692    24244686.369   -52435806.301 9  63355807.643 8
  22890649.256    22890653.574     -838768.806 8   -325091.112 7
 90  3  8  7 36 44.0800000  0  4G 3G12G19G13
  23541325.961    23541331.591   -39365320.200 9  36782409.823 8
  22674403.202    22674410.971   -15766030.769 9  10943656.808 7
  24242097.690    24242103.300   -52449387.382 9  63345224.982 7
  22894116.314    22894119.893     -820551.687 9   -310895.970 7
 90  3  8  7 36 59.0800000  0  4G 3G12G19G13
  23538331.763    23538340.397   -39381050.721 9  36770152.268 8
  22680103.242    22680108.488   -15736090.151 9  10966987.132 7
  24239539.189    24239545.680   -52462834.367 8  63334746.812 7
  22897585.985    22897590.973     -802311.727 9   -296682.988 6
 90  3  8  7 37 14.0800000  0  4G 3G12G19G13
  23535348.938    23535352.638   -39396739.746 8  36757927.054 7
  22685826.545    22685829.503   -15706015.666 9  10990421.820 8
  24237006.834    24237012.118   -52476146.927 9  63324373.403 7
  22901060.243    22901067.786     -784048.926 9   -282452.254 8
 90  3  8  7 37 29.0800000  0  4G 3G12G19G13
  23532369.954    23532374.142   -39412387.445 9  36745734.063 7
  22691574.492    22691578.818   -15675807.372 9  11013960.749 6
  24234499.830    24234503.293   -52489324.983 9  63314104.770 8
  22904542.389    22904546.871     -765763.217 9   -268203.644 7
 90  3  8  7 37 44.0800000  0  4G 3G12G19G13
  23529401.763    23529404.265   -39427993.636 9  36733573.399 7
  22697346.701    22697352.435   -15645465.768 8  11037603.531 7
  24232017.935    24232020.130   -52502368.789 9  63303940.781 8
  22908027.008    22908031.144     -747454.928 9   -253937.449 8
 90  3  8  7 37 59.0800000  0  4G 3G12G19G13
  23526441.018    23526443.158   -39443558.783 9  36721444.741 7
  22703145.674    22703151.862   -15614991.153 8  11061349.958 7
  24229559.146    24229563.831   -52515278.049 9  63293881.620 7
  22911514.864    22911520.245     -729124.378 9   -239653.910 8
 90  3  8  7 38 14.0800000  0  4G 3G12G19G13
  23523487.812    23523488.996   -39459082.807 9  36709348.104 7
  22708971.512    22708976.508   -15584383.663 8  11085199.919 7
  24227128.982    24227135.132   -52528052.907 9  63283927.172 8
  22915006.561    22915012.479     -710771.281 9   -225352.798 8
 90  3  8  7 38 29.0800000  0  4G 3G12G19G13
  23520538.078    23520543.200   -39474566.007 9  36697283.255 7
  22714821.138    22714826.087   -15553643.870 8  11109152.990 6
  24224724.741    24224730.953   -52540693.344 8  63274077.480 8
  22918503.483    22918509.807     -692395.990 9   -211034.407 7
 90  3  8  7 38 44.0800000  0  4G 3G12G19G13
  23517599.726    23517603.719   -39490008.292 9  36685250.311 7
  22720695.545    22720700.748   -15522771.940 9  11133209.046 7
  24222345.637    24222349.174   -52553198.900 9  63264332.900 9
  22922005.048    22922010.787     -673998.700 9   -196698.877 8
 90  3  8  7 38 59.0800000  0  4G 3G12G19G13
  23514670.478    23514672.735   -39505409.642 9  36673249.295 8
  22726595.624    22726600.995   -15491768.189 9  11157367.795 7
  24219989.903    24219994.591   -52565569.494 8  63254693.473 8
  22925508.783    22925515.252     -655579.480 9   -182346.229 7
 90  3  8  7 39 14.0800000  0  4G 3G12G19G13
  23511748.133    23511750.515   -39520770.385 9  36661279.922 7
  22732521.659    22732525.953   -15460633.077 9  11181628.916 7
  24217660.716    24217666.088   -52577805.315 9  63245159.077 8
  22929017.770    22929023.621     -637138.354 9   -167976.486 8
 90  3  8  7 39 29.0800000  0  4G 3G12G19G13
  23508832.053    23508835.650   -39536090.647 9  36649342.062 8
  22738471.563    22738475.969   -15429366.851 8  11205992.182 7
  24215358.516    24215361.833   -52589906.506 9  63235729.571 8
  22932529.646    22932538.945     -618675.543 8   -153589.883 8
 90  3  8  7 39 44.0800000  0  4G 3G12G19G13
  23505922.766    23505927.394   -39551370.557 9  36637435.630 9
  22744445.764    22744450.729   -15397969.961 9  11230457.272 8
  24213082.342    24213086.203   -52601872.917 9  63226405.097 8
  22936047.144    22936054.716     -600191.204 9   -139186.497 7
 90  3  8  7 39 59.0800000  0  4G 3G12G19G13
  23503023.226    23503028.081   -39566609.991 9  36625560.744 8
  22750446.323    22750449.288   -15366442.427 9  11255024.182 6
  24210829.170    24210836.268   -52613704.004 7  63217186.053 8
  22939569.719    22939573.651     -581685.315 9   -124766.297 7
 90  3  8  7 40 14.0800000  0  4G 3G12G19G13
  23500131.300    23500134.962   -39581808.986 9  36613717.377 8
  22756469.950    22756471.626   -15334784.531 9  11279692.696 7
  24208601.933    24208608.790   -52625399.905 9  63208072.386 8
  22943095.163    22943098.010     -563157.986 9   -110329.435 6
 90  3  8  7 40 29.0800000  0  4G 3G12G19G13
  23497247.161    23497251.369   -39596967.815 9  36601905.311 8
  22762518.556    22762523.477   -15302996.608 8  11304462.487 7
  24206403.481    24206409.605   -52636960.942 9  63199063.780 7
  22946626.347    22946627.359     -544609.251 9    -95875.870 6
 90  3  8  7 40 44.0800000  0  4G 3G12G19G13
  23494370.096    23494374.187   -39612086.332 9  36590124.643 7
  22768591.321    22768597.982   -15271079.005 7  11329333.341 7
  24204231.334    24204234.413   -52648386.641 9  63190160.636 8
  22950159.830    22950162.679     -526039.044 9    -81405.575 7
 90  3  8  7 40 59.0800000  0  4G 3G12G19G13
  23491500.475    23491504.806   -39627165.021 9  36578375.027 9
  22774690.441    22774694.658   -15239032.258 7  11354304.825 7
  24202082.208    24202085.476   -52659677.006 9  63181362.951 8
  22953698.220    22953700.989     -507448.014 8    -66919.075 7
 90  3  8  7 41 14.0800000  0  4G 3G12G19G13
  23488638.465    23488642.028   -39642203.874 9  36566656.462 9
  22780811.876    22780816.042   -15206856.481 8  11379376.840 6
  24199959.102    24199964.121   -52670832.008 8  63172670.745 8
  22957240.341    22957243.463     -488835.912 9    -52416.116 8
 90  3  8  7 41 29.0800000  0  4G 3G12G19G13
  23485783.106    23485787.086   -39657202.828 9  36554968.974 8
  22786957.331    22786963.826   -15174551.976 8  11404549.162 6
  24197860.802    24197868.412   -52681852.024 9  63164083.708 8
  22960785.948    22960791.841     -470202.778 9    -37896.778 8
 90  3  8  7 41 44.0800000  0  4G 3G12G19G13
  23482937.827    23482941.212   -39672162.203 9  36543312.341 8
  22793131.522    22793135.925   -15142119.268 8  11429821.395 6
  24195789.890    24195797.571   -52692736.888 9  63155602.017 8
  22964334.052    22964342.464     -451549.069 9    -23361.444 8
 90  3  8  7 41 59.0800000  0  4G 3G12G19G13
  23480097.388    23480104.725   -39687081.834 9  36531686.644 8
  22799328.373    22799334.315   -15109558.368 9  11455193.527 7
  24193745.605    24193750.549   -52703486.086 9  63147226.014 8
  22967888.119    22967895.033     -432874.525 8     -8809.855 8
 90  3  8  7 42 14.0800000  0  4G 3G12G19G13
  23477265.073    23477274.187   -39701961.979 9  36520091.702 9
  22805547.604    22805552.995   -15076869.686 8  11480665.216 6
  24191726.548    24191731.127   -52714099.500 8  63138955.808 8
  22971445.835    22971451.991     -414179.316 9      5757.840 7
 90  3  8  7 42 29.0800000  0  4G 3G12G19G13
  23474442.234    23474448.099   -39716802.585 9  36508527.607 8
  22811791.727    22811797.999   -15044053.491 8  11506236.241 7
  24189733.719    24189737.571   -52724577.482 9  63130791.156 8
  22975007.904    22975013.583     -395463.688 9     20341.437 8
 90  3  8  7 42 44.0800000  0  4G 3G12G19G13
  23471624.783    23471629.187   -39731603.697 9  36496994.267 8
  22818060.848    22818067.560   -15011109.968 9  11531906.511 7
  24187763.406    24187769.247   -52734919.906 9  63122732.130 8
  22978574.096    22978576.780     -376727.406 9     34941.135 7
 90  3  8  7 42 59.0800000  0  4G 3G12G19G13
  23468815.563    23468821.702   -39746365.464 9  36485491.613 8
  22824354.801    22824359.348   -14978039.590 9  11557675.620 6
  24185819.921    24185825.659   -52745126.574 9  63114778.871 8
  22982142.545    22982146.359     -357970.715 9     49556.746 6
 90  3  8  7 43 14.0800000  0  4G 3G12G19G13
  23466013.317    23466018.601   -39761088.052 9  36474019.491 8
  22830671.820    22830677.110   -14944842.812 8  11583543.240 6
  24183905.643    24183911.031   -52755197.498 9  63106931.383 7
  22985715.594    22985716.542     -339193.962 9     64187.963 6
 90  3  8  7 43 29.0800000  0  4G 3G12G19G13
  23463220.222    23463226.358   -39775771.606 9  36462577.762 7
  22837013.509    22837017.627   -14911520.039 8  11609509.030 7
  24182016.251    24182020.509   -52765132.768 9  63099189.630 7
  22989292.000    22989296.428     -320397.446 8     78834.585 7
 90  3  8  7 43 44.0800000  0  4G 3G12G19G13
  23460433.784    23460438.028   -39790416.275 8  36451166.346 7
  22843378.694    22843384.060   -14878071.466 9  11635572.835 7
  24180152.319    24180154.434   -52774932.322 8  63091553.602 8
  22992870.531    22992878.420     -301580.848 8     93496.844 7
 90  3  8  7 43 59.0800000  0  4G 3G12G19G13
  23457655.139    23457658.181   -39805021.995 9  36439785.274 8
  22849769.149    22849771.979   -14844497.113 9  11661734.674 6
  24178309.180    24178315.107   -52784596.096 9  63084023.383 8
  22996455.934    22996463.177     -282744.329 8    108174.634 7
 90  3  8  7 44 14.0800000  0  4G 3G12G19G13
  23454884.546    23454885.247   -39819588.714 9  36428434.593 7
  22856181.954    22856185.887   -14810797.396 9  11687994.181 7
  24176495.307    24176501.515   -52794123.916 8  63076599.100 7
  23000044.728    23000050.023     -263888.037 9    122867.845 7
 90  3  8  7 44 29.0800000  0  4G 3G12G19G13
  23452118.789    23452122.018   -39834116.719 9  36417114.096 8
  22862617.114    22862623.894   -14776972.525 9  11714351.188 8
  24174710.391    24174715.019   -52803515.760 9  63069280.769 7
  23003636.796    23003643.333     -245011.891 8    137576.549 8
 90  3  8  7 44 44.0800000  0  4G 3G12G19G13
  23449360.101    23449366.697   -39848606.018 8  36405823.755 7
  22869077.425    22869082.191   -14743022.896 9  11740805.397 8
  24172949.819    24172954.485   -52812771.620 9  63062068.429 8
  23007233.217    23007239.536     -226116.142 8    152300.503 7
 90  3  8  7 44 59.0800000  0  4G 3G12G19G13
  23446610.418    23446615.835   -39863056.955 9  36394563.284 8
  22875562.235    22875567.284   -14708949.220 9  11767356.298 7
  24171212.586    24171219.589   -52821891.603 8  63054961.946 7
  23010833.364    23010838.703     -207201.106 9    167039.492 8
 90  3  8  7 45 14.0800000  0  4G 3G12G19G13
  23443868.443    23443871.457   -39877469.589 9  36383332.674 8
  22882069.025    22882075.125   -14674751.468 9  11794003.900 7
  24169500.661    24169509.383   -52830875.436 8  63047961.558 9
  23014435.240    23014441.042     -188266.782 9    181793.507 8
 90  3  8  7 45 29.0800000  0  4G 3G12G19G13
  23441133.202    23441135.544   -39891843.548 9  36372132.200 7
  22888601.856    22888604.685   -14640429.819 9  11820748.027 7
  24167820.158    24167824.366   -52839723.153 9  63041067.221 8
  23018041.173    23018047.706     -169313.094 9    196562.619 8
 90  3  8  7 45 44.0800000  0  4G 3G12G19G13
  23438405.441    23438407.626   -39906179.274 9  36360961.533 8
  22895155.459    22895160.754   -14605984.875 9  11847588.231 8
  24166163.602    24166166.430   -52848434.862 8  63034278.875 8
  23021653.313    23021658.896     -150340.177 9    211346.710 7
 90  3  8  7 45 59.0800000  0  4G 3G12G19G13
  23435683.442    23435688.015   -39920476.649 9  36349820.726 8
  22901733.595    22901739.651   -14571416.698 8  11874524.467 8
  24164531.253    24164535.026   -52857010.435 8  63027596.599 8
  23025267.871    23025273.537     -131347.918 8    226145.882 7
 90  3  8  7 46 14.0800000  0  4G 3G12G19G13
  23432969.713    23432975.618   -39934735.887 8  36338709.623 8
  22908335.767    22908342.394   -14536725.872 9  11901556.255 7
  24162924.109    24162929.034   -52865450.025 9  63021020.281 8
  23028885.876    23028889.952     -112336.557 9    240959.931 8
 90  3  8  7 46 29.0800000  0  4G 3G12G19G13
  23430263.768    23430270.164   -39948957.073 9  36327628.196 9
  22914958.488    22914966.164   -14501912.708 9  11928683.388 6
  24161344.212    24161350.243   -52873753.314 8  63014550.185 7
  23032505.329    23032510.452      -93306.124 8    255788.832 7
 90  3  8  7 46 44.0800000  0  4G 3G12G19G13
  23427564.148    23427571.899   -39963140.308 9  36316576.331 8
  22921607.509    22921613.155   -14466977.533 9  11955905.602 7
  24159792.001    24159795.196   -52881920.160 9  63008186.415 8
  23036131.266    23036137.288      -74256.787 9    270632.473 8
 90  3  8  7 46 59.0800000  0  4G 3G12G19G13
  23424873.381    23424879.310   -39977285.578 8  36305554.063 7
  22928279.710    22928284.250   -14431920.632 9  11983222.663 6
  24158262.942    24158265.009   -52889950.579 9  63001928.943 8
  23039759.345    23039764.820      -55188.625 9    285490.796 9
 90  3  8  7 47 14.0800000  0  4G 3G12G19G13
  23422188.280    23422192.249   -39991393.042 8  36294561.234 8
  22934974.405    22934977.210   -14396742.395 9  12010634.273 7
  24156760.418    24156763.038   -52897844.807 8  62995777.582 8
  23043392.118    23043397.875      -36101.757 9    300363.682 8
 90  3  8  7 47 29.0800000  0  4G 3G12G19G13
  23419513.235    23419514.770   -40005462.943 9  36283597.680 8
  22941691.115    22941694.827   -14361443.318 9  12038140.040 6
  24155283.545    24155288.857   -52905603.095 9  62989732.145 7
  23047026.400    23047032.720      -16996.423 8    315250.949 7
 90  3  8  7 47 44.0800000  0  4G 3G12G19G13
  23416841.117    23416845.090   -40019495.167 9  36272663.501 7
  22948431.343    22948435.786   -14326023.506 9  12065739.906 7
  24153831.796    24153838.234   -52913224.761 8  62983793.174 8
  23050664.584    23050673.437        2127.255 8    330152.514 7
 90  3  8  7 47 59.0800000  0  4G 3G12G19G13
  23414176.287    23414182.512   -40033489.904 8  36261758.529 7
  22955194.491    22955199.365   -14290483.403 9  12093433.484 7
  24152407.080    24152415.169   -52920710.041 9  62977960.491 8
  23054309.190    23054314.247       21269.613 9    345068.625 7
 90  3  8  7 48 14.0800000  0  4G 3G12G19G13
  23411520.120    23411526.845   -40047447.080 8  36250882.829 8
  22961979.221    22961984.969   -14254823.459 9  12121220.443 8
  24151009.869    24151015.950   -52928058.986 8  62972234.067 8
  23057954.908    23057961.795       40430.441 8    359999.149 8
 90  3  8  7 48 29.0800000  0  4G 3G12G19G13
  23408871.793    23408877.689   -40061366.926 9  36240036.199 8
  22968787.415    22968792.829   -14219043.852 9  12149100.629 7
  24149639.015    24149642.618   -52935271.790 9  62966613.704 8
  23061604.891    23061611.432       59609.520 9    374943.885 8
 90  3  8  7 48 44.0800000  0  4G 3G12G19G13
  23406233.197    23406237.180   -40075249.815 9  36229218.376 7
  22975618.309    22975624.330   -14183145.095 9  12177073.676 7
  24148291.483    24148297.029   -52942348.266 9  62961099.553 8
  23065257.766    23065264.014       78806.668 8    389902.686 8
 90  3  8  7 48 59.0800000  0  4G 3G12G19G13
  23403598.046    23403600.511   -40089095.374 9  36218429.658 8
  22982472.840    22982478.130   -14147127.391 9  12205139.381 7
  24146969.342    24146975.322   -52949288.447 9  62955691.609 8
  23068912.997    23068919.169       98021.920 9    404875.587 8
 90  3  8  7 49 14.0800000  0  4G 3G12G19G13
  23400970.086    23400971.693   -40102903.859 9  36207669.798 8
  22989349.186    22989354.108   -14110990.933 9  12233297.652 7
  24145674.415    24145681.173   -52956092.002 9  62950390.131 8
  23072574.405    23072578.202      117255.245 9    419862.591 7
 90  3  8  7 49 29.0800000  0  4G 3G12G19G13
  23398348.261    23398353.488   -40116675.103 9  36196938.965 8
  22996249.554    22996253.082   -14074736.128 9  12261548.149 8
  24144407.067    24144413.328   -52962759.036 8  62945195.049 8
  23076238.869    23076243.125      136506.506 9    434863.569 8
 90  3  8  7 49 44.0800000  0  4G 3G12G19G13
  23395734.391    23395740.539   -40130409.591 9  36186236.776 7
  23003170.963    23003174.324   -14038363.562 9  12289890.418 7
  24143164.865    24143170.759   -52969289.853 9  62940106.103 8
  23079905.623    23079909.794      155775.456 9    449878.325 8
 90  3  8  7 49 59.0800000  0  4G 3G12G19G13
  23393128.601    23393133.657   -40144107.488 9  36175563.104 7
  23010114.757    23010119.574   -14001873.476 9  12318324.237 8
  24141947.487    24141953.502   -52975684.425 8  62935123.313 8
  23083577.019    23083581.533      175061.876 9    464906.704 8
 90  3  8  7 50 14.0800000  0  4G 3G12G19G13
  23390529.232    23390533.930   -40157768.630 9  36164918.081 8
  23017079.864    23017085.859   -13965266.075 8  12346849.471 8
  24140757.053    24140760.684   -52981942.596 8  62930246.802 7
  23087249.183    23087254.645      194365.953 9    479948.847 8
 90  3  8  7 50 29.0800000  0  4G 3G12G19G13
  23387937.188    23387942.797   -40171393.106 9  36154301.621 8
  23024068.905    23024072.778   -13928541.824 8  12375465.759 7
  24139592.890    24139594.540   -52988064.195 8  62925476.733 8
  23090924.879    23090930.979      213687.647 9    495004.669 8
 90  3  8  7 50 44.0800000  0  4G 3G12G19G13
  23385352.032    23385356.358   -40184980.982 9  36143713.662 8
  23031078.512    23031084.932   -13891701.002 8  12404172.866 8
  24138452.675    24138456.678   -52994049.452 8  62920812.899 8
  23094605.393    23094611.124      233026.991 9    510074.266 9
 90  3  8  7 50 59.0800000  0  4G 3G12G19G13
  23382772.954    23382778.214   -40198531.996 9  36133154.435 8
  23038111.226    23038117.169   -13854743.721 8  12432970.699 7
  24137338.039    24137345.185   -52999898.029 8  62916255.568 8
  23098288.853    23098293.843      252384.128 9    525157.752 8
 90  3  8  7 51 14.0800000  0  4G 3G12G19G13
  23380199.511    23380203.957   -40212046.690 8  36122623.530 8
  23045166.653    23045171.735   -13817670.609 8  12461858.815 8
  24136252.157    24136259.542   -53005610.038 9  62911804.626 8
  23101975.349    23101981.535      271758.601 8    540254.753 8
 90  3  8  7 51 29.0800000  0  4G 3G12G19G13
  23377634.351    23377639.266   -40225525.023 7  36112120.908 8
  23052242.839    23052248.607   -13780482.191 9  12490836.790 7
  24135192.755    24135197.576   -53011185.537 9  62907460.070 7
  23105665.467    23105671.746      291150.227 8    555365.097 7
 90  3  8  7 51 44.0800000  0  4G 3G12G19G13
  23375077.899    23375082.311   -40238967.095 9  36101646.587 8
  23059340.816    23059346.593   -13743178.754 8  12519904.392 7
  24134157.297    24134160.709   -53016624.585 8  62903221.858 7
  23109358.652    23109364.489      310558.947 8    570488.785 8
 90  3  8  7 51 59.0800000  0  4G 3G12G19G13
  23372527.027    23372530.967   -40252373.094 9  36091200.361 8
  23066461.073    23066468.526   -13705760.437 9  12549061.512 8
  24133147.423    24133150.345   -53021927.492 9  62899089.725 7
  23113054.464    23113060.159      329984.991 9    585625.981 8
 90  3  8  7 52 14.0800000  0  4G 3G12G19G13
  23369980.201    23369986.428   -40265743.098 8  36080782.192 8
  23073604.533    23073609.929   -13668227.716 9  12578307.787 8
  24132164.856    24132168.733   -53027093.973 9  62895063.906 8
  23116756.985    23116761.140      349427.998 9    600776.392 8
 90  3  8  7 52 29.0800000  0  4G 3G12G19G13
  23367443.106    23367450.202   -40279076.890 9  36070392.239 8
  23080768.712    23080774.519   -13630580.811 9  12607643.017 8
  24131208.986    24131213.177   -53032123.767 8  62891144.583 8
  23120459.048    23120465.032      368887.980 8    615940.009 8
 90  3  8  7 52 44.0800000  0  4G 3G12G19G13
  23364913.078    23364918.108   -40292374.842 9  36060030.224 8
  23087953.271    23087959.737   -13592820.290 8  12637066.776 8
  24130276.611    24130281.449   -53037017.371 8  62887331.372 8
  23124164.967    23124170.967      388364.949 9    631116.834 7
 90  3  8  7 52 59.0800000  0  4G 3G12G19G13
  23362392.067    23362395.860   -40305637.018 8  36049696.069 8
  23095160.700    23095167.411   -13554946.497 8  12666578.803 8
  24129371.963    24129375.583   -53041774.579 9  62883624.446 8
  23127874.666    23127881.020      407858.744 7    646306.789 7
 90  3  8  7 53 14.0800000  0  4G 3G12G19G13
  23359872.672    23359879.474   -40318863.406 9  36039389.807 7
  23102389.631    23102396.240   -13516959.569 9  12696178.996 7
  24128492.369    24128496.583   -53046395.298 9  62880023.891 8
  23131587.066    23131591.591      427369.179 8    661509.712 7
 90  3  8  7 53 29.0800000  0  4G 3G12G19G13
  23357362.289    23357368.921   -40332054.350 8  36029111.147 9
  23109640.215    23109646.517   -13478860.187 8  12725866.812 8
  24127640.032    24127642.529   -53050879.822 9  62876529.451 8
  23135303.535    23135308.114      446895.970 8    676725.398 7
 90  3  8  7 53 44.0800000  0  4G 3G12G19G13
  23354857.104    23354865.060   -40345209.570 9  36018860.342 8
  23116909.518    23116918.016   -13440648.451 8  12755642.155 8
  24126811.358    24126816.011   -53055228.134 9  62873141.151 9
  23139022.894    23139028.000      466439.567 9    691954.164 7
 90  3  8  7 53 59.0800000  0  4G 3G12G19G13
  23352363.267    23352368.015   -40358329.165 9  36008637.311 8
  23124204.537    23124210.776   -13402324.755 9  12785504.736 7
  24126010.521    24126014.126   -53059440.195 9  62869859.013 8
  23142744.825    23142749.435      485999.825 9    707195.924 7
 90  3  8  7 54 14.0800000  0  4G 3G12G19G13
  23349875.385    23349877.385   -40371413.277 9  35998441.914 8
  23131518.525    23131523.622   -13363889.581 9  12815454.220 7
  24125235.760    24125237.736   -53063515.687 8  62866683.294 8
  23146469.799    23146473.370      505576.573 8    722450.548 7
 90  3  8  7 54 29.0800000  0  4G 3G12G19G13
  23347394.752    23347393.892   -40384462.028 9  35988274.069 8
  23138853.965    23138859.261   -13325343.307 9  12845490.270 7
  24124485.885    24124489.950   -53067455.014 8  62863613.689 7
  23150198.574    23150203.322      525169.851 9    737718.024 7
 90  3  8  7 54 44.0800000  0  4G 3G12G19G13
  23344915.406    23344918.540   -40397475.633 9  35978133.607 8
  23146210.173    23146214.650   -13286686.374 9  12875612.549 7
  24123761.582    24123763.895   -53071258.052 9  62860650.276 8
  23153929.106    23153937.044      544779.334 9    752998.132 7
 90  3  8  7 54 59.0800000  0  4G 3G12G19G13
  23342442.894    23342449.903   -40410454.081 9  35968020.540 7
  23153587.096    23153591.338   -13247919.042 9  12905820.865 7
  24123062.439    24123065.952   -53074924.762 9  62857793.089 8
  23157663.594    23157669.716      564405.098 8    768290.931 8
 90  3  8  7 55 14.0800000  0  4G 3G12G19G13
  23339980.225    23339988.514   -40423397.414 8  35957934.840 8
  23160983.346    23160988.662   -13209041.527 8  12936115.006 7
  24122392.997    24122396.475   -53078455.104 9  62855042.170 8
  23161402.729    23161407.792      584047.139 9    783596.407 8
 90  3  8  7 55 29.0800000  0  4G 3G12G19G13
  23337524.157    23337530.267   -40436305.639 9  35947876.498 8
  23168403.837    23168408.961   -13170054.394 9  12966494.554 7
  24121746.394    24121751.270   -53081849.341 9  62852397.302 7
  23165143.192    23165146.211      603705.189 9    798914.389 7
 90  3  8  7 55 44.0800000  0  4G 3G12G19G13
  23335075.224    23335079.610   -40449179.044 8  35937845.288 8
  23175844.412    23175848.733   -13130957.881 8  12996959.335 8
  24121124.197    24121129.947   -53085107.543 8  62849858.435 8
  23168887.798    23168891.284      623378.944 9    814244.606 8
 90  3  8  7 55 59.0800000  0  4G 3G12G19G13
  23332631.260    23332634.848   -40462017.797 8  35927841.083 7
  23183304.282    23183311.473   -13091752.392 9  13027509.029 6
  24120530.893    24120536.378   -53088229.642 9  62847425.644 8
  23172632.685    23172638.609      643068.490 9    829587.101 8
 90  3  8  7 56 14.0800000  0  4G 3G12G19G13
  23330195.397    23330197.746   -40474821.689 9  35917864.014 8
  23190784.634    23190788.989   -13052438.376 8  13058143.328 7
  24119963.370    24119967.948   -53091215.999 9  62845098.609 8
  23176383.646    23176390.674      662773.816 9    844941.884 8
 90  3  8  7 56 29.0800000  0  4G 3G12G19G13
  23327764.582    23327769.819   -40487590.771 8  35907914.081 8
  23198286.620    23198291.874   -13013015.953 9  13088862.076 7
  24119420.708    24119425.314   -53094066.018 9  62842877.813 7
  23180136.117    23180142.075      682495.143 8    860309.148 8
 90  3  8  7 56 44.0800000  0  4G 3G12G19G13
  23325342.367    23325345.962   -40500325.185 8  35897991.166 8
  23205809.795    23205814.474   -12973485.649 9  13119664.909 7
  24118903.696    24118909.815   -53096780.022 9  62840762.987 8
  23183892.544    23183898.067      702232.206 9    875688.682 8
 90  3  8  7 56 59.0800000  0  4G 3G12G19G13
  23322924.659    23322929.540   -40513025.005 9  35888095.217 8
  23213352.471    23213358.150   -12933847.838 8  13150551.524 6
  24118411.898    24118419.362   -53099358.158 9  62838754.049 8
  23187651.116    23187656.336      721984.970 9    891080.442 9
 90  3  8  7 57 14.0800000  0  4G 3G12G19G13
  23320512.796    23320520.959   -40525690.377 9  35878226.111 8
  23220915.056    23220920.237   -12894103.088 8  13181521.447 7
  24117949.032    24117954.697   -53101800.317 9  62836851.072 8
  23191412.384    23191418.210      741753.296 9    906484.348 7
 90  3  8  7 57 29.0800000  0  4G 3G12G19G13
  23318108.822    23318118.251   -40538321.481 9  35868383.705 8
  23228498.533    23228504.529   -12854251.685 8  13212574.488 7
  24117510.925    24117515.863   -53104106.465 8  62835054.072 8
  23195178.088    23195182.896      761537.337 8    921900.474 7
 90  3  8  7 57 44.0800000  0  4G 3G12G19G13
  23315713.070    23315721.054   -40550918.143 8  35858568.116 8
  23236102.004    23236106.994   -12814293.995 8  13243710.323 7
  24117096.937    24117104.529   -53106276.609 8  62833363.054 8
  23198944.044    23198949.755      781336.972 8    937328.757 7
 90  3  8  7 57 59.0800000  0  4G 3G12G19G13
  23313323.633    23313329.787   -40563480.423 8  35848779.324 7
  23243725.322    23243731.626   -12774230.286 9  13274928.813 7
  24116709.438    24116716.238   -53108310.883 7  62831777.889 8
  23202714.615    23202721.391      801152.065 8    952769.068 7
 90  3  8  7 58 14.0800000  0  4G 3G12G19G13
  23310941.109    23310943.598   -40576008.821 9  35839016.936 8
  23251369.121    23251375.421   -12734061.005 9  13306229.533 7
  24116347.400    24116353.954   -53110209.356 8  62830298.543 8
  23206490.678    23206495.451      820982.541 9    968221.383 8
 90  3  8  7 58 29.0800000  0  4G 3G12G19G13
  23308563.350    23308565.198   -40588502.776 9  35829281.402 7
  23259034.590    23259040.018   -12693786.238 9  13337612.458 7
  24116013.070    24116018.646   -53111972.158 8  62828924.938 8
  23210266.221    23210270.874      840828.501 9    983685.765 7
 90  3  8  7 58 44.0800000  0  4G 3G12G19G13
  23306189.055    23306195.899   -40600962.980 8  35819572.149 7
  23266719.132    23266724.561   -12653406.762 9  13369076.977 8
  24115702.583    24115709.337   -53113599.485 8  62827656.899 9
  23214046.899    23214050.291      860689.398 9    999161.781 8
 90  3  8  7 58 59.0800000  0  4G 3G12G19G13
  23303824.282    23303831.254   -40613389.286 8  35809889.323 9
  23274423.025    23274427.726   -12612923.061 9  13400622.711 8
  24115419.410    24115425.102   -53115091.103 8  62826494.600 7
  23217829.316    23217831.319      880565.584 9   1014649.732 8
 90  3  8  7 59 14.0800000  0  4G 3G12G19G13
  23301467.598    23301475.223   -40625781.798 8  35800232.823 8
  23282146.090    23282151.657   -12572335.416 9  13432249.428 8
  24115160.175    24115167.419   -53116447.150 9  62825437.932 8
  23221613.949    23221618.016      900456.896 9   1030149.473 7
 90  3  8  7 59 29.0800000  0  4G 3G12G19G13
  23299118.841    23299123.639   -40638140.456 9  35790602.711 8
  23289888.762    23289894.463   -12531644.035 8  13463956.968 7
  24114928.497    24114935.101   -53117667.552 9  62824486.955 9
  23225402.737    23225406.939      920363.389 9   1045661.026 9
 90  3  8  7 59 44.0800000  0  4G 3G12G19G13
  23296772.466    23296776.719   -40650465.263 8  35780998.977 8
  23297651.126    23297656.009   -12490849.272 8  13495745.059 6
  24114723.847    24114726.626   -53118752.202 9  62823641.782 8
  23229193.843    23229197.251      940285.038 8   1061184.391 8
 90  3  8  7 59 59.0800000  0  4G 3G12G19G13
  23294430.108    23294436.239   -40662756.240 8  35771421.610 8
  23305434.577    23305440.256   -12449951.407 8  13527613.497 7
  24114543.408    24114546.996   -53119701.361 9  62822902.152 8
  23232984.803    23232989.627      960221.721 9   1076719.455 7
 90  3  8  8  0 14.0800000  0  4G 3G12G19G13
  23292098.447    23292103.893   -40675013.888 8  35761870.193 7
  23313237.355    23313242.944   -12408950.962 8  13559561.894 8
  24114387.517    24114392.342   -53120515.142 9  62822268.036 7
  23236782.195    23236786.420      980173.195 9   1092266.062 8
 90  3  8  8  0 29.0800000  0  4G 3G12G19G13
  23289773.965    23289777.831   -40687237.888 8  35752345.000 8
  23321058.257    23321064.021   -12367848.317 8  13591589.923 7
  24114258.591    24114263.006   -53121193.516 8  62821739.427 8
  23240581.665    23240586.112     1000139.623 9   1107824.312 7
 90  3  8  8  0 44.0800000  0  4G 3G12G19G13
  23287455.797    23287458.214   -40699428.461 8  35742845.865 8
  23328899.126    23328905.924   -12326643.903 8  13623697.248 7
  24114156.328    24114158.357   -53121736.720 9  62821316.146 8
  23244385.043    23244388.301     1020120.844 9   1123394.094 9
 90  3  8  8  0 59.0800000  0  4G 3G12G19G13
  23285141.689    23285145.591   -40711585.619 8  35733372.775 7
  23336760.856    23336765.695   -12285337.984 8  13655883.678 6
  24114078.591    24114083.251   -53122144.451 8  62820998.430 8
  23248191.210    23248195.337     1040116.993 9   1138975.529 7
 90  3  8  8  1 14.0800000  0  4G 3G12G19G13
  23282831.883    23282839.835   -40723709.290 9  35723925.767 8
  23344639.807    23344645.881   -12243931.004 8  13688148.865 7
  24114025.186    24114031.771   -53122416.838 9  62820786.164 8
  23251999.539    23252004.492     1060127.829 9   1154568.397 9
 90  3  8  8  1 29.0800000  0  4G 3G12G19G13
  23280531.692    23280537.862   -40735799.933 8  35714504.512 8
  23352537.760    23352545.882   -12202423.412 9  13720492.440 8
  24114000.024    24114006.305   -53122554.377 9  62820678.953 8
  23255808.602    23255815.442     1080153.268 8   1170172.617 8
 90  3  8  8  1 44.0800000  0  4G 3G12G19G13
  23278237.586    23278241.962   -40747857.270 8  35705109.192 7
  23360454.675    23360463.754   -12160815.407 9  13752914.258 7
  24113999.448    24114004.074   -53122557.017 9  62820676.889 7
  23259623.247    23259626.189     1100193.547 8   1185788.414 8
 90  3  8  8  1 59.0800000  0  4G 3G12G19G13
  23275951.484    23275953.150   -40759881.515 9  35695739.667 8
  23368390.593    23368399.535   -12119107.445 8  13785413.951 8
  24114023.644    24114028.346   -53122424.502 9  62820780.175 9
  23263439.949    23263442.458     1120248.366 9   1201415.555 8
 90  3  8  8  2 14.0800000  0  4G 3G12G19G13
  23273668.963    23273670.762   -40771872.913 8  35686395.724 8
  23376347.701    23376354.757   -12077300.192 9  13817991.016 8
  24114075.153    24114079.380   -53122157.117 8  62820988.539 7
  23267259.286    23267261.117     1140317.365 8   1217053.733 6
 90  3  8  8  2 29.0800000  0  4G 3G12G19G13
  23271390.735    23271397.295   -40783831.397 8  35677077.412 9
  23384321.132    23384327.828   -12035393.804 9  13850645.323 8
  24114150.518    24114156.723   -53121755.034 8  62821301.805 8
  23271080.899    23271083.103     1160400.924 9   1232703.266 7
 90  3  8  8  2 44.0800000  0  4G 3G12G19G13
  23269120.672    23269128.904   -40795757.127 8  35667784.641 9
  23392314.997    23392322.866   -11993388.893 8  13883376.418 8
  24114252.028    24114259.730   -53121218.314 9  62821720.014 8
  23274904.086    23274908.226     1180498.732 9   1248363.884 7
 90  3  8  8  2 59.0800000  0  4G 3G12G19G13
  23266857.800    23266863.990   -40807650.124 8  35658517.365 8
  23400328.923    23400333.806   -11951285.872 9  13916183.954 8
  24114381.274    24114386.745   -53120546.994 9  62822243.116 8
  23278730.772    23278735.076     1200610.741 9   1264035.602 7
 90  3  8  8  3 14.0800000  0  4G 3G12G19G13
  23264602.312    23264608.062   -40819510.347 7  35649275.665 8
  23408358.950    23408363.442   -11909085.001 8  13949067.741 8
  24114534.268    24114538.799   -53119741.024 9  62822871.152 7
  23282560.115    23282565.678     1220737.075 9   1279718.454 8
 90  3  8  8  3 29.0800000  0  4G 3G12G19G13
  23262353.287    23262357.757   -40831338.030 8  35640059.312 8
  23416408.306    23416413.250   -11866786.668 8  13982027.460 9
  24114711.813    24114717.068   -53118800.566 8  62823603.990 8
  23286393.899    23286398.888     1240877.663 9   1295412.432 8
 90  3  8  8  3 44.0800000  0  4G 3G12G19G13
  23260108.289    23260112.113   -40843132.945 7  35630868.465 8
  23424475.715    23424481.523   -11824391.313 8  14015062.780 8
  24114917.786    24114922.204   -53117725.512 9  62824441.687 8
  23290228.466    23290233.493     1261032.381 8   1311117.399 8
 90  3  8  8  3 59.0800000  0  4G 3G12G19G13
  23257869.996    23257874.700   -40854895.437 9  35621702.881 8
  23432560.917    23432567.825   -11781899.160 9  14048173.512 9
  24115148.266    24115152.643   -53116515.962 9  62825384.186 8
  23294065.892    23294071.439     1281201.283 9   1326833.448 7
 90  3  8  8  4 14.0800000  0  4G 3G12G19G13
  23255636.711    23255640.277   -40866625.596 8  35612562.502 9
  23440665.478    23440672.145   -11739310.654 8  14081359.314 9
  24115404.502    24115410.050   -53115172.170 8  62826431.283 8
  23297906.310    23297910.758     1301384.476 9   1342560.609 8
 90  3  8  8  4 29.0800000  0  4G 3G12G19G13
  23253411.403    23253416.898   -40878323.172 8  35603447.503 9
  23448787.879    23448794.546   -11696626.120 8  14114619.950 9
  24115683.799    24115689.994   -53113694.077 8  62827583.028 7
  23301750.474    23301754.360     1321581.773 9   1358298.740 7
 90  3  8  8  4 44.0800000  0  4G 3G12G19G13
  23251190.506    23251197.129   -40889988.523 8  35594357.628 9
  23456928.356    23456935.650   -11653846.059 9  14147955.025 9
  24115991.150    24115995.948   -53112081.839 8  62828839.319 8
  23305596.098    23305600.355     1341793.054 8   1374047.747 7
 90  3  8  8  4 59.0800000  0  4G 3G12G19G13
  23248976.637    23248983.665   -40901621.510 8  35585292.956 8
  23465088.517    23465093.924   -11610970.821 9  14181364.286 8
  24116323.823    24116327.707   -53110335.490 9  62830200.107 8
  23309446.431    23309448.157     1362018.466 9   1389807.790 7
 90  3  8  8  5 14.0800000  0  4G 3G12G19G13
  23246769.706    23246776.076   -40913222.274 8  35576253.399 8
  23473266.209    23473271.425   -11568000.640 9  14214847.539 9
  24116682.348    24116687.246   -53108455.267 8  62831665.217 7
  23313297.077    23313303.044     1382257.732 9   1405578.628 8
 90  3  8  8  5 29.0800000  0  4G 3G12G19G13
  23244570.085    23244573.194   -40924790.961 9  35567238.847 9
  23481460.872    23481465.038   -11524936.154 9  14248404.258 8
  24117066.674    24117069.933   -53106441.005 8  62833234.760 8
  23317150.519    23317157.318     1402510.538 9   1421360.026 7
 90  3  8  8  5 44.0800000  0  4G 3G12G19G13
  23242375.488    23242376.602   -40936327.679 8  35558249.221 8
  23489672.906    23489678.446   -11481777.831 9  14282034.105 9
  24117473.831    24117480.007   -53104293.153 8  62834908.400 8
  23321008.129    23321014.219     1422777.218 9   1437152.253 7
 90  3  8  8  5 59.0800000  0  4G 3G12G19G13
  23240183.459    23240188.291   -40947832.421 8  35549284.507 8
  23497903.439    23497908.111   -11438525.967 9  14315736.826 8
  24117908.859    24117914.369   -53102011.410 9  62836686.381 8
  23324866.748    23324872.558     1443057.707 9   1452955.241 7
 90  3  8  8  6 14.0800000  0  4G 3G12G19G13
  23238000.002    23238004.308   -40959305.330 8  35540344.573 8
  23506150.925    23506156.465   -11395180.930 9  14349512.169 8
  24118368.540    24118373.279   -53099596.179 8  62838568.378 8
  23328727.761    23328732.776     1463351.839 9   1468768.873 7
 90  3  8  8  6 29.0800000  0  4G 3G12G19G13
  23235823.771    23235829.253   -40970746.526 9  35531429.356 9
  23514416.379    23514421.269   -11351743.257 9  14383359.691 7
  24118851.510    24118858.140   -53097047.456 9  62840554.396 8
  23332591.654    23332597.729     1483659.456 9   1484592.991 7
 90  3  8  8  6 44.0800000  0  4G 3G12G19G13
  23233652.903    23233658.146   -40982155.814 9  35522539.029 8
  23522700.073    23522705.914   -11308213.129 9  14417279.250 8
  24119360.885    24119367.971   -53094365.281 7  62842644.400 8
  23336458.697    23336464.836     1503980.743 9   1500427.750 7
 90  3  8  8  6 59.0800000  0  4G 3G12G19G13
  23231490.019    23231492.640   -40993533.407 8  35513673.401 8
  23531000.481    23531006.985   -11264591.163 9  14451270.366 7
  24119897.521    24119905.029   -53091549.747 9  62844838.318 8
  23340329.391    23340334.358     1524315.809 9   1516273.272 7
 90  3  8  8  7 14.0800000  0  4G 3G12G19G13
  23229328.383    23229333.933   -41004879.165 8  35504832.550 9
  23539319.960    23539325.698   -11220877.732 9  14485332.769 8
  24120461.596    24120465.922   -53088600.879 9  62847136.128 8
  23344200.722    23344207.532     1544664.655 8   1532129.513 8
 90  3  8  8  7 29.0800000  0  4G 3G12G19G13
  23227175.136    23227181.019   -41016193.563 9  35496016.141 9
  23547655.895    23547661.786   -11177073.225 9  14519466.134 8
  24121046.937    24121052.324   -53085518.727 9  62849537.807 8
  23348075.789    23348082.203     1565027.088 9   1547996.374 8
 90  3  8  8  7 44.0800000  0  4G 3G12G19G13
  23225027.256    23225033.011   -41027476.333 7  35487224.346 8
  23556009.167    23556013.962   -11133177.897 9  14553670.274 8
  24121657.297    24121664.528   -53082303.676 9  62852043.040 7
  23351953.895    23351958.193     1585403.126 8   1563873.789 8
 90  3  8  8  7 59.0800000  0  4G 3G12G19G13
  23222886.139    23222891.701   -41038727.552 9  35478457.173 9
  23564380.331    23564384.344   -11089192.232 9  14587944.797 7
  24122294.667    24122300.862   -53078955.574 9  62854651.947 8
  23355833.201    23355836.849     1605792.574 8   1579761.647 8
 90  3  8  8  8 14.0800000  0  4G 3G12G19G13
  23220750.787    23220757.682   -41049947.486 9  35469714.360 9
  23572766.370    23572772.396   -11045116.726 8  14622289.321 8
  24122956.820    24122963.841   -53075474.590 9  62857364.387 8
  23359715.539    23359720.163     1626195.334 7   1595659.870 8
 90  3  8  8  8 29.0800000  0  4G 3G12G19G13
  23218621.469    23218629.733   -41061135.991 8  35460996.044 8
  23581170.331    23581175.921   -11000951.690 9  14656703.626 7
  24123646.586    24123652.168   -53071860.764 9  62860180.357 8
  23363600.776    23363606.377     1646611.450 8   1611568.511 7
 90  3  8  8  8 44.0800000  0  4G 3G12G19G13
  23216498.778    23216506.053   -41072293.058 8  35452302.238 8
  23589592.304    23589596.875   -10956697.484 9  14691187.437 8
  24124360.389    24124362.714   -53068114.317 9  62863099.674 8
  23367488.737    23367495.446     1667041.178 9   1627487.774 7
 90  3  8  8  8 59.0800000  0  4G 3G12G19G13
  23214383.961    23214387.397   -41083418.795 9  35443632.842 9
  23598031.831    23598033.578   -10912354.512 8  14725740.420 7
  24125096.607    24125101.354   -53064235.316 8  62866122.257 8
  23371379.029    23371385.475     1687484.471 9   1643417.627 8
 90  3  8  8  9 14.0800000  0  4G 3G12G19G13
  23212271.671    23212274.815   -41094513.326 8  35434987.781 7
  23606484.574    23606489.633   -10867923.071 9  14760362.320 6
  24125859.236    24125864.706   -53060223.909 9  62869248.026 8
  23375271.663    23375276.848     1707941.158 8   1659357.909 6
 90  3  8  8  9 29.0800000  0  4G 3G12G19G13
  23210167.005    23210170.360   -41105576.814 9  35426366.896 9
  23614956.830    23614961.925   -10823403.634 9  14795052.794 7
  24126648.836    24126655.114   -53056080.233 9  62872476.854 9
  23379168.311    23379171.945     1728411.244 9   1675308.654 7
 90  3  8  8  9 44.0800000  0  4G 3G12G19G13
  23208067.058    23208070.439   -41116609.180 8  35417770.251 8
  23623444.156    23623450.763   -10778796.621 8  14829811.477 8
  24127464.164    24127467.672   -53051804.448 8  62875808.632 8
  23383067.415    23383069.006     1748894.382 9   1691269.566 6
 90  3  8  8  9 59.0800000  0  4G 3G12G19G13
  23205974.228    23205976.746   -41127610.503 9  35409197.794 8
  23631950.187    23631954.051   -10734102.479 8  14864638.059 7
  24128302.565    24128306.058   -53047396.407 9  62879243.449 8
  23386967.682    23386971.331     1769390.768 9   1707240.788 7
 90  3  8  8 10 14.0800000  0  4G 3G12G19G13
  23203885.274    23203889.708   -41138580.797 8  35400649.514 9
  23640472.856    23640476.231   -10689321.644 9  14899532.188 6
  24129166.039    24129169.222   -53042856.265 9  62882781.205 8
  23390869.427    23390871.438     1789900.351 9   1723222.281 7
 90  3  8  8 10 29.0800000  0  4G 3G12G19G13
  23201804.852    23201809.203   -41149520.234 8  35392125.299 8
  23649011.769    23649016.705   -10644454.629 8  14934493.465 7
  24130055.025    24130060.336   -53038184.242 9  62886421.740 8
  23394774.491    23394779.452     1810422.974 8   1739213.912 7
 90  3  8  8 10 44.0800000  0  4G 3G12G19G13
  23199728.944    23199732.262   -41160428.817 8  35383625.105 9
  23657564.420    23657571.378   -10599501.789 9  14969521.621 7
  24130969.980    24130974.854   -53033380.468 8  62890164.951 8
  23398684.384    23398687.131     1830958.820 8   1755215.869 7
 90  3  8  8 10 59.0800000  0  4G 3G12G19G13
  23197658.249    23197661.084   -41171306.625 8  35375148.913 8
  23666135.002    23666139.399   -10554463.461 9  15004616.393 6
  24131908.882    24131913.365   -53028445.145 9  62894010.651 8
  23402592.566    23402597.180     1851507.813 9   1771228.059 7
 90  3  8  8 11 14.0800000  0  4G 3G12G19G13
  23195594.344    23195596.950   -41182153.699 8  35366696.654 8
  23674721.645    23674725.310   -10509340.023 9  15039777.509 6
  24132871.970    24132877.523   -53023378.238 9  62897958.869 9
  23406504.790    23406510.135     1872069.599 8   1787250.228 7
 90  3  8  8 11 29.0800000  0  4G 3G12G19G13
  23193536.780    23193540.922   -41192970.168 9  35358268.245 8
  23683324.721    23683330.011   -10464131.975 8  15075004.550 6
  24133861.549    24133866.608   -53018179.664 9  62902009.690 7
  23410419.909    23410424.731     1892644.585 9   1803282.697 7
 90  3  8  8 11 44.0800000  0  4G 3G12G19G13
  23191484.544    23191488.963   -41203756.080 8  35349863.656 9
  23691943.880    23691947.588   -10418839.814 8  15110297.146 7
  24134875.988    24134879.957   -53012850.028 9  62906162.655 8
  23414338.557    23414341.660     1913232.759 9   1819325.438 7
 90  3  8  8 11 59.0800000  0  4G 3G12G19G13
  23189438.010    23189442.420   -41214511.484 9  35341482.822 9
  23700578.082    23700581.186   -10373463.974 8  15145654.967 6
  24135914.639    24135920.956   -53007389.317 8  62910417.735 8
  23418259.606    23418263.307     1933833.828 9   1835378.209 7
 90  3  8  8 12 14.0800000  0  4G 3G12G19G13
  23187396.138    23187400.770   -41225236.422 9  35333125.715 9
  23709228.681    23709234.179   -10328004.793 9  15181077.716 7
  24136977.780    24136984.559   -53001797.874 8  62914774.717 8
  23422182.003    23422185.131     1954448.072 8   1851441.237 8
 90  3  8  8 12 29.0800000  0  4G 3G12G19G13
  23185361.424    23185365.682   -41235930.697 8  35324792.504 9
  23717894.913    23717901.098   -10282462.563 8  15216565.155 8
  24138067.142    24138074.530   -52996075.364 9  62919233.795 8
  23426106.325    23426110.345     1975075.397 8   1867514.482 8
 90  3  8  8 12 44.0800000  0  4G 3G12G19G13
  23183331.424    23183335.825   -41246594.484 9  35316483.070 9
  23726577.272    23726583.976   -10236837.496 9  15252117.137 8
  24139182.041    24139188.324   -52990221.816 8  62923794.988 8
  23430032.423    23430039.179     1995715.766 8   1883597.897 7
 90  3  8  8 12 59.0800000  0  4G 3G12G19G13
  23181308.063    23181312.855   -41257227.891 9  35308197.301 9
  23735275.590    23735280.966   -10191130.200 9  15287733.198 8
  24140320.403    24140326.447   -52984237.409 9  62928458.153 8
  23433963.362    23433969.419     2016369.010 8   1899691.339 8
 90  3  8  8 13 14.0800000  0  4G 3G12G19G13
  23179290.732    23179294.982   -41267831.131 8  35299935.051 7
  23743986.894    23743993.852   -10145341.155 8  15323412.950 8
  24141481.652    24141489.940   -52978122.514 8  62933223.001 9
  23437895.697    23437901.252     2037035.031 8   1915794.723 8
 90  3  8  8 13 29.0800000  0  4G 3G12G19G13
  23177278.970    23177284.075   -41278404.411 8  35291696.128 8
  23752714.746    23752723.862   -10099470.907 8  15359155.962 8
  24142670.994    24142677.661   -52971877.266 9  62938089.427 8
  23441829.788    23441837.271     2057713.627 7   1931907.912 7
 90  3  8  8 13 44.0800000  0  4G 3G12G19G13
  23175272.205    23175277.211   -41288947.520 9  35283480.710 9
  23761459.060    23761468.264   -10053519.760 8  15394962.018 8
  24143885.284    24143890.510   -52965501.956 8  62943057.181 8
  23445767.113    23445773.130     2078404.868 7   1948030.935 7
 90  3  8  8 13 59.0800000  0  4G 3G12G19G13
  23173271.473    23173275.696   -41299460.460 9  35275288.814 9
  23770219.937    23770228.314   -10007488.001 8  15430830.895 8
  24145123.945    24145129.778   -52958996.626 9  62948126.264 8
  23449708.833    23449714.624     2099108.920 7   1964163.931 6
 90  3  8  8 14 14.0800000  0  4G 3G12G19G13
  23171277.156    23171281.563   -41309943.230 8  35267120.429 8
  23778994.420    23779002.981    -9961376.275 8  15466762.094 8
  24146387.364    24146392.318   -52952361.224 9  62953296.706 9
  23453651.853    23453655.912     2119826.008 7   1980307.118 8
 90  3  8  8 14 29.0800000  0  4G 3G12G19G13
  23169287.524    23169291.700   -41320396.014 7  35258975.400 8
  23787783.996    23787793.114    -9915184.961 9  15502755.333 8
  24147673.341    24147680.481   -52945596.155 9  62958568.183 8
  23457597.266    23457602.075     2140555.927 9   1996460.290 7
 90  3  8  8 14 44.0800000  0  4G 3G12G19G13
  23167304.630    23167308.246   -41330818.712 8  35250853.817 9
  23796587.801    23796598.597    -9868914.228 8  15538810.432 8
  24148985.131    24148990.580   -52938701.460 9  62963940.671 8
  23461544.317    23461549.175     2161298.566 8   2012623.376 8
 90  3  8  8 14 59.0800000  0  4G 3G12G19G13
  23165328.117    23165331.290   -41341211.466 9  35242755.559 9
  23805407.804    23805417.281    -9822564.677 9  15574926.934 8
  24150321.673    24150326.378   -52931677.242 7  62969414.083 8
  23465492.753    23465498.676     2182053.829 8   2028796.302 8
 90  3  8  8 15 14.0800000  0  4G 3G12G19G13
  23163356.630    23163359.737   -41351574.372 9  35234680.583 8
  23814244.136    23814251.069    -9776136.615 8  15611104.641 8
  24151683.775    24151687.557   -52924523.736 9  62974988.239 7
  23469444.367    23469449.978     2202821.823 9   2044979.139 8
 90  3  8  8 15 29.0800000  0  4G 3G12G19G13
  23161389.189    23161393.966   -41361907.399 9  35226628.871 7
  23823096.147    23823100.008    -9729630.456 9  15647343.208 7
  24153069.401    24153075.324   -52917240.759 9  62980663.280 9
  23473399.969    23473403.779     2223602.573 8   2061171.921 7
 90  3  8  8 15 44.0800000  0  4G 3G12G19G13
  23159428.957    23159431.547   -41372210.589 9  35218600.431 8
  23831960.078    23831965.089    -9683046.593 9  15683642.310 7
  24154479.886    24154484.977   -52909828.707 9  62986438.896 8
  23477355.998    23477362.045     2244395.945 8   2077374.551 7
 90  3  8  8 15 59.0800000  0  4G 3G12G19G13
  23157473.937    23157475.333   -41382484.259 9  35210594.993 8
  23840840.472    23840844.917    -9636385.615 9  15720001.520 7
  24155915.511    24155920.578   -52902287.800 9  62992314.906 8
  23481314.404    23481321.302     2265201.910 9   2093586.995 7
 90  3  8  8 16 14.0800000  0  4G 3G12G19G13
  23155522.964    23155526.666   -41392728.098 7  35202612.772 8
  23849733.722    23849740.500    -9589647.899 9  15756420.528 8
  24157375.313    24157378.947   -52894617.654 9  62998291.628 8
  23485276.819    23485281.943     2286020.578 9   2109809.336 7
 90  3  8  8 16 29.0800000  0  4G 3G12G19G13
  23153580.720    23153583.605   -41402942.383 9  35194653.587 8
  23858642.585    23858648.267    -9542833.869 9  15792898.977 8
  24158859.634    24158862.432   -52886818.898 9  63004368.601 7
  23489241.028    23489244.999     2306851.962 9   2126041.562 6
 90  3  8  8 16 44.0800000  0  4G 3G12G19G13
  23151641.862    23151643.849   -41413127.119 8  35186717.432 9
  23867565.568    23867571.376    -9495944.039 8  15829436.479 8
  24160367.855    24160371.659   -52878891.566 8  63010545.739 7
  23493208.711    23493212.168     2327695.732 9   2142283.467 6
 90  3  8  8 16 59.0800000  0  4G 3G12G19G13
  23149709.004    23149712.126   -41423282.408 9  35178804.224 9
  23876501.722    23876508.491    -9448978.697 9  15866032.819 8
  24161900.328    24161905.119   -52870835.802 9  63016822.932 7
  23497178.271    23497180.114     2348552.170 9   2158535.219 7
 90  3  8  8 17 14.0800000  0  4G 3G12G19G13
  23147781.242    23147787.153   -41433408.050 8  35170914.122 8
  23885453.524    23885460.442    -9401938.123 9  15902687.773 8
  24163458.770    24163462.072   -52862651.732 9  63023200.121 9
  23501148.937    23501153.226     2369421.160 9   2174796.761 7
 90  3  8  8 17 29.0800000  0  4G 3G12G19G13
  23145862.240    23145866.770   -41443504.194 8  35163046.997 8
  23894420.414    23894426.467    -9354822.822 8  15939400.968 8
  24165040.979    24165042.621   -52854339.584 8  63029677.108 8
  23505120.960    23505125.301     2390302.832 9   2191068.200 7
 90  3  8  8 17 44.0800000  0  4G 3G12G19G13
  23143946.444    23143950.910   -41453571.001 9  35155202.727 9
  23903400.348    23903404.979    -9307633.312 9  15976172.009 8
  24166646.944    24166649.806   -52845899.648 9  63036253.676 7
  23509096.840    23509101.493     2411196.982 8   2207349.360 7
 90  3  8  8 17 59.0800000  0  4G 3G12G19G13
  23142035.369    23142040.355   -41463608.477 8  35147381.306 8
  23912392.657    23912398.876    -9260370.008 9  16013000.554 8
  24168276.360    24168278.965   -52837332.004 9  63042929.753 8
  23513074.387    23513081.147     2432103.863 8   2223640.452 7
 90  3  8  8 18 14.0800000  0  4G 3G12G19G13
  23140131.936    23140135.352   -41473616.636 9  35139582.740 8
  23921400.236    23921406.207    -9213033.175 8  16049886.390 8
  24169930.614    24169934.190   -52828636.833 9  63049705.200 8
  23517054.926    23517061.019     2453023.376 9   2239941.373 8
 90  3  8  8 18 29.0800000  0  4G 3G12G19G13
  23138231.679    23138236.424   -41483595.283 9  35131807.156 8
  23930421.919    23930428.828    -9165623.200 8  16086829.206 7
  24171610.746    24171611.500   -52819814.065 9  63056580.068 7
  23521038.209    23521045.245     2473955.416 8   2256252.049 8
 90  3  8  8 18 44.0800000  0  4G 3G12G19G13
  23136337.000    23136343.821   -41493544.671 8  35124054.384 8
  23939457.995    23939463.166    -9118140.577 8  16123828.627 8
  24173313.870    24173316.070   -52810864.052 9  63063554.096 8
  23525024.087    23525030.275     2494900.073 9   2272572.550 8
 90  3  8  8 18 59.0800000  0  4G 3G12G19G13
  23134449.511    23134454.498   -41503464.725 9  35116324.468 8
  23948507.702    23948512.719    -9070585.750 8  16160884.326 9
  24175040.722    24175044.020   -52801786.668 9  63070627.375 7
  23529012.301    23529019.490     2515857.262 9   2288902.816 8
 90  3  8  8 19 14.0800000  0  4G 3G12G19G13
  23132568.539    23132572.359   -41513355.638 9  35108617.276 8
  23957572.003    23957576.787    -9022959.291 9  16197995.844 8
  24176791.792    24176795.501   -52792582.349 8  63077799.560 8
  23533003.402    23533009.540     2536826.831 9   2305242.739 8
 90  3  8  8 19 29.0800000  0  4G 3G12G19G13
  23130692.076    23130696.269   -41523217.509 9  35100932.724 8
  23966648.553    23966654.390    -8975261.552 9  16235162.904 8
  24178568.224    24178571.851   -52783251.247 9  63085070.535 7
  23536999.208    23537001.768     2557808.961 9   2321592.439 7
 90  3  8  8 19 44.0800000  0  4G 3G12G19G13
  23128821.362    23128821.862   -41533050.427 8  35093270.742 7
  23975738.118    23975743.990    -8927492.878 9  16272385.225 8
  24180367.640    24180373.116   -52773793.443 9  63092440.238 9
  23540993.255    23540996.989     2578803.578 9   2337951.882 8
 90  3  8  8 19 59.0800000  0  4G 3G12G19G13
  23126952.716    23126957.281   -41542854.415 9  35085631.288 8
  23984840.825    23984846.844    -8879653.973 8  16309662.288 8
  24182191.751    24182196.822   -52764209.473 9  63099908.255 8
  23544989.169    23544995.148     2599810.474 9   2354320.869 7
 90  3  8  8 20 14.0800000  0  4G 3G12G19G13
  23125093.298    23125098.384   -41552629.455 9  35078014.367 7
  23993956.937    23993964.848    -8831745.100 8  16346993.861 8
  24184038.422    24184044.042   -52754499.276 9  63107474.647 7
  23548989.725    23548993.996     2620829.826 9   2370699.600 7
 90  3  8  8 20 29.0800000  0  4G 3G12G19G13
  23123239.604    23123243.175   -41562375.404 9  35070420.113 8
  24003088.199    24003094.062    -8783766.726 8  16384379.603 8
  24185908.322    24185915.336   -52744663.169 8  63115139.135 8
  23552991.944    23552995.905     2641861.585 9   2387087.978 8
 90  3  8  8 20 44.0800000  0  4G 3G12G19G13
  23121391.392    23121396.553   -41572092.581 9  35062848.288 8
  24012231.086    24012238.514    -8735719.099 9  16421819.289 7
  24187804.935    24187810.640   -52734701.057 9  63122901.812 7
  23556997.548    23557001.688     2662905.788 9   2403486.049 7
 90  3  8  8 20 59.0800000  0  4G 3G12G19G13
  23119549.660    23119553.540   -41581780.723 9  35055299.084 9
  24021387.556    24021394.755    -8687602.734 7  16459312.549 8
  24189725.403    24189732.437   -52724613.103 9  63130762.551 8
  23561002.849    23561007.441     2683962.449 9   2419893.829 7
 90  3  8  8 21 14.0800000  0  4G 3G12G19G13
  23117709.726    23117713.592   -41591440.260 8  35047772.186 9
  24030554.752    24030563.092    -8639417.971 6  16496859.101 7
  24191669.784    24191678.024   -52714399.407 9  63138721.256 9
  23565013.177    23565016.694     2705031.652 8   2436311.369 8
 90  3  8  8 21 29.0800000  0  4G 3G12G19G13
  23115877.446    23115881.179   -41601070.869 9  35040267.824 8
  24039738.700    24039745.259    -8591165.277 7  16534458.564 9
  24193636.468    24193643.939   -52704060.245 9  63146777.737 9
  23569024.049    23569028.593     2726113.267 9   2452738.580 7
 90  3  8  8 21 44.0800000  0  4G 3G12G19G13
  23114048.777    23114053.671   -41610672.919 8  35032785.696 8
  24048932.607    24048940.540    -8542845.144 7  16572110.610 8
  24195627.668    24195633.466   -52693595.889 8  63154931.788 8
  23573037.988    23573043.647     2747207.199 9   2469175.405 8
 90  3  8  8 21 59.0800000  0  4G 3G12G19G13
  23112228.087    23112232.186   -41620246.223 8  35025325.966 7
  24058141.215    24058148.610    -8494458.043 8  16609814.843 8
  24197642.527    24197647.779   -52683006.977 9  63163182.882 9
  23577054.872    23577059.637     2768313.353 9   2485621.755 7
 90  3  8  8 22 14.0800000  0  4G 3G12G19G13
  23110412.697    23110415.865   -41629790.816 9  35017888.637 8
  24067361.949    24067368.659    -8446004.237 8  16647571.034 7
  24199683.682    24199686.949   -52672293.088 9  63171531.376 8
  23581072.993    23581078.784     2789432.036 9   2502077.847 7
 90  3  8  8 22 29.0800000  0  4G 3G12G19G13
  23108601.586    23108604.609   -41639306.756 9  35010473.632 8
  24076594.264    24076602.471    -8397484.240 7  16685378.843 8
  24201744.784    24201750.315   -52661454.122 7  63179977.306 8
  23585094.049    23585099.182     2810563.091 9   2518543.625 7
 90  3  8  8 22 44.0800000  0  4G 3G12G19G13
  23106793.845    23106799.667   -41648794.153 8  35003080.867 8
  24085839.518    24085846.751    -8348898.590 8  16723237.784 8
  24203831.020    24203839.061   -52650490.731 9  63188520.198 8
  23589117.298    23589122.086     2831706.289 9   2535018.829 7
 90  3  8  8 22 59.0800000  0  4G 3G12G19G13
  23104993.990    23105000.009   -41658252.985 8  34995710.339 8
  24095098.991    24095105.025    -8300247.540 8  16761147.677 7
  24205940.914    24205947.049   -52639402.845 8  63197160.098 8
  23593142.616    23593148.586     2852862.065 9   2551503.837 7
 90  3  8  8 23 14.0800000  0  4G 3G12G19G13
  23103200.144    23103203.777   -41667683.111 9  34988362.188 8
  24104368.508    24104374.620    -8251531.556 7  16799108.177 8
  24208074.656    24208079.282   -52628191.086 8  63205896.544 8
  23597171.107    23597179.267     2874030.359 7   2567998.602 7
 90  3  8  8 23 29.0800000  0  4G 3G12G19G13
  23101411.528    23101415.324   -41677084.906 8  34981036.120 8
  24113652.180    24113659.008    -8202750.998 8  16837118.991 7
  24210230.851    24210236.253   -52616855.181 9  63214729.701 8
  23601200.304    23601205.949     2895211.284 8   2584503.222 7
 90  3  8  8 23 44.0800000  0  4G 3G12G19G13
  23099628.398    23099631.277   -41686457.950 9  34973732.450 8
  24122947.061    24122952.442    -8153906.115 8  16875179.938 7
  24212411.244    24212417.886   -52605395.560 9  63223659.265 8
  23605235.887    23605238.804     2916405.000 8   2601017.827 6
 90  3  8  8 23 59.0800000  0  4G 3G12G19G13
  23097850.367    23097853.396   -41695802.707 9  34966450.834 7
  24132253.164    24132259.962    -8104997.612 8  16913290.459 8
  24214615.928    24214622.538   -52593812.327 8  63232685.139 8
  23609269.799    23609275.495     2937610.921 9   2617541.906 8
 90  3  8  8 24 14.0800000  0  4G 3G12G19G13
  23096075.876    23096081.714   -41705118.909 8  34959191.455 8
  24141571.379    24141579.261    -8056025.811 8  16951450.292 7
  24216842.708    24216849.314   -52582105.710 9  63241807.176 7
  23613308.646    23613313.827     2958829.340 8   2634075.726 8
 90  3  8  8 24 29.0800000  0  4G 3G12G19G13
  23094309.868    23094314.040   -41714406.811 9  34951954.121 8
  24150903.440    24150909.805    -8006991.018 8  16989659.197 8
  24219094.648    24219100.320   -52570275.855 8  63251025.252 8
  23617347.627    23617354.087     2980060.181 9   2650619.217 7
 90  3  8  8 24 44.0800000  0  4G 3G12G19G13
  23092547.719    23092552.035   -41723666.153 9  34944739.059 8
  24160246.471    24160251.656    -7957893.820 8  17027916.746 7
  24221368.827    24221372.192   -52558323.045 8  63260339.127 7
  23621391.571    23621394.200     3001303.394 9   2667172.365 8
 90  3  8  8 24 59.0800000  0  4G 3G12G19G13
  23090790.821    23090796.172   -41732897.321 9  34937545.940 8
  24169600.848    24169607.616    -7908734.849 9  17066222.419 7
  24223667.605    24223672.032   -52546247.363 9  63269748.745 8
  23625436.896    23625442.221     3022558.906 8   2683735.097 8
 90  3  8  8 25 14.0800000  0  4G 3G12G19G13
  23089039.882    23089044.048   -41742100.172 8  34930374.888 8
  24178968.098    24178973.103    -7859514.414 8  17104575.982 7
  24225989.319    24225993.444   -52534048.961 9  63279253.982 8
  23629483.073    23629487.562     3043826.935 9   2700307.579 7
 90  3  8  8 25 29.0800000  0  4G 3G12G19G13
  23087294.590    23087297.740   -41751274.714 8  34923225.901 7
  24188346.171    24188352.532    -7810232.947 8  17142977.091 6
  24228333.829    24228337.624   -52521728.213 9  63288854.554 8
  23633533.834    23633536.844     3065107.628 9   2716889.942 7
 90  3  8  8 25 44.0800000  0  4G 3G12G19G13
  23085553.533    23085558.384   -41760421.159 9  34916098.803 9
  24197734.826    24197740.865    -7760890.859 8  17181425.461 6
  24230701.046    24230703.785   -52509285.299 9  63298550.324 8
  23637585.934    23637588.196     3086400.763 9   2733482.020 7
 90  3  8  8 25 59.0800000  0  4G 3G12G19G13
  23083819.255    23083821.191   -41769539.366 9  34908993.697 7
  24207135.263    24207141.340    -7711488.683 7  17219920.654 6
  24233093.950    24233095.621   -52496720.448 9  63308341.117 7
  23641640.103    23641642.115     3107705.949 9   2750083.475 7
 90  3  8  8 26 14.0800000  0  4G 3G12G19G13
  23082089.577    23082092.125   -41778629.560 8  34901910.445 8
  24216546.103    24216554.682    -7662026.747 8  17258462.410 8
  24235508.172    24235510.531   -52484033.613 9  63318226.952 7
  23645694.987    23645698.201     3129023.390 9   2766694.472 7
 90  3  8  8 26 29.0800000  0  4G 3G12G19G13
  23080363.442    23080369.295   -41787691.420 9  34894849.252 8
  24225968.667    24225977.302    -7612505.356 8  17297050.482 8
  24237943.749    24237948.447   -52471225.279 9  63328207.474 8
  23649753.040    23649756.593     3150353.513 9   2783315.352 5
 90  3  8  8 26 44.0800000  0  4G 3G12G19G13
  23078643.404    23078650.364   -41796725.118 9  34887810.016 8
  24235404.767    24235412.933    -7562924.955 8  17335684.565 8
  24240403.092    24240409.000   -52458295.732 9  63338282.422 7
  23653815.193    23653819.793     3171696.223 8   2799946.033 7
 90  3  8  8 26 59.0800000  0  4G 3G12G19G13
  23076930.262    23076937.067   -41805730.914 9  34880792.502 8
  24244852.366    24244859.690    -7513286.193 9  17374364.101 7
  24242887.034    24242892.308   -52445244.784 8  63348451.988 8
  23657880.815    23657883.774     3193051.593 9   2816586.551 6
 90  3  8  8 27 14.0800000  0  4G 3G12G19G13
  23075222.092    23075226.972   -41814708.559 8  34873796.937 7
  24254309.264    24254316.769    -7463589.322 9  17413088.917 7
  24245395.194    24245398.853   -52432072.734 9  63358715.917 7
  23661944.430    23661950.293     3214419.449 8   2833236.800 8
 90  3  8  8 27 29.0800000  0  4G 3G12G19G13
  23073520.366    23073521.852   -41823658.278 8  34866823.129 8
  24263778.424    24263784.796    -7413834.667 9  17451858.775 7
  24247924.394    24247927.068   -52418779.966 9  63369073.933 8
  23666011.883    23666020.621     3235799.740 8   2849896.746 6
 90  3  8  8 27 44.0800000  0  4G 3G12G19G13
  23071823.541    23071825.231   -41832579.911 8  34859871.224 8
  24273257.194    24273262.979    -7364022.648 8  17490673.332 7
  24250476.121    24250482.777   -52405366.725 8  63379525.784 8
  23670081.076    23670090.678     3257192.521 8   2866566.438 7
 90  3  8  8 27 59.0800000  0  4G 3G12G19G13
  23070131.033    23070133.466   -41841473.543 9  34852941.116 7
  24282746.759    24282752.718    -7314153.774 8  17529532.181 8
  24253050.294    24253058.171   -52391832.952 9  63390071.567 8
  23674157.420    23674163.583     3278597.675 8   2883245.798 7
 90  3  8  8 28 14.0800000  0  4G 3G12G19G13
  23068443.575    23068447.616   -41850339.361 9  34846032.703 7
  24292246.430    24292253.821    -7264228.583 9  17568434.903 7
  24255649.663    24255655.431   -52378179.082 9  63400710.934 8
  23678233.060    23678240.937     3300015.239 7   2899934.792 8
 90  3  8  8 28 29.0800000  0  4G 3G12G19G13
  23066759.064    23066764.753   -41859177.264 8  34839146.022 8
  24301757.785    24301765.033    -7214247.540 8  17607381.156 8
  24258271.845    24258274.169   -52364405.598 9  63411443.536 8
  23682312.701    23682318.180     3321445.384 9   2916633.602 6
 90  3  8  8 28 44.0800000  0  4G 3G12G19G13
  23065084.774    23065089.284   -41867987.303 8  34832281.045 8
  24311280.283    24311284.884    -7164210.981 8  17646370.676 8
  24260914.736    24260920.170   -52350512.094 8  63422269.647 8
  23686392.866    23686399.504     3342888.037 9   2933342.140 8
 90  3  8  8 28 59.0800000  0  4G 3G12G19G13
  23063413.244    23063417.935   -41876769.303 9  34825437.931 9
  24320811.104    24320817.132    -7114119.337 8  17685403.126 7
  24263581.913    24263587.143   -52336499.042 9  63433188.900 8
  23690476.096    23690482.951     3364343.412 8   2950060.598 7
 90  3  8  8 29 14.0800000  0  4G 3G12G19G13
  23061748.001    23061751.713   -41885523.408 9  34818616.546 8
  24330353.791    24330360.069    -7063972.959 8  17724478.215 7
  24266271.036    24266275.934   -52322366.714 8  63444201.091 9
  23694561.042    23694567.451     3385811.440 9   2966788.923 8
 90  3  8  8 29 29.0800000  0  4G 3G12G19G13
  23060088.061    23060090.303   -41894249.805 9  34811816.763 9
  24339905.371    24339911.505    -7013772.406 7  17763595.507 8
  24268982.529    24268988.782   -52308115.362 9  63455306.034 8
  23698648.707    23698654.223     3407292.123 8   2983527.116 7
 90  3  8  8 29 44.0800000  0  4G 3G12G19G13
  23058432.525    23058435.037   -41902948.253 9  34805038.771 8
  24349466.744    24349475.477    -6963518.189 8  17802754.629 8
  24271718.024    24271721.362   -52293745.136 9  63466503.601 7
  23702737.237    23702744.608     3428785.291 8   3000275.034 8
 90  3  8  8 29 59.0800000  0  4G 3G12G19G13
  23056782.483    23056783.916   -41911618.917 9  34798282.424 8
  24359041.501    24359048.513    -6913210.670 8  17841955.267 8
  24274475.764    24274478.142   -52279256.374 9  63477793.539 7
  23706830.792    23706837.562     3450291.085 9   3017032.793 7
 90  3  8  8 30 14.0800000  0  4G 3G12G19G13
  23055137.290    23055141.059   -41920261.756 8  34791547.749 7
  24368626.318    24368631.791    -6862850.259 8  17881197.138 7
  24277254.765    24277258.657   -52264649.031 9  63489175.903 8
  23710925.981    23710932.865     3471809.688 9   3033800.532 8
 90  3  8  8 30 29.0800000  0  4G 3G12G19G13
  23053497.562    23053503.128   -41928876.760 9  34784834.743 8
  24378220.689    24378225.721    -6812437.290 9  17920479.973 7
  24280054.690    24280062.317   -52249923.326 9  63500650.464 8
  23715023.801    23715029.807     3493340.992 9   3050578.137 7
 90  3  8  8 30 44.0800000  0  4G 3G12G19G13
  23051862.169    23051866.852   -41937464.034 9  34778143.373 7
  24387822.741    24387827.084    -6761972.083 8  17959803.522 8
  24282879.900    24282885.661   -52235079.703 9  63512216.913 9
  23719123.752    23719127.788     3514885.023 9   3067365.704 8
 90  3  8  8 30 59.0800000  0  4G 3G12G19G13
  23050233.112    23050239.184   -41946023.522 8  34771473.637 7
  24397436.354    24397442.543    -6711455.157 9  17999167.338 7
  24285727.800    24285733.250   -52220118.329 9  63523875.106 8
  23723224.862    23723229.995     3536441.627 8   3084163.062 7
 90  3  8  8 31 14.0800000  0  4G 3G12G19G13
  23048609.563    23048615.683   -41954555.222 8  34764825.552 8
  24407059.631    24407066.426    -6660886.855 8  18038571.176 8
  24288596.320    24288603.139   -52205039.265 8  63535625.010 8
  23727330.203    23727333.976     3558011.058 8   3100970.444 6
 90  3  8  8 31 29.0800000  0  4G 3G12G19G13
  23046992.551    23046997.287   -41963059.277 9  34758199.006 8
  24416693.769    24416698.016    -6610267.813 8  18078014.556 8
  24291488.128    24291495.479   -52189843.044 9  63547466.215 7
  23731437.662    23731442.077     3579593.181 9   3117787.699 8
 90  3  8  8 31 44.0800000  0  4G 3G12G19G13
  23045377.852    23045383.664   -41971535.690 8  34751593.996 8
  24426334.014    24426340.360    -6559598.352 8  18117497.219 7
  24294401.912    24294408.233   -52174529.737 8  63559398.670 7
  23735545.597    23735550.322     3601188.143 7   3134614.909 7
 90  3  8  8 31 59.0800000  0  4G 3G12G19G13
  23043770.341    23043775.716   -41979984.246 8  34745010.707 7
  24435985.410    24435991.945    -6508878.958 8  18157018.780 8
  24297336.718    24297344.028   -52159099.343 8  63571422.347 8
  23739656.987    23739661.944     3622796.030 8   3151452.185 7
 90  3  8  8 32 14.0800000  0  4G 3G12G19G13
  23042169.920    23042173.763   -41988405.287 9  34738448.844 8
  24445646.198    24445650.834    -6458110.148 9  18196578.868 8
  24300298.190    24300303.116   -52143552.305 9  63583536.906 8
  23743769.496    23743776.010     3644416.559 7   3168299.338 7
 90  3  8  8 32 29.0800000  0  4G 3G12G19G13
  23040573.958    23040575.945   -41996798.596 9  34731908.619 7
  24455317.519    24455322.355    -6407292.240 8  18236177.226 7
  24303278.578    24303284.871   -52127888.842 9  63595742.185 8
  23747885.548    23747892.685     3666049.840 7   3185156.428 8
 90  3  8  8 32 44.0800000  0  4G 3G12G19G13
  23038980.973    23038984.025   -42005164.370 9  34725389.835 8
  24464995.747    24465003.536    -6356425.741 9  18275813.432 9
  24306280.793    24306286.958   -52112109.358 8  63608037.888 7
  23752009.506    23752013.028     3687695.743 7   3202023.395 7
 90  3  8  8 32 59.0800000  0  4G 3G12G19G13
  23037392.636    23037397.706   -42013502.587 8  34718892.525 8
  24474683.998    24474690.541    -6305510.975 9  18315487.257 8
  24309306.418    24309311.305   -52096213.873 9  63620423.972 7
  23756127.213    23756135.957     3709354.723 8   3218900.493 7
 90  3  8  8 33 14.0800000  0  4G 3G12G19G13
  23035811.442    23035816.698   -42021813.065 8  34712416.823 8
  24484381.681    24484389.463    -6254548.319 9  18355198.402 9
  24312353.658    24312357.280   -52080202.670 9  63632900.228 8
  23760253.667    23760258.463     3731026.523 7   3235787.600 8
 90  3  8  8 33 29.0800000  0  4G 3G12G19G13
  23034236.466    23034240.914   -42030095.983 9  34705962.584 9
  24494088.825    24494095.943    -6203538.374 9  18394946.386 8
  24315422.935    24315427.282   -52064076.008 9  63645466.455 7
  23764380.313    23764385.072     3752711.128 8   3252684.692 6
 90  3  8  8 33 44.0800000  0  4G 3G12G19G13
  23032665.464    23032670.721   -42038351.496 9  34699529.709 8
  24503805.053    24503812.446    -6152481.677 9  18434730.816 8
  24318513.632    24318518.273   -52047834.425 8  63658122.222 8
  23768508.788    23768512.940     3774408.469 8   3269591.719 7
 90  3  8  8 33 59.0800000  0  4G 3G12G19G13
  23031100.476    23031104.454   -42046579.549 9  34693118.245 8
  24513529.007    24513535.909    -6101378.535 9  18474551.437 8
  24321624.609    24321630.702   -52031478.047 8  63670867.454 8
  23772639.568    23772645.167     3796118.758 8   3286508.798 7
 90  3  8  8 34 14.0800000  0  4G 3G12G19G13
  23029540.623    23029541.792   -42054780.061 9  34686728.248 8
  24523263.654    24523268.962    -6050229.379 9  18514407.902 8
  24324759.432    24324764.187   -52015006.834 9  63683702.171 8
  23776774.136    23776779.322     3817841.996 8   3303435.988 8
 90  3  8  8 34 29.0800000  0  4G 3G12G19G13
  23027985.132    23027986.695   -42062952.670 9  34680359.986 7
  24533005.753    24533011.246    -5999034.413 8  18554300.068 8
  24327916.377    24327920.631   -51998420.667 8  63696626.437 8
  23780910.195    23780916.646     3839578.508 8   3320373.522 8
 90  3  8  8 34 44.0800000  0  4G 3G12G19G13
  23026433.234    23026437.337   -42071097.610 9  34674013.279 7
  24542754.686    24542762.537    -5947794.127 9  18594227.553 9
  24331094.258    24331097.698   -51981720.372 8  63709639.649 8
  23785047.583    23785055.092     3861328.202 7   3337321.336 7
 90  3  8  8 34 59.0800000  0  4G 3G12G19G13
  23024887.903    23024892.595   -42079215.023 9  34667688.028 7
  24552514.023    24552521.519    -5896509.156 9  18634189.856 9
  24334291.341    24334298.783   -51964906.047 9  63722741.684 7
  23789189.215    23789197.193     3883090.993 8   3354279.343 7
 90  3  8  8 35 14.0800000  0  4G 3G12G19G13
  23023349.824    23023354.023   -42087304.962 8  34661384.177 8
  24562283.191    24562289.845    -5845180.055 9  18674186.548 8
  24337513.104    24337519.129   -51947978.103 9  63735932.286 8
  23793333.425    23793342.204     3904866.711 9   3371247.433 8
 90  3  8  8 35 29.0800000  0  4G 3G12G19G13
  23021814.480    23021820.229   -42095367.492 9  34655101.675 8
  24572059.505    24572065.579    -5793806.978 9  18714217.519 8
  24340757.214    24340761.529   -51930936.578 8  63749211.404 8
  23797481.506    23797486.736     3926655.294 9   3388225.552 8
 90  3  8  8 35 44.0800000  0  4G 3G12G19G13
  23020286.394    23020289.877   -42103402.682 9  34648840.499 7
  24581843.495    24581851.439    -5742390.387 9  18754282.371 9
  24344022.590    24344025.390   -51913781.730 9  63762578.809 8
  23801631.097    23801635.049     3948457.072 9   3405213.943 7
 90  3  8  8 35 59.0800000  0  4G 3G12G19G13
  23018762.661    23018766.850   -42111410.375 9  34642600.735 8
  24591635.459    24591642.982    -5690930.726 8  18794380.783 8
  24347307.256    24347312.071   -51896513.680 9  63776034.416 8
  23805781.702    23805786.219     3970271.842 9   3422212.474 7
 90  3  8  8 36 14.0800000  0  4G 3G12G19G13
  23017243.311    23017248.510   -42119390.604 9  34636382.372 7
  24601435.046    24601442.331    -5639428.360 9  18834512.481 9
  24350613.570    24350619.721   -51879132.984 8  63789577.802 9
  23809935.044    23809937.634     3992099.897 9   3439221.345 8
 90  3  8  8 36 29.0800000  0  4G 3G12G19G13
  23015730.809    23015734.429   -42127343.121 9  34630185.612 8
  24611243.070    24611252.433    -5587883.608 9  18874677.193 9
  24353943.458    24353948.474   -51861639.476 8  63803209.069 8
  23814091.885    23814095.731     4013941.345 9   3456240.652 7
 90  3  8  8 36 44.0800000  0  4G 3G12G19G13
  23014221.537    23014224.503   -42135267.940 9  34624010.425 7
  24621060.264    24621068.211    -5536297.023 9  18914874.507 8
  24357295.838    24357299.339   -51844033.546 9  63816927.968 8
  23818250.454    23818254.641     4035796.037 9   3473270.297 8
 90  3  8  8 36 59.0800000  0  4G 3G12G19G13
  23012719.983    23012722.289   -42143165.417 8  34617856.553 8
  24630885.992    24630892.358    -5484669.191 9  18955103.976 9
  24360667.414    24360670.841   -51826315.637 9  63830734.125 7
  23822410.451    23822416.479     4057664.064 9   3490310.330 8
 90  3  8  8 37 14.0800000  0  4G 3G12G19G13
  23011221.713    23011227.179   -42151035.383 9  34611724.116 8
  24640718.393    24640724.103    -5433000.448 9  18995365.332 8
  24364060.013    24364064.233   -51808485.785 9  63844627.515 8
  23826572.906    23826579.653     4079545.365 9   3507360.687 8
 90  3  8  8 37 29.0800000  0  4G 3G12G19G13
  23009730.425    23009733.383   -42158877.878 9  34605613.084 8
  24650557.468    24650564.884    -5381291.186 9  19035658.251 9
  24367472.405    24367477.229   -51790544.193 9  63858607.972 8
  23830741.049    23830745.727     4101439.926 8   3524421.368 9
 90  3  8  8 37 44.0800000  0  4G 3G12G19G13
  23008243.238    23008246.623   -42166692.754 9  34599523.562 8
  24660404.550    24660412.526    -5329541.871 9  19075982.372 8
  24370907.874    24370913.702   -51772491.396 9  63872675.066 8
  23834911.161    23834914.947     4123347.902 8   3541492.487 8
 90  3  8  8 37 59.0800000  0  4G 3G12G19G13
  23006762.376    23006765.021   -42174480.301 8  34593455.360 8
  24670260.493    24670267.114    -5277753.019 9  19116337.320 8
  24374365.419    24374370.571   -51754327.697 8  63886828.592 8
  23839081.424    23839086.077     4145269.179 7   3558573.969 8
 90  3  8  8 38 14.0800000  0  4G 3G12G19G13
  23005283.635    23005288.598   -42182240.486 9  34587408.457 7
  24680123.006    24680128.285    -5225925.046 9  19156722.760 8
  24377842.391    24377848.749   -51736053.549 9  63901068.183 8
  23843250.065    23843258.559     4167203.823 7   3575665.889 7
 90  3  8  8 38 29.0800000  0  4G 3G12G19G13
  23003811.550    23003816.593   -42189973.372 9  34581382.835 8
  24689992.589    24689999.479    -5174058.271 8  19197138.429 8
  24381339.605    24381346.685   -51717668.815 8  63915393.927 7
  23847429.105    23847437.762     4189151.849 7   3592768.239 7
 90  3  8  8 38 44.0800000  0  4G 3G12G19G13
  23002345.721    23002349.813   -42197678.479 7  34575378.841 7
  24699869.469    24699876.353    -5122153.126 8  19237584.001 8
  24384858.484    24384866.091   -51699173.874 8  63929805.550 7
  23851612.390    23851618.497     4211113.475 8   3609881.184 7
 90  3  8  8 38 59.0800000  0  4G 3G12G19G13
  23000883.493    23000890.257   -42205356.313 8  34569396.084 8
  24709754.190    24709762.279    -5070210.069 9  19278059.092 9
  24388398.152    24388404.203   -51680568.603 8  63944303.162 7
  23855795.458    23855797.403     4233088.663 9   3627004.714 7
 90  3  8  8 39 14.0800000  0  4G 3G12G19G13
  22999428.784    22999433.357   -42213006.559 8  34563434.865 7
  24719645.087    24719653.898    -5018229.559 9  19318563.387 9
  24391961.897    24391966.415   -51661853.455 8  63958886.389 8
  23859978.883    23859981.001     4255077.537 8   3644138.899 7
 90  3  8  8 39 29.0800000  0  4G 3G12G19G13
  22997977.476    22997983.376   -42220629.389 8  34557495.005 8
  24729542.921    24729551.912    -4966212.048 8  19359096.484 8
  24395545.303    24395549.629   -51643028.987 8  63973554.819 8
  23864164.821    23864167.832     4277079.874 9   3661283.576 6
 90  3  8  8 39 44.0800000  0  4G 3G12G19G13
  22996532.097    22996537.003   -42228224.871 9  34551576.447 7
  24739450.005    24739456.523    -4914158.070 8  19399658.023 7
  24399146.225    24399152.598   -51624095.646 9  63988308.066 7
  23868354.251    23868356.819     4299095.606 9   3678438.686 7
 90  3  8  8 39 59.0800000  0  4G 3G12G19G13
  22995093.389    22995096.568   -42235792.709 9  34545679.426 9
  24749363.860    24749368.333    -4862067.767 8  19440247.833 8
  24402767.493    24402777.926   -51605053.035 8  64003146.449 8
  23872547.029    23872549.546     4321125.324 9   3695604.668 7
 90  3  8  8 40 14.0800000  0  4G 3G12G19G13
  22993658.042    22993662.002   -42243333.000 9  34539803.886 8
  24759282.254    24759287.951    -4809941.732 8  19480865.507 7
  24406413.030    24406420.011   -51585901.613 8  64018069.620 8
  23876739.885    23876745.192     4343168.714 9   3712781.340 6
 90  3  8  8 40 29.0800000  0  4G 3G12G19G13
  22992229.269    22992231.256   -42250845.816 8  34533949.743 8
  24769208.598    24769214.676    -4757780.421 8  19521510.666 7
  24410080.269    24410085.007   -51566641.893 8  64033077.178 8
  23880936.092    23880942.366     4365225.754 9   3729968.644 7
 90  3  8  8 40 44.0800000  0  4G 3G12G19G13
  22990805.088    22990807.056   -42258331.374 9  34528116.838 8
  24779142.046    24779148.850    -4705584.145 8  19562183.035 8
  24413764.489    24413769.969   -51547274.138 9  64048168.932 8
  23885136.931    23885140.637     4387296.552 9   3747166.678 7
 90  3  8  8 40 59.0800000  0  4G 3G12G19G13
  22989385.935    22989388.406   -42265789.262 8  34522305.525 8
  24789080.997    24789087.236    -4653353.309 8  19602882.378 7
  24417471.371    24417476.554   -51527798.392 8  64063344.851 8
  23889340.947    23889343.613     4409381.361 9   3764375.639 6
 90  3  8  8 41 14.0800000  0  4G 3G12G19G13
  22987972.464    22987974.629   -42273219.756 8  34516515.542 8
  24799025.137    24799031.889    -4601088.596 9  19643608.109 6
  24421197.879    24421204.602   -51508215.005 8  64078604.628 8
  23893544.176    23893550.660     4431479.950 9   3781595.309 7
 90  3  8  8 41 29.0800000  0  4G 3G12G19G13
  22986562.016    22986565.755   -42280622.929 8  34510746.848 7
  24808978.017    24808983.203    -4548790.399 8  19684359.949 6
  24424945.704    24424951.372   -51488524.485 9  64093947.874 8
  23897754.164    23897756.963     4453592.188 9   3798825.633 6
 90  3  8  8 41 44.0800000  0  4G 3G12G19G13
  22985158.407    22985161.115   -42287998.521 8  34504999.623 7
  24818935.285    24818942.209    -4496458.904 8  19725137.729 6
  24428712.466    24428717.679   -51468726.865 9  64109374.572 8
  23901963.481    23901967.775     4475718.338 9   3816066.786 6
 90  3  8  8 41 59.0800000  0  4G 3G12G19G13
  22983760.166    22983763.268   -42295346.720 9  34499273.765 7
  24828899.904    24828906.953    -4444094.600 9  19765941.078 7
  24432500.093    24432504.953   -51448822.590 8  64124884.391 7
  23906177.008    23906180.386     4497858.480 9   3833318.834 7
 90  3  8  8 42 14.0800000  0  4G 3G12G19G13
  22982366.458    22982370.811   -42302667.459 8  34493569.263 8
  24838871.390    24838878.491    -4391698.078 9  19806769.521 7
  24436309.073    24436312.654   -51428811.779 8  64140477.220 8
  23910392.855    23910397.188     4520012.466 9   3850581.663 7
 90  3  8  8 42 29.0800000  0  4G 3G12G19G13
  22980979.657    22980982.445   -42309960.616 9  34487886.240 8
  24848848.097    24848854.521    -4339269.664 8  19847622.802 8
  24440138.044    24440142.082   -51408694.697 9  64156152.848 8
  23914610.323    23914616.588     4542180.454 8   3867855.401 7
 90  3  8  8 42 44.0800000  0  4G 3G12G19G13
  22979596.814    22979602.040   -42317226.167 9  34482224.759 8
  24858830.851    24858836.682    -4286809.639 9  19888500.719 8
  24443985.497    24443991.391   -51388471.577 1  64171911.115 1
  23918830.357    23918838.506     4564362.675 8   3885140.240 7
 90  3  8  8 42 59.0800000  0  4G 3G12G19G13
  22978220.131    22978224.399   -42324464.071 9  34476584.836 7
  24868819.073    24868827.711    -4234318.691 9  19929402.734 7
  24447856.293    24447858.561   -51368142.662 1  64187751.812 1
  23923057.056    23923060.423     4586559.051 8   3902436.103 8
 90  3  8  8 43 14.0800000  0  4G 3G12G19G13
  22976847.456    22976852.747   -42331674.414 9  34470966.406 7
  24878813.557    24878820.634    -4181796.998 9  19970328.724 6
  24451743.487    24451747.015   -51347708.162 1  64203674.782 1
  23927281.630    23927289.553     4608769.621 8   3919743.003 8
 90  3  8  8 43 29.0800000  0  4G 3G12G19G13
  22975480.835    22975483.088   -42338857.270 1  34465369.380 1
  24888814.133    24888822.027    -4129245.032 9  20011278.293 9
  24455652.137    24455656.291   -51327168.595 8  64219679.615 8
  23931511.242    23931514.336     4630994.622 1   3937061.188 1
 90  3  8  8 43 44.0800000  0  4G 3G12G19G13
  22974116.935    22974124.420   -42346012.606 1  34459793.813 1
  24898820.036    24898826.960    -4076663.308 9  20052251.075 9
  24459580.010    24459585.215   -51306524.327 9  64235766.048 8
  23935740.961    23935750.432     4653233.630 1   3954390.283 1
 90  3  8  8 43 59.0800000  0  4G 3G12G19G13
  22972761.650    22972763.988   -42353140.523 1  34454239.596 1
  24908832.973    24908838.249    -4024052.463 9  20093246.531 9
  24463527.789    24463532.940   -51285775.745 8  64251933.743 7
  23939978.560    23939983.582     4675486.818 1   3971730.457 1
 90  3  8  8 44 14.0800000  0  4G 3G12G19G13
  22971412.933    22971414.988   -42360240.719 3  34448707.009 1
  24918849.153    24918855.389    -3971412.745 9  20134264.482 8
  24467494.338    24467501.565   -51264922.858 8  64268182.726 7
  23944213.269    23944222.974     4697754.155 1   3989081.639 1
 90  3  8  8 44 29.0800000  0  4G 3G12G19G13
  22970066.944    22970068.028   -42367313.398 1  34443195.825 1
  24928871.451    24928877.245    -3918744.302 9  20175304.812 8
  24471483.150    24471489.955   -51243965.710 8  64284512.970 7
  23948456.706    23948461.837     4720035.945 3   4006444.088 4
 90  3  8  8 44 44.0800000  0  4G 3G12G19G13
  22968725.882    22968730.238   -42374358.414 1  34437706.191 1
  24938898.916    24938905.846    -3866047.832 9  20216366.975 8
  24475490.407    24475496.004   -51222904.556 8  64300924.239 8
  23952698.746    23952705.596     4742332.176 3   4023817.774 4
 90  3  8  8 44 59.0800000  0  4G 3G12G19G13
  22967390.001    22967392.764   -42381375.811 1  34432238.096 1
  24948932.806    24948939.273    -3813323.811 8  20257450.622 8
  24479516.551    24479524.557   -51201740.009 8  64317416.085 8
  23956945.224    23956950.173     4764642.932 8   4041202.769 8
 90  3  8  8 45 14.0800000  0  4G 3G12G19G13
  22966061.451    22966065.013   -42388365.325 1  34426791.702 1
  24958971.528    24958978.580    -3760572.436 8  20298555.589 8
  24483563.183    24483572.206   -51180472.348 7  64333988.258 8
  23961192.052    23961199.025     4786968.291 8   4058599.104 7
 90  3  8  8 45 29.0800000  0  4G 3G12G19G13
  22964737.219    22964740.555   -42395327.216 1  34421366.848 1
  24969013.791    24969022.281    -3707794.131 9  20339681.527 9
  24487630.989    24487637.977   -51159101.760 8  64350640.646 8
  23965441.374    23965449.859     4809308.061 8   4076006.704 6
 90  3  8  8 45 44.0800000  0  4G 3G12G19G13
  22963415.920    22963422.854   -42402261.224 9  34415963.720 7
  24979062.624    24979069.199    -3654989.221 8  20380828.206 9
  24491718.541    24491725.109   -51137628.001 8  64367373.430 8
  23969697.055    23969703.056     4831662.530 7   4093425.788 6
 90  3  8  8 45 59.0800000  0  4G 3G12G19G13
  22962102.244    22962108.661   -42409167.498 9  34410582.214 8
  24989116.348    24989123.667    -3602158.351 9  20421995.108 8
  24495824.076    24495829.873   -51116052.075 9  64384185.851 7
  23973953.403    23973958.360     4854031.696 8   4110856.301 7
 90  3  8  8 46 14.0800000  0  4G 3G12G19G13
  22960791.916    22960799.127   -42416046.155 9  34405222.223 8
  24999173.990    24999181.513    -3549301.848 9  20463181.969 7
  24499950.019    24499954.099   -51094374.157 8  64401077.725 8
  23978213.031    23978220.250     4876415.579 8   4128298.278 7
 90  3  8  8 46 29.0800000  0  4G 3G12G19G13
  22959487.546    22959494.815   -42422896.876 4  34399884.007 6
  25009237.957    25009244.007    -3496420.242 9  20504388.390 8
  24504093.351    24504098.439   -51072594.441 8  64418048.921 8
  23982473.943    23982479.922     4898814.258 6   4145751.812 7
 90  3  8  8 46 44.0800000  0  4G 3G12G19G13
  22958189.942    22958195.311   -42429720.156 6  34394567.189 5
  25019304.231    25019311.603    -3443514.297 8  20545613.802 8
  24508256.660    24508263.691   -51050713.142 8  64435099.263 7
  23986738.507    23986747.009     4921227.586 6   4163216.752 8
 90  3  8  8 46 59.0800000  0  4G 3G12G19G13
  22956894.118    22956899.355   -42436515.745 6  34389271.944 5
  25029376.486    25029382.279    -3390584.223 8  20586858.008 8
  24512441.452    24512447.369   -51028730.894 8  64452228.269 7
  23991010.702    23991015.043     4943655.611 5   4180693.144 7
 90  3  8  8 47 14.0800000  0  4G 3G12G19G13
  22955609.180    22955612.144   -42443283.385 7  34383998.445 7
  25039453.369    25039457.802    -3337630.372 8  20628120.730 8
  24516644.910    24516649.679   -51006647.621 8  64469436.002 8
  23995281.643    23995285.851     4966098.463 6   4198181.085 6
 90  3  8  8 47 29.0800000  0  4G 3G12G19G13
  22954325.839    22954332.438   -42450023.365 8  34378746.514 8
  25049534.625    25049538.856    -3284653.166 9  20669401.649 7
  24520866.369    24520871.676   -50984463.928 8  64486721.974 9
  23999551.540    23999558.159     4988556.103 6   4215680.495 7
 90  3  8  8 47 44.0800000  0  4G 3G12G19G13
  22953050.589    22953054.083   -42456735.620 9  34373516.171 9
  25059621.576    25059625.735    -3231652.950 8  20710700.485 6
  24525108.267    24525112.349   -50962180.010 8  64504086.063 7
  24003829.439    24003834.667     5011028.740 6   4233191.600 6
 90  3  8  8 47 59.0800000  0  4G 3G12G19G13
  22951777.738    22951781.794   -42463419.955 9  34368307.578 8
  25069709.528    25069714.617    -3178630.100 8  20752016.951 7
  24529366.260    24529369.578   -50939795.999 9  64521528.139 8
  24008108.860    24008113.318     5033516.461 7   4250714.490 7
 90  3  8  8 48 14.0800000  0  4G 3G12G19G13
  22950512.366    22950515.009   -42470076.425 8  34363120.740 8
  25079803.918    25079811.641    -3125585.064 8  20793350.728 8
  24533645.013    24533647.949   -50917312.136 9  64539048.040 8
  24012390.192    24012394.402     5056019.151 6   4268249.085 8
 90  3  8  8 48 29.0800000  0  4G 3G12G19G13
  22949250.368    22949251.500   -42476704.880 9  34357955.702 8
  25089902.373    25089909.654    -3072518.259 8  20834701.448 7
  24537942.757    24537946.455   -50894728.734 8  64556645.485 8
  24016676.468    24016680.455     5078537.015 6   4285795.489 8
 90  3  8  8 48 44.0800000  0  4G 3G12G19G13
  22947993.764    22947996.870   -42483305.370 9  34352812.465 7
  25100003.604    25100010.341    -3019430.229 8  20876068.720 7
  24542260.297    24542263.345   -50872046.214 8  64574320.174 8
  24020965.157    24020969.740     5101070.291 7   4303353.905 7
 90  3  8  8 48 59.0800000  0  4G 3G12G19G13
  22946743.791    22946745.981   -42489878.026 8  34347690.926 8
  25110110.787    25110117.209    -2966321.370 8  20917452.238 8
  24546594.458    24546599.331   -50849265.035 8  64592071.714 8
  24025253.328    24025260.360     5123618.822 4   4320924.183 6
 90  3  8  8 49 14.0800000  0  3G 3G19G13
  22945496.157    22945499.730   -42496422.729 8  34342591.172 8
  24550947.800    24550953.427   -50826385.187 7  64609900.155 7
  24029542.443    24029552.747     5146182.580 4   4338506.307 6
 90  3  8  8 49 29.0800000  0  4G 3G16G19G13
  22944255.901    22944262.505   -42502939.398 9  34337513.244 8
                  25243567.141   -84714449.495 9
  24555320.356    24555323.653   -50803407.053 8  64627805.186 8
  24033844.863    24033849.641     5168761.684 6   4356100.395 6
 90  3  8  8 49 44.0800000  0  4G 3G16G19G13
  22943020.410    22943025.262   -42509427.958 7  34332457.217 8
                  25233642.924   -84766725.193 8
  24559711.297    24559715.845   -50780330.848 8  64645786.634 7
  24038149.098    24038149.413     5191356.021 5   4373706.390 6
 90  3  8  8 49 59.0800000  0  4G 3G16G19G13
  22941791.973    22941796.045   -42515888.494 9  34327423.030 8
  25223698.551    25223703.846   -84818986.162 8 107467283.058 9
  24564122.338    24564126.195   -50757157.195 9  64663844.010 8
  24042449.176    24042450.946     5213965.824 6   4391324.366 6
 90  3  8  8 50 14.0800000  0  4G 3G16G19G13
  22940569.889    22940571.914   -42522321.017 9  34322410.673 6
  25213756.108    25213761.675   -84871233.168 8 107426571.117 7
  24568550.232    24568552.977   -50733886.279 9  64681977.172 8
  24046756.382    24046757.544     5236591.055 6   4408954.415 6
 90  3  8  8 50 29.0800000  0  4G 3G16G19G13
  22939350.947    22939353.328   -42528725.539 9  34317420.155 7
  25203816.041    25203823.197   -84923465.774 9 107385870.407 9
  24572995.771    24573001.199   -50710518.348 9  64700185.945 7
  24051063.027    24051064.598     5259231.784 6   4426596.537 5
 90  3  8  8 50 44.0800000  0  4G 3G16G19G13
  22938136.147    22938141.539   -42535101.954 8  34312451.518 7
  25193879.167    25193885.863   -84975683.523 8 107345181.275 9
  24577460.859    24577465.731   -50687053.591 9  64718470.165 8
  24055377.638    24055375.289     5281888.283 5   4444250.920 6
 90  3  8  8 50 59.0800000  0  4G 3G16G19G13
  22936927.054    22936932.456   -42541449.994 9  34307504.978 8
  25183944.194    25183952.279   -85027886.010 8 107304504.051 9
  24581945.599    24581948.915   -50663492.457 9  64736829.490 8
  24059686.372    24059691.347     5304560.520 4   4461917.562 6
 90  3  8  8 51 14.0800000  0  4G 3G16G19G13
  22935724.924    22935730.485   -42547770.011 7  34302580.289 8
  25174014.372    25174021.757   -85080072.873 8 107263838.998 9
  24586447.420    24586451.345   -50639835.196 8  64755263.691 7
  24063998.297    24064010.520     5327248.492 3   4479596.451 6
 90  3  8  8 51 29.0800000  0  4G 3G16G19G13
  22934527.732    22934532.783   -42554061.804 9  34297677.588 7
  25164086.098    25164093.152   -85132243.910 8 107223186.254 9
  24590966.302    24590970.108   -50616082.249 9  64773772.474 7
  24068323.424    24068331.639     5349952.127 3   4497287.561 5
 90  3  8  8 51 44.0800000  0  4G 3G16G19G13
  22933336.898    22933340.542   -42560325.086 9  34292797.102 7
  25154161.213    25154168.324   -85184398.426 9 107182546.396 8
  24595504.276    24595511.049   -50592233.610 9  64792355.812 7
  24072649.688    24072655.512     5372671.656 4   4514991.037 6
 90  3  8  8 51 59.0800000  0  4G 3G16G19G13
  22932150.283    22932153.980   -42566560.210 9  34287938.573 7
  25144240.121    25144246.789   -85236536.454 9 107141919.382 8
  24600061.670    24600065.621   -50568289.783 9  64811013.336 8
  24076971.764    24076979.753     5395407.113 6   4532706.974 5
 90  3  8  8 52 14.0800000  0  4G 3G16G19G13
  22930969.258    22930973.873   -42572767.138 9  34283102.022 7
  25134322.133    25134327.943   -85288657.497 9 107101305.600 8
  24604636.942    24604640.413   -50544250.979 8  64829744.862 8
  24081302.842    24081309.808     5418158.437 6   4550435.275 6
 90  3  8  8 52 29.0800000  0  4G 3G16G19G13
  22929795.202    22929796.679   -42578945.514 9  34278287.721 8
  25124407.466    25124413.275   -85340761.361 9 107060705.211 9
  24609227.973    24609231.304   -50520117.662 7  64848550.058 7
  24085637.056    24085641.601     5440925.798 6   4568176.054 5
 90  3  8  8 52 44.0800000  0  4G 3G16G19G13
  22928623.698    22928625.938   -42585095.870 8  34273495.253 7
  25114495.732    25114502.644   -85392847.534 9 107020118.610 9
  24613836.174    24613841.531   -50495890.395 8  64867428.425 8
  24089972.385    24089975.667     5463708.984 8   4585929.199 4
 90  3  8  8 52 59.0800000  0  4G 3G16G19G13
  22927456.234    22927462.103   -42591217.731 8  34268724.975 8
  25104587.216    25104593.670   -85444915.625 9 106979546.099 8
  24618465.544    24618471.770   -50471569.182 9  64886379.987 7
  24094311.918    24094317.354     5486508.142 7   4603694.803 5
 90  3  8  8 53 14.0800000  0  4G 3G16G19G13
  22926297.875    22926302.941   -42597311.165 9  34263976.824 8
  25094682.451    25094688.560   -85496965.358 9 106938987.887 8
  24623112.082    24623118.239   -50447154.192 9  64905404.643 8
  24098654.000    24098657.381     5509323.328 8   4621472.885 4
 90  3  8  8 53 29.0800000  0  4G 3G16G19G13
  22925144.988    22925150.596   -42603376.102 9  34259250.885 8
  25084781.663    25084786.601   -85548996.403 9 106898444.255 8
  24627777.039    24627782.711   -50422645.816 9  64924502.072 8
  24102997.812    24103003.855     5532154.903 7   4639263.730 6
 90  3  8  8 53 44.0800000  0  4G 3G16G19G13
  22923996.452    22924001.632   -42609412.717 8  34254547.028 8
  25074883.953    25074889.103   -85601008.377 9 106857915.489 7
  24632457.677    24632461.764   -50398044.510 7  64943671.909 8
  24107344.388    24107348.747     5555002.750 7   4657067.325 4
 90  3  8  8 53 59.0800000  0  4G 3G16G19G13
  22922852.117    22922855.935   -42615420.761 9  34249865.419 8
  25064990.990    25064995.614   -85653000.798 8 106817401.953 8
  24637156.691    24637161.337   -50373350.518 9  64962913.977 7
  24111698.009    24111701.095     5577866.906 6   4674883.575 3
 90  3  8  8 54 14.0800000  0  4G 3G16G19G13
  22921715.616    22921717.933   -42621400.361 8  34245206.000 8
  25055100.077    25055104.670   -85704973.599 9 106776903.705 8
  24641873.642    24641880.192   -50348564.199 8  64982227.983 8
  24116050.300    24116055.111     5600747.279 7   4692712.431 3
 90  3  8  8 54 29.0800000  0  4G 3G16G19G13
  22920582.346    22920584.611   -42627351.309 8  34240568.914 6
  25045214.072    25045218.020   -85756926.056 9 106736421.298 8
  24646608.665    24646614.967   -50323685.694 8  65001613.821 8
  24120407.297    24120413.858     5623644.066 6   4710554.050 2
 90  3  8  8 54 44.0800000  0  4G 3G16G19G13
  22919453.765    22919457.128   -42633273.566 9  34235954.173 7
  25035330.812    25035336.779   -85808858.002 9 106695954.869 8
  24651360.086    24651364.637   -50298715.385 8  65021071.188 8
  24124765.851    24124770.610     5646557.395 6   4728408.578 1
 90  3  8  8 54 59.0800000  0  4G 3G16G19G13
  22918331.854    22918335.745   -42639167.037 7  34231361.849 9
  25025451.602    25025458.141   -85860768.917 8 106655504.839 8
  24656127.998    24656133.024   -50273653.526 8  65040599.896 8
                  24129128.680     5669487.433 5
 90  3  8  8 55 14.0800000  0  4G 3G16G19G13
  22917216.700    22917221.113   -42645031.787 8  34226791.919 7
  25015577.617    25015583.310   -85912658.752 7 106615071.223 8
  24660915.030    24660921.106   -50248500.564 9  65060199.589 8
                  24133502.979     4841695.704 1
 90  3  8  8 55 29.0800000  0  4G 3G16G19G13
  22916105.529    22916112.084   -42650867.934 9  34222244.272 7
  25005707.994    25005712.745   -85964527.017 8 106574654.433 9
  24665719.734    24665724.057   -50223256.609 8  65079870.192 7
  24137859.670    24137878.071     5669612.859 1   4859589.178 3
 90  3  8  8 55 44.0800000  0  4G 3G16G19G13
  22915001.278    22915006.995   -42656675.074 8  34217719.242 9
  24995841.076    24995846.757   -86016373.177 7 106534254.849 9
  24670539.909    24670545.026   -50197922.089 8  65099611.367 7
  24142235.928    24142246.351     5692592.555 3   4877495.830 3
 90  3  8  8 55 59.0800000  0  4G 3G16G19G13
  22913901.674    22913907.905   -42662453.636 8  34213216.469 8
  24985980.324    24985985.577   -86068197.165 8 106493872.557 8
  24675376.667    24675382.137   -50172497.627 9  65119422.631 8
  24146611.164    24146619.035     5715589.254 1   4895415.348 3
 90  3  8  8 56 14.0800000  0  4G 3G16G19G13
  22912807.664    22912813.378   -42668203.232 9  34208736.276 8
  24976122.380    24976128.632   -86119998.377 8 106453507.992 9
  24680232.718    24680236.717   -50146983.174 8  65139304.015 8
  24150997.198    24151002.554     5738602.764 1   4913347.943 5
 90  3  8  8 56 29.0800000  0  4G 3G16G19G13
  22911719.850    22911723.707   -42673923.766 7  34204278.728 8
  24966269.563    24966275.566   -86171776.338 7 106413161.558 8
  24685105.449    24685109.015   -50121379.040 8  65159255.265 7
  24155380.296    24155382.191     5761633.323 3   4931293.849 5
 90  3  8  8 56 44.0800000  0  4G 3G16G19G13
  22910635.751    22910640.069   -42679615.311 8  34199843.755 7
  24956421.554    24956427.930   -86223530.971 7 106372833.307 9
  24689994.229    24689999.399   -50095686.018 8  65179275.786 8
                  24159767.628                     4949249.962 6
 90  3  8  8 56 59.0800000  0  4G 3G16G19G13
  22909557.707    22909563.734   -42685277.953 8  34195431.302 8
  24946577.953    24946583.184   -86275261.805 9 106332523.590 9
  24694901.348    24694905.854   -50069904.152 8  65199365.545 8
                  24164157.590                     4967229.926 6
 90  3  8  8 57 14.0800000  0  4G 3G16G19G13
  22908486.280    22908490.144   -42690911.721 9  34191041.356 7
  24936737.378    24936743.488   -86326968.714 8 106292232.529 9
  24699825.087    24699829.509   -50044033.874 9  65219524.194 8
  24168549.747    24168550.412     5647662.597 2   4985216.125 6
 90  3  8  8 57 29.0800000  0  4G 3G16G19G13
  22907420.900    22907423.789   -42696516.329 9  34186674.121 8
  24926903.845    24926909.024   -86378651.167 9 106251960.488 9
  24704765.053    24704769.750   -50018075.466 9  65239751.507 8
  24172943.700    24172947.897     5670761.380 5   5003215.187 6
 90  3  8  8 57 44.0800000  0  4G 3G16G19G13
  22906359.154    22906362.489   -42702091.825 8  34182329.568 7
  24917073.235    24917078.187   -86430308.718 8 106211707.870 9
  24709721.357    24709725.601   -49992029.191 8  65260047.301 7
  24177341.748    24177343.108     5693877.408 5   5021227.680 6
 90  3  8  8 57 59.0800000  0  4G 3G16G19G13
  22905306.616    22905307.718   -42707638.427 8  34178007.528 7
  24907246.354    24907253.646   -86481941.142 7 106171474.832 8
  24714694.053    24714696.436   -49965895.057 9  65280411.562 6
  24181740.508    24181743.573     5717010.552 7   5039253.544 2
 90  3  8  8 58 14.0800000  0  4G 3G16G19G13
  22904255.267    22904256.781   -42713155.760 8  34173708.323 7
  24897423.835    24897433.626   -86533547.963 7 106131261.764 9
  24719683.344    24719687.346   -49939673.731 8  65300843.747 7
  24186145.847    24186151.662     5740161.210 6   5057293.018 5
